Wetterdaten: Sonntag, 10.09.2017
Datum Zeit Temp. A. Pool Temp. Feuchte A. Luftdruck Regen Wind Richtung Richtung Sonnenschein ET UV Solar Taupunkt Windchill Windben Empfang
10.09.2017 00:00 15,2 C 19,4 C 78 % 1002,8 hPa 0,0 l/m 7,8 km/h (2 Bft) W 266 0 min 0,000 mm 0,0 UV-I 0 W/m 11,4 C 14,4 C 14,5 km/h (3 Bft) 100,00 %
10.09.2017 00:02 15,1 C 19,4 C 78 % 1002,8 hPa 0,0 l/m 8,5 km/h (2 Bft) W-SW 255 0 min 0,000 mm 0,0 UV-I 0 W/m 11,3 C 13,9 C 12,9 km/h (3 Bft) 100,00 %
10.09.2017 00:04 15,1 C 19,4 C 78 % 1002,9 hPa 0,0 l/m 10,6 km/h (2 Bft) SW 234 0 min 0,000 mm 0,0 UV-I 0 W/m 11,3 C 13,0 C 16,1 km/h (3 Bft) 98,59 %
10.09.2017 00:06 15,1 C 19,4 C 78 % 1003,0 hPa 0,0 l/m 7,4 km/h (2 Bft) SW 226 0 min 0,000 mm 0,0 UV-I 0 W/m 11,3 C 14,5 C 11,3 km/h (2 Bft) 100,00 %
10.09.2017 00:08 15,1 C 19,4 C 78 % 1003,0 hPa 0,0 l/m 7,4 km/h (2 Bft) SW 235 0 min 0,000 mm 0,0 UV-I 0 W/m 11,3 C 14,5 C 12,9 km/h (3 Bft) 100,00 %
10.09.2017 00:10 15,1 C 19,4 C 78 % 1003,1 hPa 0,0 l/m 7,9 km/h (2 Bft) SW 233 0 min 0,000 mm 0,0 UV-I 0 W/m 11,3 C 14,3 C 11,3 km/h (2 Bft) 98,04 %
10.09.2017 00:12 15,0 C 19,4 C 78 % 1003,0 hPa 0,0 l/m 7,1 km/h (2 Bft) W-SW 252 0 min 0,000 mm 0,0 UV-I 0 W/m 11,2 C 14,6 C 11,3 km/h (2 Bft) 100,00 %
10.09.2017 00:14 15,0 C 19,4 C 78 % 1003,0 hPa 0,0 l/m 7,4 km/h (2 Bft) W-SW 244 0 min 0,000 mm 0,0 UV-I 0 W/m 11,2 C 14,4 C 11,3 km/h (2 Bft) 100,00 %
10.09.2017 00:16 15,0 C 19,4 C 78 % 1003,1 hPa 0,0 l/m 8,0 km/h (2 Bft) SW 221 0 min 0,000 mm 0,0 UV-I 0 W/m 11,2 C 14,1 C 11,3 km/h (2 Bft) 100,00 %
10.09.2017 00:18 14,9 C 19,4 C 79 % 1003,0 hPa 0,0 l/m 8,5 km/h (2 Bft) W-SW 239 0 min 0,000 mm 0,0 UV-I 0 W/m 11,3 C 13,7 C 12,9 km/h (3 Bft) 100,00 %
10.09.2017 00:20 14,9 C 19,4 C 79 % 1003,0 hPa 0,0 l/m 8,2 km/h (2 Bft) SW 229 0 min 0,000 mm 0,0 UV-I 0 W/m 11,3 C 13,9 C 12,9 km/h (3 Bft) 100,00 %
10.09.2017 00:22 14,8 C 19,4 C 79 % 1002,9 hPa 0,0 l/m 7,8 km/h (2 Bft) W-SW 256 0 min 0,000 mm 0,0 UV-I 0 W/m 11,2 C 14,0 C 12,9 km/h (3 Bft) 98,08 %
10.09.2017 00:24 14,8 C 19,4 C 79 % 1002,9 hPa 0,0 l/m 5,7 km/h (1 Bft) W-SW 237 0 min 0,000 mm 0,0 UV-I 0 W/m 11,2 C 14,8 C 11,3 km/h (2 Bft) 100,00 %
10.09.2017 00:26 14,8 C 19,4 C 79 % 1002,9 hPa 0,0 l/m 7,7 km/h (2 Bft) W-SW 257 0 min 0,000 mm 0,0 UV-I 0 W/m 11,2 C 14,1 C 14,5 km/h (3 Bft) 100,00 %
10.09.2017 00:28 14,8 C 19,4 C 79 % 1002,9 hPa 0,0 l/m 7,2 km/h (2 Bft) W-SW 244 0 min 0,000 mm 0,0 UV-I 0 W/m 11,2 C 14,3 C 11,3 km/h (2 Bft) 100,00 %
10.09.2017 00:30 14,8 C 19,4 C 80 % 1002,9 hPa 0,0 l/m 6,6 km/h (2 Bft) W 261 0 min 0,000 mm 0,0 UV-I 0 W/m 11,4 C 14,7 C 11,3 km/h (2 Bft) 100,00 %
10.09.2017 00:32 14,7 C 19,4 C 80 % 1002,8 hPa 0,0 l/m 8,3 km/h (2 Bft) W 269 0 min 0,000 mm 0,0 UV-I 0 W/m 11,3 C 13,6 C 12,9 km/h (3 Bft) 97,73 %
10.09.2017 00:34 14,7 C 19,4 C 80 % 1002,8 hPa 0,0 l/m 8,2 km/h (2 Bft) W-SW 244 0 min 0,000 mm 0,0 UV-I 0 W/m 11,3 C 13,7 C 14,5 km/h (3 Bft) 97,87 %
10.09.2017 00:36 14,7 C 19,4 C 80 % 1002,8 hPa 0,0 l/m 9,9 km/h (2 Bft) W-SW 242 0 min 0,000 mm 0,0 UV-I 0 W/m 11,3 C 12,8 C 14,5 km/h (3 Bft) 100,00 %
10.09.2017 00:38 14,7 C 19,4 C 80 % 1002,9 hPa 0,0 l/m 6,7 km/h (2 Bft) SW 234 0 min 0,000 mm 0,0 UV-I 0 W/m 11,3 C 14,5 C 9,7 km/h (2 Bft) 100,00 %
10.09.2017 00:40 14,7 C 19,4 C 80 % 1002,8 hPa 0,0 l/m 9,1 km/h (2 Bft) W-SW 248 0 min 0,000 mm 0,0 UV-I 0 W/m 11,3 C 13,2 C 12,9 km/h (3 Bft) 97,87 %
10.09.2017 00:42 14,7 C 19,4 C 80 % 1002,8 hPa 0,0 l/m 7,8 km/h (2 Bft) W 261 0 min 0,000 mm 0,0 UV-I 0 W/m 11,3 C 13,9 C 12,9 km/h (3 Bft) 100,00 %
10.09.2017 00:44 14,6 C 19,4 C 80 % 1002,8 hPa 0,0 l/m 9,0 km/h (2 Bft) W-SW 246 0 min 0,000 mm 0,0 UV-I 0 W/m 11,2 C 13,2 C 16,1 km/h (3 Bft) 100,00 %
10.09.2017 00:46 14,6 C 19,4 C 80 % 1002,7 hPa 0,0 l/m 8,6 km/h (2 Bft) W-SW 241 0 min 0,000 mm 0,0 UV-I 0 W/m 11,2 C 13,4 C 14,5 km/h (3 Bft) 100,00 %
10.09.2017 00:48 14,6 C 19,4 C 80 % 1002,8 hPa 0,0 l/m 7,4 km/h (2 Bft) W 263 0 min 0,000 mm 0,0 UV-I 0 W/m 11,2 C 14,0 C 12,9 km/h (3 Bft) 100,00 %
10.09.2017 00:50 14,6 C 19,4 C 80 % 1002,9 hPa 0,0 l/m 8,4 km/h (2 Bft) W-SW 238 0 min 0,000 mm 0,0 UV-I 0 W/m 11,2 C 13,5 C 14,5 km/h (3 Bft) 100,00 %
10.09.2017 00:52 14,6 C 19,4 C 80 % 1002,9 hPa 0,0 l/m 7,3 km/h (2 Bft) W-SW 248 0 min 0,000 mm 0,0 UV-I 0 W/m 11,2 C 14,1 C 12,9 km/h (3 Bft) 100,00 %
10.09.2017 00:54 14,6 C 19,4 C 80 % 1002,9 hPa 0,0 l/m 8,5 km/h (2 Bft) W 264 0 min 0,000 mm 0,0 UV-I 0 W/m 11,2 C 13,4 C 12,9 km/h (3 Bft) 100,00 %
10.09.2017 00:56 14,6 C 19,4 C 80 % 1002,8 hPa 0,0 l/m 7,3 km/h (2 Bft) W-SW 248 0 min 0,000 mm 0,0 UV-I 0 W/m 11,2 C 14,1 C 11,3 km/h (2 Bft) 100,00 %
10.09.2017 00:58 14,6 C 19,4 C 80 % 1002,8 hPa 0,0 l/m 7,9 km/h (2 Bft) W-SW 246 0 min 0,000 mm 0,0 UV-I 0 W/m 11,2 C 13,7 C 12,9 km/h (3 Bft) 100,00 %
10.09.2017 01:00 14,5 C 19,4 C 81 % 1002,9 hPa 0,0 l/m 5,2 km/h (1 Bft) S-SW 209 0 min 0,025 mm 0,0 UV-I 0 W/m 11,3 C 14,5 C 8,0 km/h (2 Bft) 100,00 %
10.09.2017 01:01 14,5 C 19,4 C 81 % 1002,9 hPa 0,0 l/m 6,7 km/h (2 Bft) SW 232 0 min 0,000 mm 0,0 UV-I 0 W/m 11,3 C 14,3 C 9,7 km/h (2 Bft) 97,87 %
10.09.2017 01:04 14,5 C 19,4 C 81 % 1003,0 hPa 0,0 l/m 6,0 km/h (2 Bft) W-SW 243 0 min 0,000 mm 0,0 UV-I 0 W/m 11,3 C 14,5 C 8,0 km/h (2 Bft) 100,00 %
10.09.2017 01:06 14,4 C 19,4 C 81 % 1003,0 hPa 0,0 l/m 6,4 km/h (2 Bft) SW 236 0 min 0,000 mm 0,0 UV-I 0 W/m 11,2 C 14,4 C 9,7 km/h (2 Bft) 100,00 %
10.09.2017 01:08 14,4 C 19,4 C 81 % 1003,0 hPa 0,0 l/m 4,7 km/h (1 Bft) S-SW 213 0 min 0,000 mm 0,0 UV-I 0 W/m 11,2 C 14,4 C 9,7 km/h (2 Bft) 96,00 %
10.09.2017 01:10 14,4 C 19,4 C 81 % 1003,0 hPa 0,0 l/m 6,8 km/h (2 Bft) SW 214 0 min 0,000 mm 0,0 UV-I 0 W/m 11,2 C 14,2 C 9,7 km/h (2 Bft) 98,00 %
10.09.2017 01:12 14,4 C 19,4 C 81 % 1003,0 hPa 0,0 l/m 7,1 km/h (2 Bft) S-SW 194 0 min 0,000 mm 0,0 UV-I 0 W/m 11,2 C 14,0 C 9,7 km/h (2 Bft) 95,74 %
10.09.2017 01:14 14,3 C 19,4 C 81 % 1002,9 hPa 0,0 l/m 6,5 km/h (2 Bft) SW 234 0 min 0,000 mm 0,0 UV-I 0 W/m 11,1 C 14,3 C 11,3 km/h (2 Bft) 95,74 %
10.09.2017 01:16 14,3 C 19,4 C 82 % 1002,9 hPa 0,0 l/m 7,6 km/h (2 Bft) SW 225 0 min 0,000 mm 0,0 UV-I 0 W/m 11,3 C 13,6 C 9,7 km/h (2 Bft) 96,00 %
10.09.2017 01:18 14,3 C 19,4 C 81 % 1002,8 hPa 0,0 l/m 4,4 km/h (1 Bft) W-SW 248 0 min 0,000 mm 0,0 UV-I 0 W/m 11,1 C 14,3 C 6,4 km/h (2 Bft) 97,87 %
10.09.2017 01:20 14,3 C 19,4 C 82 % 1002,8 hPa 0,0 l/m 4,7 km/h (1 Bft) SW 214 0 min 0,000 mm 0,0 UV-I 0 W/m 11,3 C 14,3 C 6,4 km/h (2 Bft) 97,37 %
10.09.2017 01:22 14,3 C 19,4 C 82 % 1002,9 hPa 0,0 l/m 5,0 km/h (1 Bft) W-SW 252 0 min 0,000 mm 0,0 UV-I 0 W/m 11,3 C 14,3 C 8,0 km/h (2 Bft) 95,74 %
10.09.2017 01:24 14,3 C 19,4 C 82 % 1002,9 hPa 0,0 l/m 4,8 km/h (1 Bft) W-SW 249 0 min 0,000 mm 0,0 UV-I 0 W/m 11,3 C 14,3 C 8,0 km/h (2 Bft) 98,11 %
10.09.2017 01:26 14,2 C 19,4 C 82 % 1002,8 hPa 0,0 l/m 5,0 km/h (1 Bft) S-SW 212 0 min 0,000 mm 0,0 UV-I 0 W/m 11,2 C 14,2 C 8,0 km/h (2 Bft) 98,00 %
10.09.2017 01:28 14,2 C 19,4 C 82 % 1002,8 hPa 0,0 l/m 4,4 km/h (1 Bft) W 261 0 min 0,000 mm 0,0 UV-I 0 W/m 11,2 C 14,2 C 6,4 km/h (2 Bft) 97,37 %
10.09.2017 01:30 14,2 C 19,4 C 82 % 1002,8 hPa 0,0 l/m 4,9 km/h (1 Bft) W-SW 258 0 min 0,000 mm 0,0 UV-I 0 W/m 11,2 C 14,2 C 6,4 km/h (2 Bft) 94,34 %
10.09.2017 01:32 14,2 C 19,4 C 82 % 1002,8 hPa 0,0 l/m 5,9 km/h (2 Bft) W-SW 257 0 min 0,000 mm 0,0 UV-I 0 W/m 11,2 C 14,2 C 9,7 km/h (2 Bft) 97,56 %
10.09.2017 01:34 14,2 C 19,4 C 83 % 1002,7 hPa 0,0 l/m 5,3 km/h (1 Bft) W 267 0 min 0,000 mm 0,0 UV-I 0 W/m 11,4 C 14,2 C 9,7 km/h (2 Bft) 98,21 %
10.09.2017 01:36 14,2 C 19,4 C 83 % 1002,6 hPa 0,0 l/m 5,1 km/h (1 Bft) W 259 0 min 0,000 mm 0,0 UV-I 0 W/m 11,4 C 14,2 C 8,0 km/h (2 Bft) 97,37 %
10.09.2017 01:38 14,2 C 19,4 C 83 % 1002,7 hPa 0,0 l/m 4,1 km/h (1 Bft) W-SW 246 0 min 0,000 mm 0,0 UV-I 0 W/m 11,4 C 14,2 C 6,4 km/h (2 Bft) 93,18 %
10.09.2017 01:40 14,2 C 19,4 C 83 % 1002,6 hPa 0,0 l/m 4,1 km/h (1 Bft) W-SW 240 0 min 0,000 mm 0,0 UV-I 0 W/m 11,4 C 14,2 C 6,4 km/h (2 Bft) 98,00 %
10.09.2017 01:42 14,1 C 19,4 C 83 % 1002,6 hPa 0,0 l/m 5,4 km/h (1 Bft) SW 236 0 min 0,000 mm 0,0 UV-I 0 W/m 11,3 C 14,1 C 8,0 km/h (2 Bft) 100,00 %
10.09.2017 01:44 14,1 C 19,4 C 83 % 1002,7 hPa 0,0 l/m 4,9 km/h (1 Bft) W 266 0 min 0,000 mm 0,0 UV-I 0 W/m 11,3 C 14,1 C 6,4 km/h (2 Bft) 100,00 %
10.09.2017 01:46 14,1 C 19,4 C 83 % 1002,7 hPa 0,0 l/m 4,2 km/h (1 Bft) W-SW 238 0 min 0,000 mm 0,0 UV-I 0 W/m 11,3 C 14,1 C 6,4 km/h (2 Bft) 100,00 %
10.09.2017 01:48 14,1 C 19,4 C 83 % 1002,7 hPa 0,0 l/m 5,6 km/h (1 Bft) SW 225 0 min 0,000 mm 0,0 UV-I 0 W/m 11,3 C 14,1 C 9,7 km/h (2 Bft) 100,00 %
10.09.2017 01:50 14,1 C 19,4 C 83 % 1002,8 hPa 0,0 l/m 7,5 km/h (2 Bft) SW 234 0 min 0,000 mm 0,0 UV-I 0 W/m 11,3 C 13,4 C 9,7 km/h (2 Bft) 100,00 %
10.09.2017 01:52 14,1 C 19,4 C 83 % 1002,8 hPa 0,0 l/m 6,8 km/h (2 Bft) SW 234 0 min 0,000 mm 0,0 UV-I 0 W/m 11,3 C 13,9 C 9,7 km/h (2 Bft) 98,11 %
10.09.2017 01:54 14,1 C 19,4 C 83 % 1002,8 hPa 0,0 l/m 6,0 km/h (2 Bft) SW 218 0 min 0,000 mm 0,0 UV-I 0 W/m 11,3 C 14,1 C 8,0 km/h (2 Bft) 100,00 %
10.09.2017 01:56 14,1 C 19,4 C 83 % 1002,8 hPa 0,0 l/m 7,5 km/h (2 Bft) W-SW 237 0 min 0,000 mm 0,0 UV-I 0 W/m 11,3 C 13,4 C 11,3 km/h (2 Bft) 100,00 %
10.09.2017 01:58 14,1 C 19,4 C 83 % 1002,8 hPa 0,0 l/m 7,4 km/h (2 Bft) SW 223 0 min 0,000 mm 0,0 UV-I 0 W/m 11,3 C 13,5 C 9,7 km/h (2 Bft) 95,12 %
10.09.2017 02:00 14,1 C 19,4 C 83 % 1002,8 hPa 0,0 l/m 6,5 km/h (2 Bft) SW 224 0 min 0,026 mm 0,0 UV-I 0 W/m 11,3 C 14,1 C 9,7 km/h (2 Bft) 100,00 %
10.09.2017 02:02 14,1 C 19,4 C 83 % 1002,8 hPa 0,0 l/m 5,9 km/h (2 Bft) SW 232 0 min 0,000 mm 0,0 UV-I 0 W/m 11,3 C 14,1 C 8,0 km/h (2 Bft) 98,00 %
10.09.2017 02:04 14,0 C 19,4 C 83 % 1002,8 hPa 0,0 l/m 3,5 km/h (1 Bft) W-SW 238 0 min 0,000 mm 0,0 UV-I 0 W/m 11,2 C 14,0 C 6,4 km/h (2 Bft) 100,00 %
10.09.2017 02:06 14,0 C 19,4 C 83 % 1002,8 hPa 0,0 l/m 4,2 km/h (1 Bft) W-SW 255 0 min 0,000 mm 0,0 UV-I 0 W/m 11,2 C 14,0 C 6,4 km/h (2 Bft) 100,00 %
10.09.2017 02:08 14,0 C 19,4 C 83 % 1002,9 hPa 0,0 l/m 3,4 km/h (1 Bft) W-SW 244 0 min 0,000 mm 0,0 UV-I 0 W/m 11,2 C 14,0 C 6,4 km/h (2 Bft) 100,00 %
10.09.2017 02:10 14,0 C 19,4 C 83 % 1003,0 hPa 0,0 l/m 4,8 km/h (1 Bft) SW 232 0 min 0,000 mm 0,0 UV-I 0 W/m 11,2 C 14,0 C 8,0 km/h (2 Bft) 96,00 %
10.09.2017 02:12 14,0 C 19,4 C 84 % 1003,0 hPa 0,0 l/m 4,8 km/h (1 Bft) SW 234 0 min 0,000 mm 0,0 UV-I 0 W/m 11,3 C 14,0 C 8,0 km/h (2 Bft) 97,37 %
10.09.2017 02:14 14,0 C 19,4 C 84 % 1002,9 hPa 0,0 l/m 4,9 km/h (1 Bft) SW 227 0 min 0,000 mm 0,0 UV-I 0 W/m 11,3 C 14,0 C 8,0 km/h (2 Bft) 98,00 %
10.09.2017 02:16 14,0 C 19,4 C 84 % 1002,9 hPa 0,0 l/m 3,8 km/h (1 Bft) SW 227 0 min 0,000 mm 0,0 UV-I 0 W/m 11,3 C 14,0 C 6,4 km/h (2 Bft) 98,00 %
10.09.2017 02:18 14,0 C 19,4 C 84 % 1003,1 hPa 0,0 l/m 7,4 km/h (2 Bft) S-SW 212 0 min 0,000 mm 0,0 UV-I 0 W/m 11,3 C 13,4 C 11,3 km/h (2 Bft) 97,56 %
10.09.2017 02:20 14,0 C 19,4 C 84 % 1003,1 hPa 0,0 l/m 7,4 km/h (2 Bft) W-SW 239 0 min 0,000 mm 0,0 UV-I 0 W/m 11,3 C 13,4 C 11,3 km/h (2 Bft) 98,11 %
10.09.2017 02:22 13,9 C 19,4 C 84 % 1003,0 hPa 0,0 l/m 5,6 km/h (1 Bft) SW 227 0 min 0,000 mm 0,0 UV-I 0 W/m 11,2 C 13,9 C 8,0 km/h (2 Bft) 100,00 %
10.09.2017 02:24 13,9 C 19,4 C 84 % 1003,0 hPa 0,0 l/m 5,8 km/h (2 Bft) W-SW 246 0 min 0,000 mm 0,0 UV-I 0 W/m 11,2 C 13,9 C 8,0 km/h (2 Bft) 97,22 %
10.09.2017 02:26 13,9 C 19,4 C 84 % 1003,1 hPa 0,0 l/m 5,9 km/h (2 Bft) SW 217 0 min 0,000 mm 0,0 UV-I 0 W/m 11,2 C 13,9 C 8,0 km/h (2 Bft) 96,23 %
10.09.2017 02:28 13,9 C 19,4 C 84 % 1003,0 hPa 0,0 l/m 7,1 km/h (2 Bft) W-SW 247 0 min 0,000 mm 0,0 UV-I 0 W/m 11,2 C 13,5 C 9,7 km/h (2 Bft) 95,74 %
10.09.2017 02:30 13,9 C 19,4 C 84 % 1003,1 hPa 0,0 l/m 6,1 km/h (2 Bft) W-SW 239 0 min 0,000 mm 0,0 UV-I 0 W/m 11,2 C 13,9 C 9,7 km/h (2 Bft) 98,11 %
10.09.2017 02:32 13,9 C 19,4 C 84 % 1003,1 hPa 0,0 l/m 6,8 km/h (2 Bft) W-SW 237 0 min 0,000 mm 0,0 UV-I 0 W/m 11,2 C 13,7 C 9,7 km/h (2 Bft) 97,56 %
10.09.2017 02:34 13,9 C 19,4 C 84 % 1003,0 hPa 0,0 l/m 6,1 km/h (2 Bft) SW 226 0 min 0,000 mm 0,0 UV-I 0 W/m 11,2 C 13,9 C 8,0 km/h (2 Bft) 92,00 %
10.09.2017 02:36 13,9 C 19,4 C 84 % 1003,0 hPa 0,0 l/m 4,2 km/h (1 Bft) SW 218 0 min 0,000 mm 0,0 UV-I 0 W/m 11,2 C 13,9 C 6,4 km/h (2 Bft) 98,00 %
10.09.2017 02:38 13,9 C 19,4 C 84 % 1003,0 hPa 0,0 l/m 6,0 km/h (2 Bft) SW 236 0 min 0,000 mm 0,0 UV-I 0 W/m 11,2 C 13,9 C 8,0 km/h (2 Bft) 97,56 %
10.09.2017 02:40 13,9 C 19,4 C 84 % 1003,0 hPa 0,0 l/m 5,5 km/h (1 Bft) SW 232 0 min 0,000 mm 0,0 UV-I 0 W/m 11,2 C 13,9 C 8,0 km/h (2 Bft) 98,00 %
10.09.2017 02:42 13,9 C 19,4 C 84 % 1003,0 hPa 0,0 l/m 5,2 km/h (1 Bft) W-SW 247 0 min 0,000 mm 0,0 UV-I 0 W/m 11,2 C 13,9 C 8,0 km/h (2 Bft) 97,87 %
10.09.2017 02:44 13,9 C 19,4 C 84 % 1003,0 hPa 0,0 l/m 5,8 km/h (2 Bft) W 259 0 min 0,000 mm 0,0 UV-I 0 W/m 11,2 C 13,9 C 6,4 km/h (2 Bft) 97,37 %
10.09.2017 02:46 13,9 C 19,4 C 84 % 1002,9 hPa 0,0 l/m 5,6 km/h (1 Bft) W 265 0 min 0,000 mm 0,0 UV-I 0 W/m 11,2 C 13,9 C 9,7 km/h (2 Bft) 98,00 %
10.09.2017 02:48 13,9 C 19,4 C 84 % 1003,0 hPa 0,0 l/m 6,1 km/h (2 Bft) W-SW 249 0 min 0,000 mm 0,0 UV-I 0 W/m 11,2 C 13,9 C 11,3 km/h (2 Bft) 97,87 %
10.09.2017 02:50 13,9 C 19,4 C 84 % 1003,0 hPa 0,0 l/m 5,8 km/h (2 Bft) W-SW 246 0 min 0,000 mm 0,0 UV-I 0 W/m 11,2 C 13,9 C 8,0 km/h (2 Bft) 92,86 %
10.09.2017 02:52 13,9 C 19,4 C 84 % 1003,0 hPa 0,0 l/m 7,3 km/h (2 Bft) W-SW 249 0 min 0,000 mm 0,0 UV-I 0 W/m 11,2 C 13,4 C 11,3 km/h (2 Bft) 97,56 %
10.09.2017 02:54 13,9 C 19,4 C 84 % 1003,0 hPa 0,0 l/m 5,6 km/h (1 Bft) W-NW 292 0 min 0,000 mm 0,0 UV-I 0 W/m 11,2 C 13,9 C 9,7 km/h (2 Bft) 94,00 %
10.09.2017 02:56 13,9 C 19,4 C 84 % 1002,9 hPa 0,0 l/m 6,6 km/h (2 Bft) W-SW 248 0 min 0,000 mm 0,0 UV-I 0 W/m 11,2 C 13,8 C 11,3 km/h (2 Bft) 97,22 %
10.09.2017 02:58 13,9 C 19,4 C 84 % 1002,9 hPa 0,0 l/m 8,1 km/h (2 Bft) W 264 0 min 0,000 mm 0,0 UV-I 0 W/m 11,2 C 12,9 C 11,3 km/h (2 Bft) 98,18 %
10.09.2017 03:00 13,9 C 19,4 C 84 % 1002,8 hPa 0,0 l/m 8,6 km/h (2 Bft) SW 236 0 min 0,025 mm 0,0 UV-I 0 W/m 11,2 C 12,6 C 12,9 km/h (3 Bft) 98,11 %
10.09.2017 03:02 13,9 C 19,4 C 84 % 1002,8 hPa 0,0 l/m 7,1 km/h (2 Bft) W-NW 287 0 min 0,000 mm 0,0 UV-I 0 W/m 11,2 C 13,5 C 11,3 km/h (2 Bft) 97,56 %
10.09.2017 03:04 13,9 C 19,4 C 84 % 1002,8 hPa 0,0 l/m 6,4 km/h (2 Bft) W-SW 251 0 min 0,000 mm 0,0 UV-I 0 W/m 11,2 C 13,9 C 12,9 km/h (3 Bft) 97,62 %
10.09.2017 03:06 13,9 C 19,4 C 84 % 1002,8 hPa 0,0 l/m 5,9 km/h (2 Bft) W-SW 240 0 min 0,000 mm 0,0 UV-I 0 W/m 11,2 C 13,9 C 8,0 km/h (2 Bft) 98,00 %
10.09.2017 03:08 13,9 C 19,4 C 84 % 1002,8 hPa 0,0 l/m 6,2 km/h (2 Bft) W-SW 248 0 min 0,000 mm 0,0 UV-I 0 W/m 11,2 C 13,9 C 11,3 km/h (2 Bft) 96,00 %
10.09.2017 03:10 13,9 C 19,4 C 84 % 1002,8 hPa 0,0 l/m 5,2 km/h (1 Bft) W-SW 243 0 min 0,000 mm 0,0 UV-I 0 W/m 11,2 C 13,9 C 8,0 km/h (2 Bft) 91,49 %
10.09.2017 03:12 13,9 C 19,4 C 84 % 1002,8 hPa 0,0 l/m 5,1 km/h (1 Bft) W-SW 251 0 min 0,000 mm 0,0 UV-I 0 W/m 11,2 C 13,9 C 6,4 km/h (2 Bft) 94,00 %
10.09.2017 03:14 13,9 C 19,4 C 84 % 1002,8 hPa 0,0 l/m 6,0 km/h (2 Bft) W-SW 249 0 min 0,000 mm 0,0 UV-I 0 W/m 11,2 C 13,9 C 12,9 km/h (3 Bft) 95,12 %
10.09.2017 03:16 13,9 C 19,4 C 84 % 1002,8 hPa 0,0 l/m 5,8 km/h (2 Bft) W-SW 238 0 min 0,000 mm 0,0 UV-I 0 W/m 11,2 C 13,9 C 6,4 km/h (2 Bft) 95,56 %
10.09.2017 03:18 13,9 C 19,4 C 84 % 1002,8 hPa 0,0 l/m 5,4 km/h (1 Bft) W-SW 244 0 min 0,000 mm 0,0 UV-I 0 W/m 11,2 C 13,9 C 11,3 km/h (2 Bft) 98,00 %
10.09.2017 03:20 13,8 C 19,4 C 84 % 1002,8 hPa 0,0 l/m 6,8 km/h (2 Bft) W-SW 247 0 min 0,000 mm 0,0 UV-I 0 W/m 11,1 C 13,6 C 9,7 km/h (2 Bft) 97,56 %
10.09.2017 03:22 13,9 C 19,4 C 84 % 1002,9 hPa 0,0 l/m 4,7 km/h (1 Bft) W-SW 245 0 min 0,000 mm 0,0 UV-I 0 W/m 11,2 C 13,9 C 8,0 km/h (2 Bft) 94,00 %
10.09.2017 03:24 13,9 C 19,4 C 84 % 1002,9 hPa 0,0 l/m 6,1 km/h (2 Bft) W 261 0 min 0,000 mm 0,0 UV-I 0 W/m 11,2 C 13,9 C 9,7 km/h (2 Bft) 100,00 %
10.09.2017 03:26 13,9 C 19,4 C 84 % 1002,9 hPa 0,0 l/m 5,0 km/h (1 Bft) W 259 0 min 0,000 mm 0,0 UV-I 0 W/m 11,2 C 13,9 C 9,7 km/h (2 Bft) 98,11 %
10.09.2017 03:28 13,8 C 19,4 C 84 % 1002,9 hPa 0,0 l/m 5,0 km/h (1 Bft) W 270 0 min 0,000 mm 0,0 UV-I 0 W/m 11,1 C 13,8 C 6,4 km/h (2 Bft) 97,37 %
10.09.2017 03:30 13,9 C 19,4 C 84 % 1002,9 hPa 0,0 l/m 4,4 km/h (1 Bft) W-SW 256 0 min 0,000 mm 0,0 UV-I 0 W/m 11,2 C 13,9 C 9,7 km/h (2 Bft) 98,31 %
10.09.2017 03:32 13,8 C 19,4 C 84 % 1002,9 hPa 0,0 l/m 5,4 km/h (1 Bft) W-SW 258 0 min 0,000 mm 0,0 UV-I 0 W/m 11,1 C 13,8 C 9,7 km/h (2 Bft) 96,00 %
10.09.2017 03:34 13,8 C 19,4 C 84 % 1002,9 hPa 0,0 l/m 5,8 km/h (2 Bft) W-SW 250 0 min 0,000 mm 0,0 UV-I 0 W/m 11,1 C 13,8 C 8,0 km/h (2 Bft) 97,56 %
10.09.2017 03:36 13,8 C 19,4 C 84 % 1003,0 hPa 0,0 l/m 5,4 km/h (1 Bft) W-SW 249 0 min 0,000 mm 0,0 UV-I 0 W/m 11,1 C 13,8 C 8,0 km/h (2 Bft) 98,04 %
10.09.2017 03:38 13,8 C 19,4 C 84 % 1002,9 hPa 0,0 l/m 7,4 km/h (2 Bft) W-SW 256 0 min 0,000 mm 0,0 UV-I 0 W/m 11,1 C 13,2 C 11,3 km/h (2 Bft) 98,00 %
10.09.2017 03:40 13,8 C 19,4 C 84 % 1002,9 hPa 0,0 l/m 7,2 km/h (2 Bft) W-SW 252 0 min 0,000 mm 0,0 UV-I 0 W/m 11,1 C 13,3 C 12,9 km/h (3 Bft) 97,22 %
10.09.2017 03:42 13,8 C 19,4 C 84 % 1002,9 hPa 0,0 l/m 6,2 km/h (2 Bft) W 273 0 min 0,000 mm 0,0 UV-I 0 W/m 11,1 C 13,8 C 11,3 km/h (2 Bft) 100,00 %
10.09.2017 03:44 13,8 C 19,4 C 84 % 1002,9 hPa 0,0 l/m 6,8 km/h (2 Bft) W-SW 252 0 min 0,000 mm 0,0 UV-I 0 W/m 11,1 C 13,6 C 11,3 km/h (2 Bft) 100,00 %
10.09.2017 03:46 13,8 C 19,4 C 84 % 1002,8 hPa 0,0 l/m 5,6 km/h (1 Bft) W-SW 240 0 min 0,000 mm 0,0 UV-I 0 W/m 11,1 C 13,8 C 8,0 km/h (2 Bft) 100,00 %
10.09.2017 03:48 13,8 C 18,9 C 84 % 1002,8 hPa 0,0 l/m 5,7 km/h (1 Bft) W-SW 242 0 min 0,000 mm 0,0 UV-I 0 W/m 11,1 C 13,8 C 11,3 km/h (2 Bft) 100,00 %
10.09.2017 03:50 13,8 C 19,4 C 84 % 1002,8 hPa 0,0 l/m 5,4 km/h (1 Bft) W 265 0 min 0,000 mm 0,0 UV-I 0 W/m 11,1 C 13,8 C 8,0 km/h (2 Bft) 98,11 %
10.09.2017 03:52 13,8 C 18,9 C 84 % 1002,8 hPa 0,0 l/m 5,4 km/h (1 Bft) W 259 0 min 0,000 mm 0,0 UV-I 0 W/m 11,1 C 13,8 C 9,7 km/h (2 Bft) 97,87 %
10.09.2017 03:54 13,8 C 18,9 C 84 % 1002,7 hPa 0,0 l/m 4,7 km/h (1 Bft) W 259 0 min 0,000 mm 0,0 UV-I 0 W/m 11,1 C 13,8 C 6,4 km/h (2 Bft) 100,00 %
10.09.2017 03:56 13,8 C 18,9 C 84 % 1002,7 hPa 0,0 l/m 4,9 km/h (1 Bft) W 260 0 min 0,000 mm 0,0 UV-I 0 W/m 11,1 C 13,8 C 6,4 km/h (2 Bft) 97,87 %
10.09.2017 03:58 13,8 C 18,9 C 84 % 1002,7 hPa 0,0 l/m 4,6 km/h (1 Bft) W-SW 247 0 min 0,000 mm 0,0 UV-I 0 W/m 11,1 C 13,8 C 8,0 km/h (2 Bft) 98,00 %
10.09.2017 04:00 13,8 C 18,9 C 84 % 1002,7 hPa 0,0 l/m 7,0 km/h (2 Bft) W-SW 247 0 min 0,026 mm 0,0 UV-I 0 W/m 11,1 C 13,4 C 9,7 km/h (2 Bft) 100,00 %
10.09.2017 04:02 13,8 C 18,9 C 84 % 1002,8 hPa 0,0 l/m 4,9 km/h (1 Bft) SW 227 0 min 0,000 mm 0,0 UV-I 0 W/m 11,1 C 13,8 C 6,4 km/h (2 Bft) 100,00 %
10.09.2017 04:04 13,8 C 18,9 C 84 % 1002,8 hPa 0,0 l/m 5,5 km/h (1 Bft) W 278 0 min 0,000 mm 0,0 UV-I 0 W/m 11,1 C 13,8 C 8,0 km/h (2 Bft) 100,00 %
10.09.2017 04:06 13,8 C 18,9 C 84 % 1002,7 hPa 0,0 l/m 7,6 km/h (2 Bft) W-SW 248 0 min 0,000 mm 0,0 UV-I 0 W/m 11,1 C 13,1 C 14,5 km/h (3 Bft) 100,00 %
10.09.2017 04:08 13,8 C 18,9 C 84 % 1002,7 hPa 0,0 l/m 6,5 km/h (2 Bft) W-SW 238 0 min 0,000 mm 0,0 UV-I 0 W/m 11,1 C 13,8 C 11,3 km/h (2 Bft) 100,00 %
10.09.2017 04:10 13,8 C 18,9 C 84 % 1002,7 hPa 0,0 l/m 7,2 km/h (2 Bft) SW 233 0 min 0,000 mm 0,0 UV-I 0 W/m 11,1 C 13,3 C 12,9 km/h (3 Bft) 100,00 %
10.09.2017 04:12 13,8 C 18,9 C 84 % 1002,7 hPa 0,0 l/m 8,0 km/h (2 Bft) W 264 0 min 0,000 mm 0,0 UV-I 0 W/m 11,1 C 12,8 C 12,9 km/h (3 Bft) 98,11 %
10.09.2017 04:14 13,8 C 18,9 C 84 % 1002,8 hPa 0,0 l/m 6,4 km/h (2 Bft) W 270 0 min 0,000 mm 0,0 UV-I 0 W/m 11,1 C 13,8 C 11,3 km/h (2 Bft) 95,74 %
10.09.2017 04:16 13,8 C 18,9 C 84 % 1002,7 hPa 0,0 l/m 5,2 km/h (1 Bft) W-SW 257 0 min 0,000 mm 0,0 UV-I 0 W/m 11,1 C 13,8 C 9,7 km/h (2 Bft) 100,00 %
10.09.2017 04:18 13,8 C 18,9 C 84 % 1002,7 hPa 0,0 l/m 6,7 km/h (2 Bft) W-SW 254 0 min 0,000 mm 0,0 UV-I 0 W/m 11,1 C 13,6 C 9,7 km/h (2 Bft) 100,00 %
10.09.2017 04:20 13,8 C 18,9 C 84 % 1002,7 hPa 0,0 l/m 4,5 km/h (1 Bft) W-SW 240 0 min 0,000 mm 0,0 UV-I 0 W/m 11,1 C 13,8 C 8,0 km/h (2 Bft) 96,00 %
10.09.2017 04:22 13,8 C 18,9 C 84 % 1002,7 hPa 0,0 l/m 4,6 km/h (1 Bft) W 259 0 min 0,000 mm 0,0 UV-I 0 W/m 11,1 C 13,8 C 9,7 km/h (2 Bft) 100,00 %
10.09.2017 04:24 13,8 C 18,9 C 84 % 1002,7 hPa 0,0 l/m 3,8 km/h (1 Bft) W 261 0 min 0,000 mm 0,0 UV-I 0 W/m 11,1 C 13,8 C 4,8 km/h (1 Bft) 100,00 %
10.09.2017 04:26 13,8 C 18,9 C 85 % 1002,7 hPa 0,0 l/m 4,1 km/h (1 Bft) W-SW 253 0 min 0,000 mm 0,0 UV-I 0 W/m 11,3 C 13,8 C 6,4 km/h (2 Bft) 100,00 %
10.09.2017 04:28 13,8 C 18,9 C 85 % 1002,7 hPa 0,0 l/m 5,2 km/h (1 Bft) W 268 0 min 0,000 mm 0,0 UV-I 0 W/m 11,3 C 13,8 C 6,4 km/h (2 Bft) 100,00 %
10.09.2017 04:30 13,8 C 18,9 C 85 % 1002,6 hPa 0,0 l/m 6,5 km/h (2 Bft) W-SW 251 0 min 0,000 mm 0,0 UV-I 0 W/m 11,3 C 13,8 C 9,7 km/h (2 Bft) 100,00 %
10.09.2017 04:32 13,8 C 18,9 C 85 % 1002,6 hPa 0,0 l/m 5,7 km/h (1 Bft) SW 235 0 min 0,000 mm 0,0 UV-I 0 W/m 11,3 C 13,8 C 9,7 km/h (2 Bft) 100,00 %
10.09.2017 04:34 13,8 C 18,9 C 85 % 1002,6 hPa 0,0 l/m 5,6 km/h (1 Bft) W 265 0 min 0,000 mm 0,0 UV-I 0 W/m 11,3 C 13,8 C 9,7 km/h (2 Bft) 98,11 %
10.09.2017 04:36 13,7 C 18,9 C 85 % 1002,5 hPa 0,0 l/m 4,7 km/h (1 Bft) W-SW 254 0 min 0,000 mm 0,0 UV-I 0 W/m 11,2 C 13,7 C 6,4 km/h (2 Bft) 100,00 %
10.09.2017 04:38 13,8 C 18,9 C 85 % 1002,5 hPa 0,0 l/m 6,0 km/h (2 Bft) W-NW 284 0 min 0,000 mm 0,0 UV-I 0 W/m 11,3 C 13,8 C 9,7 km/h (2 Bft) 96,00 %
10.09.2017 04:40 13,7 C 18,9 C 85 % 1002,4 hPa 0,0 l/m 5,4 km/h (1 Bft) W-SW 250 0 min 0,000 mm 0,0 UV-I 0 W/m 11,2 C 13,7 C 8,0 km/h (2 Bft) 100,00 %
10.09.2017 04:42 13,7 C 18,9 C 84 % 1002,4 hPa 0,0 l/m 5,6 km/h (1 Bft) W-SW 258 0 min 0,000 mm 0,0 UV-I 0 W/m 11,0 C 13,7 C 11,3 km/h (2 Bft) 100,00 %
10.09.2017 04:44 13,7 C 18,9 C 85 % 1002,6 hPa 0,0 l/m 5,3 km/h (1 Bft) W-SW 248 0 min 0,000 mm 0,0 UV-I 0 W/m 11,2 C 13,7 C 6,4 km/h (2 Bft) 97,56 %
10.09.2017 04:46 13,7 C 18,9 C 85 % 1002,6 hPa 0,0 l/m 9,8 km/h (2 Bft) SW 232 0 min 0,000 mm 0,0 UV-I 0 W/m 11,2 C 11,8 C 12,9 km/h (3 Bft) 100,00 %
10.09.2017 04:48 13,7 C 18,9 C 85 % 1002,6 hPa 0,0 l/m 6,7 km/h (2 Bft) W 279 0 min 0,000 mm 0,0 UV-I 0 W/m 11,2 C 13,5 C 11,3 km/h (2 Bft) 100,00 %
10.09.2017 04:50 13,7 C 18,9 C 85 % 1002,7 hPa 0,0 l/m 7,5 km/h (2 Bft) W-SW 255 0 min 0,000 mm 0,0 UV-I 0 W/m 11,2 C 13,0 C 11,3 km/h (2 Bft) 97,37 %
10.09.2017 04:52 13,7 C 18,9 C 85 % 1002,7 hPa 0,0 l/m 7,4 km/h (2 Bft) W-SW 258 0 min 0,000 mm 0,0 UV-I 0 W/m 11,2 C 13,1 C 11,3 km/h (2 Bft) 100,00 %
10.09.2017 04:54 13,7 C 18,9 C 85 % 1002,7 hPa 0,0 l/m 7,5 km/h (2 Bft) W-SW 247 0 min 0,000 mm 0,0 UV-I 0 W/m 11,2 C 13,0 C 12,9 km/h (3 Bft) 98,00 %
10.09.2017 04:56 13,7 C 18,9 C 85 % 1002,7 hPa 0,0 l/m 9,4 km/h (2 Bft) W 259 0 min 0,000 mm 0,0 UV-I 0 W/m 11,2 C 12,0 C 12,9 km/h (3 Bft) 100,00 %
10.09.2017 04:58 13,7 C 18,9 C 85 % 1002,6 hPa 0,0 l/m 7,2 km/h (2 Bft) SW 236 0 min 0,000 mm 0,0 UV-I 0 W/m 11,2 C 13,2 C 12,9 km/h (3 Bft) 98,18 %
10.09.2017 05:00 13,7 C 18,9 C 85 % 1002,6 hPa 0,0 l/m 7,6 km/h (2 Bft) W-SW 242 0 min 0,025 mm 0,0 UV-I 0 W/m 11,2 C 13,0 C 12,9 km/h (3 Bft) 100,00 %
10.09.2017 05:02 13,7 C 18,9 C 85 % 1002,7 hPa 0,0 l/m 4,6 km/h (1 Bft) W-SW 248 0 min 0,000 mm 0,0 UV-I 0 W/m 11,2 C 13,7 C 6,4 km/h (2 Bft) 98,11 %
10.09.2017 05:04 13,7 C 18,9 C 85 % 1002,7 hPa 0,0 l/m 5,8 km/h (2 Bft) W-SW 254 0 min 0,000 mm 0,0 UV-I 0 W/m 11,2 C 13,7 C 9,7 km/h (2 Bft) 100,00 %
10.09.2017 05:06 13,7 C 18,9 C 85 % 1002,6 hPa 0,0 l/m 4,1 km/h (1 Bft) W-SW 253 0 min 0,000 mm 0,0 UV-I 0 W/m 11,2 C 13,7 C 6,4 km/h (2 Bft) 100,00 %
10.09.2017 05:08 13,7 C 18,9 C 85 % 1002,6 hPa 0,0 l/m 3,7 km/h (1 Bft) W 259 0 min 0,000 mm 0,0 UV-I 0 W/m 11,2 C 13,7 C 6,4 km/h (2 Bft) 95,92 %
10.09.2017 05:10 13,7 C 18,9 C 86 % 1002,6 hPa 0,0 l/m 4,8 km/h (1 Bft) W-SW 258 0 min 0,000 mm 0,0 UV-I 0 W/m 11,4 C 13,7 C 6,4 km/h (2 Bft) 97,37 %
10.09.2017 05:12 13,7 C 18,9 C 86 % 1002,7 hPa 0,0 l/m 5,1 km/h (1 Bft) W 261 0 min 0,000 mm 0,0 UV-I 0 W/m 11,4 C 13,7 C 11,3 km/h (2 Bft) 97,87 %
10.09.2017 05:14 13,7 C 18,9 C 86 % 1002,7 hPa 0,0 l/m 5,2 km/h (1 Bft) W 268 0 min 0,000 mm 0,0 UV-I 0 W/m 11,4 C 13,7 C 9,7 km/h (2 Bft) 98,00 %
10.09.2017 05:16 13,6 C 18,9 C 86 % 1002,8 hPa 0,0 l/m 7,4 km/h (2 Bft) W-SW 252 0 min 0,000 mm 0,0 UV-I 0 W/m 11,3 C 13,0 C 12,9 km/h (3 Bft) 96,23 %
10.09.2017 05:18 13,6 C 18,9 C 86 % 1002,8 hPa 0,0 l/m 7,5 km/h (2 Bft) W-SW 255 0 min 0,000 mm 0,0 UV-I 0 W/m 11,3 C 12,9 C 11,3 km/h (2 Bft) 97,56 %
10.09.2017 05:20 13,6 C 18,9 C 86 % 1002,8 hPa 0,0 l/m 6,8 km/h (2 Bft) W-SW 244 0 min 0,000 mm 0,0 UV-I 0 W/m 11,3 C 13,4 C 11,3 km/h (2 Bft) 95,74 %
10.09.2017 05:22 13,6 C 18,9 C 86 % 1002,8 hPa 0,0 l/m 6,1 km/h (2 Bft) W-SW 254 0 min 0,000 mm 0,0 UV-I 0 W/m 11,3 C 13,6 C 11,3 km/h (2 Bft) 97,87 %
10.09.2017 05:24 13,6 C 18,9 C 86 % 1002,9 hPa 0,0 l/m 7,8 km/h (2 Bft) W-SW 247 0 min 0,000 mm 0,0 UV-I 0 W/m 11,3 C 12,7 C 12,9 km/h (3 Bft) 95,12 %
10.09.2017 05:26 13,6 C 18,9 C 86 % 1002,9 hPa 0,0 l/m 7,1 km/h (2 Bft) W-SW 242 0 min 0,000 mm 0,0 UV-I 0 W/m 11,3 C 13,2 C 11,3 km/h (2 Bft) 95,45 %
10.09.2017 05:28 13,6 C 18,9 C 86 % 1002,8 hPa 0,0 l/m 7,5 km/h (2 Bft) W-SW 257 0 min 0,000 mm 0,0 UV-I 0 W/m 11,3 C 12,9 C 12,9 km/h (3 Bft) 97,56 %
10.09.2017 05:30 13,6 C 18,9 C 86 % 1002,7 hPa 0,0 l/m 5,3 km/h (1 Bft) W-SW 250 0 min 0,000 mm 0,0 UV-I 0 W/m 11,3 C 13,6 C 12,9 km/h (3 Bft) 98,11 %
10.09.2017 05:32 13,6 C 18,9 C 86 % 1002,7 hPa 0,0 l/m 9,6 km/h (2 Bft) W-SW 248 0 min 0,000 mm 0,0 UV-I 0 W/m 11,3 C 11,8 C 12,9 km/h (3 Bft) 92,86 %
10.09.2017 05:34 13,6 C 18,9 C 86 % 1002,7 hPa 0,0 l/m 5,9 km/h (2 Bft) W-SW 244 0 min 0,000 mm 0,0 UV-I 0 W/m 11,3 C 13,6 C 9,7 km/h (2 Bft) 97,87 %
10.09.2017 05:36 13,6 C 18,9 C 86 % 1002,8 hPa 0,0 l/m 5,6 km/h (1 Bft) SW 234 0 min 0,000 mm 0,0 UV-I 0 W/m 11,3 C 13,6 C 8,0 km/h (2 Bft) 100,00 %
10.09.2017 05:38 13,6 C 18,9 C 86 % 1002,8 hPa 0,0 l/m 7,1 km/h (2 Bft) W-SW 244 0 min 0,000 mm 0,0 UV-I 0 W/m 11,3 C 13,2 C 12,9 km/h (3 Bft) 94,55 %
10.09.2017 05:40 13,6 C 18,9 C 86 % 1002,8 hPa 0,0 l/m 6,7 km/h (2 Bft) SW 229 0 min 0,000 mm 0,0 UV-I 0 W/m 11,3 C 13,4 C 11,3 km/h (2 Bft) 100,00 %
10.09.2017 05:42 13,6 C 18,9 C 86 % 1002,8 hPa 0,0 l/m 7,9 km/h (2 Bft) W-SW 252 0 min 0,000 mm 0,0 UV-I 0 W/m 11,3 C 12,7 C 12,9 km/h (3 Bft) 100,00 %
10.09.2017 05:44 13,6 C 18,9 C 86 % 1002,8 hPa 0,0 l/m 6,6 km/h (2 Bft) W-SW 247 0 min 0,000 mm 0,0 UV-I 0 W/m 11,3 C 13,5 C 11,3 km/h (2 Bft) 100,00 %
10.09.2017 05:46 13,5 C 18,9 C 87 % 1002,9 hPa 0,0 l/m 8,4 km/h (2 Bft) W-SW 246 0 min 0,000 mm 0,0 UV-I 0 W/m 11,4 C 12,3 C 12,9 km/h (3 Bft) 98,21 %
10.09.2017 05:48 13,6 C 18,9 C 87 % 1002,9 hPa 0,0 l/m 8,7 km/h (2 Bft) W-SW 253 0 min 0,000 mm 0,0 UV-I 0 W/m 11,5 C 12,2 C 16,1 km/h (3 Bft) 97,87 %
10.09.2017 05:50 13,5 C 18,9 C 87 % 1002,9 hPa 0,0 l/m 7,1 km/h (2 Bft) W-SW 249 0 min 0,000 mm 0,0 UV-I 0 W/m 11,4 C 13,1 C 11,3 km/h (2 Bft) 100,00 %
10.09.2017 05:52 13,5 C 18,9 C 87 % 1002,9 hPa 0,0 l/m 8,9 km/h (2 Bft) SW 226 0 min 0,000 mm 0,0 UV-I 0 W/m 11,4 C 12,0 C 12,9 km/h (3 Bft) 100,00 %
10.09.2017 05:54 13,5 C 18,9 C 87 % 1002,8 hPa 0,0 l/m 6,1 km/h (2 Bft) W-SW 254 0 min 0,000 mm 0,0 UV-I 0 W/m 11,4 C 13,5 C 9,7 km/h (2 Bft) 100,00 %
10.09.2017 05:56 13,5 C 18,9 C 87 % 1002,8 hPa 0,0 l/m 5,7 km/h (1 Bft) W-SW 254 0 min 0,000 mm 0,0 UV-I 0 W/m 11,4 C 13,5 C 8,0 km/h (2 Bft) 96,43 %
10.09.2017 05:58 13,4 C 18,9 C 87 % 1002,9 hPa 0,0 l/m 6,2 km/h (2 Bft) W 270 0 min 0,000 mm 0,0 UV-I 0 W/m 11,3 C 13,4 C 12,9 km/h (3 Bft) 100,00 %
10.09.2017 06:00 13,4 C 18,9 C 87 % 1002,9 hPa 0,0 l/m 5,7 km/h (1 Bft) W-SW 249 0 min 0,000 mm 0,0 UV-I 0 W/m 11,3 C 13,4 C 8,0 km/h (2 Bft) 98,11 %
10.09.2017 06:02 13,4 C 18,9 C 87 % 1003,0 hPa 0,0 l/m 8,0 km/h (2 Bft) W-SW 244 0 min 0,025 mm 0,0 UV-I 0 W/m 11,3 C 12,4 C 16,1 km/h (3 Bft) 97,56 %
10.09.2017 06:04 13,4 C 18,9 C 87 % 1003,0 hPa 0,0 l/m 7,4 km/h (2 Bft) W 264 0 min 0,000 mm 0,0 UV-I 0 W/m 11,3 C 12,8 C 11,3 km/h (2 Bft) 96,00 %
10.09.2017 06:06 13,4 C 18,9 C 87 % 1003,1 hPa 0,0 l/m 9,0 km/h (2 Bft) W-SW 252 0 min 0,000 mm 0,0 UV-I 0 W/m 11,3 C 11,9 C 14,5 km/h (3 Bft) 97,87 %
10.09.2017 06:08 13,4 C 18,9 C 87 % 1003,2 hPa 0,0 l/m 8,0 km/h (2 Bft) SW 236 0 min 0,000 mm 0,0 UV-I 0 W/m 11,3 C 12,4 C 11,3 km/h (2 Bft) 97,87 %
10.09.2017 06:10 13,4 C 18,9 C 87 % 1003,2 hPa 0,0 l/m 9,6 km/h (2 Bft) W 263 0 min 0,000 mm 0,0 UV-I 0 W/m 11,3 C 11,6 C 12,9 km/h (3 Bft) 96,00 %
10.09.2017 06:12 13,4 C 18,9 C 87 % 1003,3 hPa 0,0 l/m 7,0 km/h (2 Bft) W-SW 248 0 min 0,000 mm 0,0 UV-I 0 W/m 11,3 C 13,0 C 11,3 km/h (2 Bft) 97,56 %
10.09.2017 06:14 13,4 C 18,9 C 87 % 1003,1 hPa 0,0 l/m 9,4 km/h (2 Bft) W 265 0 min 0,000 mm 0,0 UV-I 0 W/m 11,3 C 11,7 C 12,9 km/h (3 Bft) 98,11 %
10.09.2017 06:16 13,4 C 18,9 C 87 % 1003,0 hPa 0,0 l/m 6,0 km/h (2 Bft) W 262 0 min 0,000 mm 0,0 UV-I 0 W/m 11,3 C 13,4 C 9,7 km/h (2 Bft) 97,44 %
10.09.2017 06:18 13,4 C 18,9 C 87 % 1003,0 hPa 0,0 l/m 4,5 km/h (1 Bft) W 271 0 min 0,000 mm 0,0 UV-I 0 W/m 11,3 C 13,4 C 8,0 km/h (2 Bft) 98,08 %
10.09.2017 06:20 13,4 C 18,9 C 88 % 1003,0 hPa 0,0 l/m 4,1 km/h (1 Bft) W 263 0 min 0,000 mm 0,0 UV-I 0 W/m 11,5 C 13,4 C 12,9 km/h (3 Bft) 97,92 %
10.09.2017 06:22 13,4 C 18,9 C 88 % 1003,0 hPa 0,0 l/m 4,7 km/h (1 Bft) W-SW 254 0 min 0,000 mm 0,0 UV-I 0 W/m 11,5 C 13,4 C 8,0 km/h (2 Bft) 96,00 %
10.09.2017 06:24 13,4 C 18,9 C 88 % 1002,9 hPa 0,0 l/m 4,6 km/h (1 Bft) W 262 0 min 0,000 mm 0,0 UV-I 0 W/m 11,5 C 13,4 C 8,0 km/h (2 Bft) 97,87 %
10.09.2017 06:26 13,3 C 18,9 C 88 % 1002,9 hPa 0,0 l/m 4,3 km/h (1 Bft) W 277 0 min 0,000 mm 0,0 UV-I 0 W/m 11,4 C 13,3 C 6,4 km/h (2 Bft) 97,56 %
10.09.2017 06:28 13,3 C 18,9 C 88 % 1002,9 hPa 0,0 l/m 5,5 km/h (1 Bft) W 269 0 min 0,000 mm 0,0 UV-I 0 W/m 11,4 C 13,3 C 9,7 km/h (2 Bft) 96,23 %
10.09.2017 06:30 13,3 C 18,9 C 88 % 1003,0 hPa 0,0 l/m 7,2 km/h (2 Bft) W-SW 250 0 min 0,000 mm 0,0 UV-I 0 W/m 11,4 C 12,8 C 11,3 km/h (2 Bft) 97,37 %
10.09.2017 06:32 13,3 C 18,9 C 88 % 1003,2 hPa 0,0 l/m 6,1 km/h (2 Bft) SW 225 0 min 0,000 mm 0,0 UV-I 0 W/m 11,4 C 13,3 C 9,7 km/h (2 Bft) 98,00 %
10.09.2017 06:34 13,3 C 18,9 C 88 % 1003,3 hPa 0,0 l/m 6,4 km/h (2 Bft) W-SW 242 0 min 0,000 mm 0,0 UV-I 2 W/m 11,4 C 13,3 C 11,3 km/h (2 Bft) 98,00 %
10.09.2017 06:36 13,3 C 18,9 C 88 % 1003,2 hPa 0,0 l/m 6,2 km/h (2 Bft) W-SW 253 0 min 0,000 mm 0,0 UV-I 5 W/m 11,4 C 13,3 C 9,7 km/h (2 Bft) 96,00 %
10.09.2017 06:38 13,3 C 18,9 C 88 % 1003,2 hPa 0,0 l/m 5,8 km/h (2 Bft) SW 236 0 min 0,000 mm 0,0 UV-I 5 W/m 11,4 C 13,3 C 9,7 km/h (2 Bft) 97,56 %
10.09.2017 06:40 13,3 C 18,9 C 88 % 1003,4 hPa 0,0 l/m 8,7 km/h (2 Bft) SW 218 0 min 0,000 mm 0,0 UV-I 5 W/m 11,4 C 11,9 C 12,9 km/h (3 Bft) 96,00 %
10.09.2017 06:42 13,3 C 18,9 C 89 % 1003,5 hPa 0,0 l/m 6,4 km/h (2 Bft) W 265 0 min 0,000 mm 0,0 UV-I 5 W/m 11,5 C 13,3 C 9,7 km/h (2 Bft) 97,56 %
10.09.2017 06:44 13,3 C 18,9 C 88 % 1003,3 hPa 0,0 l/m 6,3 km/h (2 Bft) W-NW 297 0 min 0,000 mm 0,0 UV-I 5 W/m 11,4 C 13,3 C 12,9 km/h (3 Bft) 94,34 %
10.09.2017 06:46 13,3 C 18,9 C 89 % 1003,3 hPa 0,0 l/m 8,2 km/h (2 Bft) W-SW 240 0 min 0,000 mm 0,0 UV-I 7 W/m 11,5 C 12,2 C 12,9 km/h (3 Bft) 98,00 %
10.09.2017 06:48 13,3 C 18,9 C 89 % 1003,3 hPa 0,0 l/m 6,3 km/h (2 Bft) W 259 0 min 0,000 mm 0,0 UV-I 7 W/m 11,5 C 13,3 C 11,3 km/h (2 Bft) 94,29 %
10.09.2017 06:50 13,2 C 18,9 C 89 % 1003,3 hPa 0,0 l/m 9,2 km/h (2 Bft) W-SW 247 0 min 0,000 mm 0,0 UV-I 8 W/m 11,4 C 11,5 C 16,1 km/h (3 Bft) 96,43 %
10.09.2017 06:52 13,2 C 18,9 C 89 % 1003,4 hPa 0,0 l/m 9,1 km/h (2 Bft) W-SW 253 0 min 0,000 mm 0,0 UV-I 10 W/m 11,4 C 11,6 C 14,5 km/h (3 Bft) 97,56 %
10.09.2017 06:54 13,2 C 18,9 C 89 % 1003,4 hPa 0,0 l/m 6,8 km/h (2 Bft) SW 223 0 min 0,000 mm 0,0 UV-I 11 W/m 11,4 C 13,0 C 12,9 km/h (3 Bft) 97,78 %
10.09.2017 06:56 13,2 C 18,9 C 89 % 1003,5 hPa 0,0 l/m 8,7 km/h (2 Bft) SW 222 0 min 0,000 mm 0,0 UV-I 12 W/m 11,4 C 11,8 C 14,5 km/h (3 Bft) 96,15 %
10.09.2017 06:58 13,2 C 18,9 C 89 % 1003,5 hPa 0,0 l/m 9,9 km/h (2 Bft) SW 223 0 min 0,000 mm 0,0 UV-I 13 W/m 11,4 C 11,2 C 14,5 km/h (3 Bft) 97,62 %
10.09.2017 07:00 13,2 C 18,9 C 89 % 1003,5 hPa 0,0 l/m 11,1 km/h (2 Bft) W 275 0 min 0,026 mm 0,0 UV-I 14 W/m 11,4 C 10,6 C 17,7 km/h (3 Bft) 98,11 %
10.09.2017 07:02 13,2 C 18,9 C 89 % 1003,5 hPa 0,0 l/m 7,6 km/h (2 Bft) W-SW 251 0 min 0,000 mm 0,0 UV-I 16 W/m 11,4 C 12,5 C 14,5 km/h (3 Bft) 100,00 %
10.09.2017 07:04 13,2 C 18,9 C 89 % 1003,5 hPa 0,0 l/m 6,6 km/h (2 Bft) W-SW 255 0 min 0,000 mm 0,0 UV-I 18 W/m 11,4 C 13,1 C 11,3 km/h (2 Bft) 97,37 %
10.09.2017 07:06 13,2 C 18,9 C 89 % 1003,6 hPa 0,0 l/m 7,4 km/h (2 Bft) SW 230 0 min 0,000 mm 0,0 UV-I 19 W/m 11,4 C 12,6 C 12,9 km/h (3 Bft) 98,21 %
10.09.2017 07:08 13,2 C 18,9 C 89 % 1003,7 hPa 0,0 l/m 8,3 km/h (2 Bft) W-SW 250 0 min 0,000 mm 0,0 UV-I 18 W/m 11,4 C 12,0 C 14,5 km/h (3 Bft) 95,12 %
10.09.2017 07:10 13,2 C 18,9 C 89 % 1003,7 hPa 0,0 l/m 10,5 km/h (2 Bft) W 271 0 min 0,000 mm 0,0 UV-I 17 W/m 11,4 C 10,9 C 12,9 km/h (3 Bft) 98,00 %
10.09.2017 07:12 13,2 C 18,9 C 89 % 1003,7 hPa 0,0 l/m 10,9 km/h (2 Bft) W-SW 256 0 min 0,000 mm 0,0 UV-I 17 W/m 11,4 C 10,7 C 16,1 km/h (3 Bft) 97,73 %
10.09.2017 07:14 13,2 C 18,9 C 89 % 1003,7 hPa 0,0 l/m 9,9 km/h (2 Bft) W-SW 240 0 min 0,000 mm 0,0 UV-I 18 W/m 11,4 C 11,2 C 14,5 km/h (3 Bft) 96,00 %
10.09.2017 07:16 13,2 C 18,9 C 89 % 1003,7 hPa 0,0 l/m 10,4 km/h (2 Bft) W-SW 244 0 min 0,000 mm 0,0 UV-I 18 W/m 11,4 C 10,9 C 16,1 km/h (3 Bft) 94,00 %
10.09.2017 07:18 13,2 C 18,9 C 89 % 1003,8 hPa 0,0 l/m 8,9 km/h (2 Bft) W-SW 252 0 min 0,000 mm 0,0 UV-I 19 W/m 11,4 C 11,7 C 14,5 km/h (3 Bft) 100,00 %
10.09.2017 07:20 13,2 C 18,9 C 89 % 1003,8 hPa 0,0 l/m 11,9 km/h (2 Bft) W-SW 239 0 min 0,000 mm 0,0 UV-I 23 W/m 11,4 C 10,2 C 16,1 km/h (3 Bft) 96,43 %
10.09.2017 07:22 13,2 C 18,9 C 89 % 1003,8 hPa 0,0 l/m 7,7 km/h (2 Bft) SW 234 0 min 0,000 mm 0,0 UV-I 28 W/m 11,4 C 12,4 C 12,9 km/h (3 Bft) 97,37 %
10.09.2017 07:24 13,1 C 18,9 C 89 % 1003,8 hPa 0,0 l/m 8,2 km/h (2 Bft) W-SW 257 0 min 0,000 mm 0,0 UV-I 31 W/m 11,3 C 12,0 C 12,9 km/h (3 Bft) 98,00 %
10.09.2017 07:26 13,1 C 18,9 C 89 % 1003,8 hPa 0,0 l/m 9,2 km/h (2 Bft) W 275 0 min 0,000 mm 0,0 UV-I 37 W/m 11,3 C 11,4 C 12,9 km/h (3 Bft) 98,00 %
10.09.2017 07:28 13,1 C 18,9 C 89 % 1003,9 hPa 0,0 l/m 9,1 km/h (2 Bft) W 259 0 min 0,000 mm 0,0 UV-I 40 W/m 11,3 C 11,5 C 14,5 km/h (3 Bft) 98,00 %
10.09.2017 07:30 13,1 C 18,9 C 89 % 1003,9 hPa 0,0 l/m 7,9 km/h (2 Bft) W 267 0 min 0,000 mm 0,0 UV-I 42 W/m 11,3 C 12,2 C 12,9 km/h (3 Bft) 97,37 %
10.09.2017 07:32 13,2 C 18,9 C 90 % 1003,9 hPa 0,0 l/m 7,5 km/h (2 Bft) SW 227 0 min 0,000 mm 0,0 UV-I 41 W/m 11,6 C 12,5 C 11,3 km/h (2 Bft) 98,00 %
10.09.2017 07:34 13,2 C 18,9 C 90 % 1004,0 hPa 0,0 l/m 5,3 km/h (1 Bft) W-SW 250 0 min 0,000 mm 0,0 UV-I 39 W/m 11,6 C 13,2 C 9,7 km/h (2 Bft) 95,74 %
10.09.2017 07:36 13,2 C 18,9 C 90 % 1004,0 hPa 0,0 l/m 9,6 km/h (2 Bft) SW 223 0 min 0,000 mm 0,0 UV-I 38 W/m 11,6 C 11,3 C 16,1 km/h (3 Bft) 100,00 %
10.09.2017 07:38 13,2 C 18,9 C 90 % 1004,0 hPa 0,0 l/m 9,4 km/h (2 Bft) W-SW 242 0 min 0,000 mm 0,0 UV-I 37 W/m 11,6 C 11,4 C 16,1 km/h (3 Bft) 96,72 %
10.09.2017 07:40 13,2 C 18,9 C 89 % 1004,0 hPa 0,0 l/m 5,8 km/h (2 Bft) SW 234 0 min 0,000 mm 0,0 UV-I 37 W/m 11,4 C 13,2 C 14,5 km/h (3 Bft) 100,00 %
10.09.2017 07:42 13,2 C 18,9 C 89 % 1004,1 hPa 0,0 l/m 6,6 km/h (2 Bft) W 277 0 min 0,000 mm 0,0 UV-I 35 W/m 11,4 C 13,1 C 11,3 km/h (2 Bft) 97,56 %
10.09.2017 07:44 13,1 C 18,9 C 89 % 1004,1 hPa 0,0 l/m 5,6 km/h (1 Bft) W-SW 240 0 min 0,000 mm 0,0 UV-I 35 W/m 11,3 C 13,1 C 12,9 km/h (3 Bft) 100,00 %
10.09.2017 07:46 13,2 C 18,9 C 89 % 1004,1 hPa 0,0 l/m 9,3 km/h (2 Bft) W 266 0 min 0,000 mm 0,0 UV-I 36 W/m 11,4 C 11,5 C 14,5 km/h (3 Bft) 100,00 %
10.09.2017 07:48 13,2 C 18,9 C 89 % 1004,1 hPa 0,0 l/m 6,2 km/h (2 Bft) W-NW 288 0 min 0,000 mm 0,0 UV-I 41 W/m 11,4 C 13,2 C 11,3 km/h (2 Bft) 100,00 %
10.09.2017 07:50 13,2 C 18,9 C 89 % 1004,1 hPa 0,0 l/m 7,6 km/h (2 Bft) W-SW 253 0 min 0,000 mm 0,0 UV-I 47 W/m 11,4 C 12,5 C 12,9 km/h (3 Bft) 98,00 %
10.09.2017 07:52 13,2 C 18,9 C 90 % 1004,1 hPa 0,0 l/m 6,8 km/h (2 Bft) W-SW 244 0 min 0,000 mm 0,0 UV-I 52 W/m 11,6 C 13,0 C 9,7 km/h (2 Bft) 100,00 %
10.09.2017 07:54 13,2 C 18,9 C 89 % 1004,1 hPa 0,0 l/m 8,7 km/h (2 Bft) W 272 0 min 0,000 mm 0,0 UV-I 57 W/m 11,4 C 11,8 C 16,1 km/h (3 Bft) 100,00 %
10.09.2017 07:56 13,2 C 18,9 C 90 % 1004,2 hPa 0,0 l/m 7,1 km/h (2 Bft) W-SW 244 0 min 0,000 mm 0,0 UV-I 62 W/m 11,6 C 12,8 C 11,3 km/h (2 Bft) 100,00 %
10.09.2017 07:58 13,2 C 18,9 C 89 % 1004,2 hPa 0,0 l/m 8,5 km/h (2 Bft) W-SW 242 0 min 0,000 mm 0,0 UV-I 63 W/m 11,4 C 11,9 C 16,1 km/h (3 Bft) 100,00 %
10.09.2017 08:00 13,2 C 18,9 C 89 % 1004,3 hPa 0,0 l/m 10,2 km/h (2 Bft) W 271 0 min 0,025 mm 0,0 UV-I 57 W/m 11,4 C 11,0 C 16,1 km/h (3 Bft) 100,00 %
10.09.2017 08:02 13,2 C 18,9 C 89 % 1004,3 hPa 0,0 l/m 8,9 km/h (2 Bft) W 269 0 min 0,000 mm 0,0 UV-I 58 W/m 11,4 C 11,7 C 12,9 km/h (3 Bft) 100,00 %
10.09.2017 08:04 13,2 C 18,9 C 89 % 1004,3 hPa 0,0 l/m 8,0 km/h (2 Bft) W-SW 252 0 min 0,000 mm 0,0 UV-I 62 W/m 11,4 C 12,2 C 16,1 km/h (3 Bft) 97,87 %
10.09.2017 08:06 13,2 C 18,9 C 89 % 1004,4 hPa 0,0 l/m 8,8 km/h (2 Bft) W-SW 258 0 min 0,000 mm 0,0 UV-I 62 W/m 11,4 C 11,8 C 14,5 km/h (3 Bft) 100,00 %
10.09.2017 08:08 13,2 C 18,9 C 89 % 1004,5 hPa 0,0 l/m 10,8 km/h (2 Bft) W-SW 252 0 min 0,000 mm 0,0 UV-I 58 W/m 11,4 C 10,7 C 16,1 km/h (3 Bft) 100,00 %
10.09.2017 08:10 13,2 C 18,9 C 89 % 1004,5 hPa 0,0 l/m 12,2 km/h (2 Bft) W-SW 254 0 min 0,000 mm 0,0 UV-I 52 W/m 11,4 C 10,1 C 16,1 km/h (3 Bft) 100,00 %
10.09.2017 08:12 13,2 C 18,9 C 89 % 1004,6 hPa 0,0 l/m 9,9 km/h (2 Bft) W 276 0 min 0,000 mm 0,0 UV-I 47 W/m 11,4 C 11,2 C 14,5 km/h (3 Bft) 100,00 %
10.09.2017 08:14 13,3 C 18,9 C 89 % 1004,6 hPa 0,0 l/m 7,1 km/h (2 Bft) W 279 0 min 0,000 mm 0,0 UV-I 50 W/m 11,5 C 12,9 C 14,5 km/h (3 Bft) 100,00 %
10.09.2017 08:16 13,2 C 18,9 C 89 % 1004,6 hPa 0,0 l/m 9,8 km/h (2 Bft) W-SW 250 0 min 0,000 mm 0,0 UV-I 54 W/m 11,4 C 11,2 C 16,1 km/h (3 Bft) 100,00 %
10.09.2017 08:18 13,2 C 18,9 C 89 % 1004,6 hPa 0,0 l/m 11,6 km/h (2 Bft) W 259 0 min 0,000 mm 0,0 UV-I 55 W/m 11,4 C 10,4 C 17,7 km/h (3 Bft) 100,00 %
10.09.2017 08:20 13,2 C 18,9 C 89 % 1004,6 hPa 0,0 l/m 9,1 km/h (2 Bft) W-SW 251 0 min 0,000 mm 0,0 UV-I 56 W/m 11,4 C 11,6 C 19,3 km/h (3 Bft) 100,00 %
10.09.2017 08:22 13,2 C 18,9 C 89 % 1004,6 hPa 0,0 l/m 8,4 km/h (2 Bft) W-SW 253 0 min 0,000 mm 0,0 UV-I 55 W/m 11,4 C 12,0 C 14,5 km/h (3 Bft) 100,00 %
10.09.2017 08:24 13,2 C 18,9 C 89 % 1004,7 hPa 0,0 l/m 8,0 km/h (2 Bft) SW 234 0 min 0,000 mm 0,0 UV-I 49 W/m 11,4 C 12,2 C 12,9 km/h (3 Bft) 100,00 %
10.09.2017 08:26 13,2 C 18,9 C 89 % 1004,7 hPa 0,0 l/m 11,2 km/h (2 Bft) W-SW 248 0 min 0,000 mm 0,0 UV-I 47 W/m 11,4 C 10,6 C 17,7 km/h (3 Bft) 100,00 %
10.09.2017 08:28 13,2 C 18,9 C 89 % 1004,8 hPa 0,0 l/m 10,1 km/h (2 Bft) W-SW 240 0 min 0,000 mm 0,0 UV-I 46 W/m 11,4 C 11,1 C 17,7 km/h (3 Bft) 100,00 %
10.09.2017 08:30 13,2 C 18,9 C 89 % 1004,9 hPa 0,0 l/m 7,7 km/h (2 Bft) W-SW 254 0 min 0,000 mm 0,0 UV-I 46 W/m 11,4 C 12,4 C 12,9 km/h (3 Bft) 100,00 %
10.09.2017 08:32 13,2 C 18,9 C 89 % 1004,9 hPa 0,0 l/m 8,6 km/h (2 Bft) W-SW 251 0 min 0,000 mm 0,0 UV-I 46 W/m 11,4 C 11,9 C 12,9 km/h (3 Bft) 97,14 %
10.09.2017 08:34 13,2 C 18,9 C 89 % 1004,9 hPa 0,0 l/m 12,3 km/h (3 Bft) W-SW 250 0 min 0,000 mm 0,0 UV-I 49 W/m 11,4 C 10,1 C 19,3 km/h (3 Bft) 100,00 %
10.09.2017 08:36 13,2 C 18,9 C 89 % 1005,0 hPa 0,0 l/m 11,2 km/h (2 Bft) W-SW 240 0 min 0,000 mm 0,0 UV-I 53 W/m 11,4 C 10,6 C 24,1 km/h (4 Bft) 100,00 %
10.09.2017 08:38 13,2 C 18,9 C 89 % 1005,0 hPa 0,0 l/m 11,9 km/h (2 Bft) W-SW 248 0 min 0,000 mm 0,0 UV-I 58 W/m 11,4 C 10,2 C 16,1 km/h (3 Bft) 100,00 %
10.09.2017 08:40 13,2 C 18,9 C 89 % 1004,9 hPa 0,0 l/m 7,8 km/h (2 Bft) W 263 0 min 0,000 mm 0,0 UV-I 65 W/m 11,4 C 12,3 C 14,5 km/h (3 Bft) 100,00 %
10.09.2017 08:42 13,2 C 18,9 C 89 % 1005,0 hPa 0,0 l/m 10,3 km/h (2 Bft) W 279 0 min 0,000 mm 0,0 UV-I 74 W/m 11,4 C 11,0 C 14,5 km/h (3 Bft) 100,00 %
10.09.2017 08:44 13,2 C 18,9 C 89 % 1005,0 hPa 0,0 l/m 8,9 km/h (2 Bft) W 265 0 min 0,000 mm 0,0 UV-I 80 W/m 11,4 C 11,7 C 12,9 km/h (3 Bft) 97,87 %
10.09.2017 08:46 13,2 C 18,9 C 89 % 1005,0 hPa 0,0 l/m 5,4 km/h (1 Bft) SW 231 0 min 0,000 mm 0,0 UV-I 78 W/m 11,4 C 13,2 C 11,3 km/h (2 Bft) 100,00 %
10.09.2017 08:48 13,2 C 18,9 C 89 % 1005,0 hPa 0,0 l/m 6,0 km/h (2 Bft) W-SW 252 0 min 0,000 mm 0,0 UV-I 71 W/m 11,4 C 13,2 C 11,3 km/h (2 Bft) 100,00 %
10.09.2017 08:50 13,2 C 18,9 C 89 % 1005,1 hPa 0,0 l/m 5,1 km/h (1 Bft) W 269 0 min 0,000 mm 0,0 UV-I 73 W/m 11,4 C 13,2 C 8,0 km/h (2 Bft) 100,00 %
10.09.2017 08:52 13,2 C 18,9 C 89 % 1005,1 hPa 0,0 l/m 9,5 km/h (2 Bft) W-SW 243 0 min 0,000 mm 0,0 UV-I 71 W/m 11,4 C 11,4 C 16,1 km/h (3 Bft) 100,00 %
10.09.2017 08:54 13,2 C 18,9 C 89 % 1005,0 hPa 0,0 l/m 10,8 km/h (2 Bft) W-SW 254 0 min 0,000 mm 0,0 UV-I 71 W/m 11,4 C 10,7 C 17,7 km/h (3 Bft) 100,00 %
10.09.2017 08:56 13,2 C 18,9 C 89 % 1005,0 hPa 0,0 l/m 8,9 km/h (2 Bft) W-NW 283 0 min 0,000 mm 0,0 UV-I 82 W/m 11,4 C 11,7 C 17,7 km/h (3 Bft) 100,00 %
10.09.2017 08:58 13,2 C 18,9 C 89 % 1005,0 hPa 0,0 l/m 6,5 km/h (2 Bft) W-SW 250 0 min 0,000 mm 0,0 UV-I 96 W/m 11,4 C 13,2 C 11,3 km/h (2 Bft) 100,00 %
10.09.2017 09:00 13,2 C 18,9 C 89 % 1005,0 hPa 0,0 l/m 8,7 km/h (2 Bft) SW 219 0 min 0,000 mm 0,0 UV-I 97 W/m 11,4 C 11,8 C 12,9 km/h (3 Bft) 100,00 %
10.09.2017 09:02 13,2 C 18,9 C 89 % 1005,0 hPa 0,0 l/m 7,1 km/h (2 Bft) SW 221 0 min 0,051 mm 0,0 UV-I 97 W/m 11,4 C 12,8 C 12,9 km/h (3 Bft) 100,00 %
10.09.2017 09:04 13,2 C 18,9 C 89 % 1005,1 hPa 0,0 l/m 9,4 km/h (2 Bft) W-SW 254 0 min 0,000 mm 0,0 UV-I 97 W/m 11,4 C 11,4 C 16,1 km/h (3 Bft) 97,73 %
10.09.2017 09:06 13,1 C 18,9 C 89 % 1005,1 hPa 0,0 l/m 6,2 km/h (2 Bft) W-SW 242 0 min 0,000 mm 0,0 UV-I 97 W/m 11,3 C 13,1 C 12,9 km/h (3 Bft) 98,31 %
10.09.2017 09:08 13,1 C 18,9 C 89 % 1005,0 hPa 0,0 l/m 7,2 km/h (2 Bft) SW 232 0 min 0,000 mm 0,0 UV-I 102 W/m 11,3 C 12,6 C 11,3 km/h (2 Bft) 92,11 %
10.09.2017 09:10 13,1 C 18,9 C 89 % 1005,1 hPa 0,0 l/m 7,4 km/h (2 Bft) SW 231 0 min 0,000 mm 0,0 UV-I 113 W/m 11,3 C 12,5 C 12,9 km/h (3 Bft) 95,74 %
10.09.2017 09:12 13,2 C 18,9 C 89 % 1005,1 hPa 0,0 l/m 8,8 km/h (2 Bft) W-SW 254 0 min 0,000 mm 0,0 UV-I 107 W/m 11,4 C 11,8 C 12,9 km/h (3 Bft) 97,96 %
10.09.2017 09:14 13,2 C 18,9 C 89 % 1005,1 hPa 0,0 l/m 9,8 km/h (2 Bft) W-NW 284 0 min 0,000 mm 0,0 UV-I 107 W/m 11,4 C 11,2 C 16,1 km/h (3 Bft) 97,87 %
10.09.2017 09:16 13,1 C 18,9 C 89 % 1005,1 hPa 0,0 l/m 10,0 km/h (2 Bft) W-SW 246 0 min 0,000 mm 0,2 UV-I 118 W/m 11,3 C 11,0 C 12,9 km/h (3 Bft) 96,23 %
10.09.2017 09:18 13,2 C 18,9 C 90 % 1005,1 hPa 0,0 l/m 6,9 km/h (2 Bft) W-SW 258 0 min 0,000 mm 0,5 UV-I 128 W/m 11,6 C 12,9 C 14,5 km/h (3 Bft) 97,73 %
10.09.2017 09:20 13,2 C 18,9 C 90 % 1005,2 hPa 0,0 l/m 8,4 km/h (2 Bft) SW 233 0 min 0,000 mm 0,5 UV-I 134 W/m 11,6 C 12,0 C 12,9 km/h (3 Bft) 95,12 %
10.09.2017 09:22 13,2 C 18,9 C 90 % 1005,2 hPa 0,0 l/m 6,7 km/h (2 Bft) W-SW 243 0 min 0,000 mm 0,5 UV-I 137 W/m 11,6 C 13,0 C 11,3 km/h (2 Bft) 98,11 %
10.09.2017 09:24 13,2 C 18,9 C 90 % 1005,3 hPa 0,0 l/m 6,3 km/h (2 Bft) SW 224 0 min 0,000 mm 0,5 UV-I 132 W/m 11,6 C 13,2 C 14,5 km/h (3 Bft) 97,56 %
10.09.2017 09:26 13,2 C 18,9 C 90 % 1005,4 hPa 0,0 l/m 7,9 km/h (2 Bft) W-NW 298 0 min 0,000 mm 0,5 UV-I 124 W/m 11,6 C 12,3 C 14,5 km/h (3 Bft) 97,87 %
10.09.2017 09:28 13,2 C 18,9 C 90 % 1005,4 hPa 0,0 l/m 6,7 km/h (2 Bft) W-SW 245 0 min 0,000 mm 0,5 UV-I 122 W/m 11,6 C 13,0 C 11,3 km/h (2 Bft) 98,00 %
10.09.2017 09:30 13,2 C 18,9 C 90 % 1005,5 hPa 0,0 l/m 7,1 km/h (2 Bft) W-SW 257 0 min 0,000 mm 0,5 UV-I 124 W/m 11,6 C 12,8 C 12,9 km/h (3 Bft) 98,00 %
10.09.2017 09:32 13,2 C 18,9 C 90 % 1005,5 hPa 0,0 l/m 9,9 km/h (2 Bft) W-SW 255 0 min 0,000 mm 0,5 UV-I 128 W/m 11,6 C 11,2 C 16,1 km/h (3 Bft) 95,24 %
10.09.2017 09:34 13,2 C 18,9 C 90 % 1005,6 hPa 0,0 l/m 8,6 km/h (2 Bft) W-SW 242 0 min 0,000 mm 0,6 UV-I 131 W/m 11,6 C 11,9 C 17,7 km/h (3 Bft) 96,36 %
10.09.2017 09:36 13,2 C 18,9 C 90 % 1005,6 hPa 0,0 l/m 7,2 km/h (2 Bft) W 261 0 min 0,000 mm 0,6 UV-I 124 W/m 11,6 C 12,7 C 14,5 km/h (3 Bft) 97,44 %
10.09.2017 09:38 13,2 C 18,9 C 90 % 1005,6 hPa 0,0 l/m 7,7 km/h (2 Bft) W 265 0 min 0,000 mm 0,6 UV-I 136 W/m 11,6 C 12,4 C 14,5 km/h (3 Bft) 100,00 %
10.09.2017 09:40 13,2 C 18,9 C 90 % 1005,7 hPa 0,0 l/m 7,8 km/h (2 Bft) W 263 0 min 0,000 mm 0,6 UV-I 144 W/m 11,6 C 12,3 C 12,9 km/h (3 Bft) 98,31 %
10.09.2017 09:42 13,2 C 18,9 C 90 % 1005,7 hPa 0,0 l/m 6,7 km/h (2 Bft) W-SW 245 0 min 0,000 mm 0,6 UV-I 144 W/m 11,6 C 13,0 C 14,5 km/h (3 Bft) 100,00 %
10.09.2017 09:44 13,2 C 18,9 C 90 % 1005,7 hPa 0,0 l/m 9,0 km/h (2 Bft) W-NW 286 0 min 0,000 mm 0,6 UV-I 146 W/m 11,6 C 11,6 C 16,1 km/h (3 Bft) 98,21 %
10.09.2017 09:46 13,2 C 18,9 C 90 % 1005,6 hPa 0,0 l/m 6,2 km/h (2 Bft) W-SW 239 0 min 0,000 mm 0,7 UV-I 160 W/m 11,6 C 13,2 C 12,9 km/h (3 Bft) 100,00 %
10.09.2017 09:48 13,2 C 18,9 C 90 % 1005,7 hPa 0,0 l/m 6,2 km/h (2 Bft) W-SW 254 0 min 0,000 mm 0,8 UV-I 166 W/m 11,6 C 13,2 C 11,3 km/h (2 Bft) 97,87 %
10.09.2017 09:50 13,3 C 18,9 C 90 % 1005,6 hPa 0,0 l/m 5,0 km/h (1 Bft) W-SW 242 0 min 0,000 mm 0,7 UV-I 156 W/m 11,7 C 13,3 C 8,0 km/h (2 Bft) 100,00 %
10.09.2017 09:52 13,3 C 18,9 C 90 % 1005,7 hPa 0,0 l/m 7,6 km/h (2 Bft) W-SW 243 0 min 0,000 mm 0,7 UV-I 151 W/m 11,7 C 12,6 C 11,3 km/h (2 Bft) 100,00 %
10.09.2017 09:54 13,3 C 18,9 C 89 % 1005,6 hPa 0,0 l/m 9,6 km/h (2 Bft) W-SW 246 0 min 0,000 mm 0,7 UV-I 159 W/m 11,5 C 11,4 C 14,5 km/h (3 Bft) 96,15 %
10.09.2017 09:56 13,3 C 18,9 C 89 % 1005,6 hPa 0,0 l/m 7,8 km/h (2 Bft) W 275 0 min 0,000 mm 0,8 UV-I 191 W/m 11,5 C 12,4 C 12,9 km/h (3 Bft) 95,59 %
10.09.2017 09:58 13,4 C 18,9 C 90 % 1005,6 hPa 0,0 l/m 6,4 km/h (2 Bft) SW 229 0 min 0,000 mm 0,9 UV-I 222 W/m 11,8 C 13,4 C 11,3 km/h (2 Bft) 95,74 %
10.09.2017 10:00 13,5 C 18,9 C 89 % 1005,7 hPa 0,0 l/m 5,1 km/h (1 Bft) W-SW 249 0 min 0,076 mm 0,9 UV-I 217 W/m 11,7 C 13,5 C 8,0 km/h (2 Bft) 97,87 %
10.09.2017 10:02 13,6 C 18,9 C 89 % 1005,6 hPa 0,0 l/m 5,1 km/h (1 Bft) W 262 0 min 0,000 mm 1,1 UV-I 238 W/m 11,8 C 13,6 C 11,3 km/h (2 Bft) 97,37 %
10.09.2017 10:04 13,7 C 18,9 C 89 % 1005,6 hPa 0,0 l/m 5,6 km/h (1 Bft) W 269 0 min 0,000 mm 1,1 UV-I 249 W/m 11,9 C 13,7 C 8,0 km/h (2 Bft) 95,12 %
10.09.2017 10:06 13,7 C 18,9 C 88 % 1005,6 hPa 0,0 l/m 8,8 km/h (2 Bft) W 266 0 min 0,000 mm 1,0 UV-I 219 W/m 11,7 C 12,3 C 12,9 km/h (3 Bft) 98,11 %
10.09.2017 10:08 13,7 C 18,9 C 88 % 1005,5 hPa 0,0 l/m 6,8 km/h (2 Bft) W-SW 248 0 min 0,000 mm 1,1 UV-I 230 W/m 11,7 C 13,5 C 11,3 km/h (2 Bft) 94,34 %
10.09.2017 10:10 13,7 C 18,9 C 88 % 1005,5 hPa 0,0 l/m 7,1 km/h (2 Bft) W-SW 239 0 min 0,000 mm 1,2 UV-I 246 W/m 11,7 C 13,3 C 12,9 km/h (3 Bft) 97,56 %
10.09.2017 10:12 13,7 C 18,9 C 87 % 1005,6 hPa 0,0 l/m 6,4 km/h (2 Bft) W 279 0 min 0,000 mm 1,1 UV-I 222 W/m 11,6 C 13,7 C 11,3 km/h (2 Bft) 98,11 %
10.09.2017 10:14 13,7 C 18,9 C 87 % 1005,8 hPa 0,0 l/m 10,1 km/h (2 Bft) W-SW 250 0 min 0,000 mm 0,8 UV-I 153 W/m 11,6 C 11,6 C 17,7 km/h (3 Bft) 97,22 %
10.09.2017 10:16 13,6 C 18,9 C 86 % 1005,9 hPa 0,0 l/m 10,5 km/h (2 Bft) SW 233 0 min 0,000 mm 0,5 UV-I 107 W/m 11,3 C 11,3 C 16,1 km/h (3 Bft) 98,21 %
10.09.2017 10:18 13,6 C 18,9 C 87 % 1005,9 hPa 0,0 l/m 6,5 km/h (2 Bft) W-SW 242 0 min 0,000 mm 0,5 UV-I 106 W/m 11,5 C 13,6 C 12,9 km/h (3 Bft) 97,73 %
10.09.2017 10:20 13,6 C 18,9 C 87 % 1005,9 hPa 0,0 l/m 5,1 km/h (1 Bft) SW 229 0 min 0,000 mm 0,6 UV-I 119 W/m 11,5 C 13,6 C 8,0 km/h (2 Bft) 96,23 %
10.09.2017 10:22 13,6 C 18,9 C 88 % 1006,0 hPa 0,0 l/m 6,4 km/h (2 Bft) SW 215 0 min 0,000 mm 0,6 UV-I 122 W/m 11,6 C 13,6 C 12,9 km/h (3 Bft) 97,56 %
10.09.2017 10:24 13,6 C 18,9 C 87 % 1006,0 hPa 0,0 l/m 7,8 km/h (2 Bft) W-SW 240 0 min 0,000 mm 0,7 UV-I 133 W/m 11,5 C 12,7 C 12,9 km/h (3 Bft) 98,00 %
10.09.2017 10:26 13,6 C 18,9 C 87 % 1006,0 hPa 0,0 l/m 8,5 km/h (2 Bft) W-SW 238 0 min 0,000 mm 0,8 UV-I 169 W/m 11,5 C 12,4 C 12,9 km/h (3 Bft) 94,44 %
10.09.2017 10:28 13,6 C 18,9 C 87 % 1006,0 hPa 0,0 l/m 11,7 km/h (2 Bft) W-SW 238 0 min 0,000 mm 1,0 UV-I 201 W/m 11,5 C 10,8 C 17,7 km/h (3 Bft) 98,11 %
10.09.2017 10:30 13,7 C 18,9 C 87 % 1005,9 hPa 0,0 l/m 6,4 km/h (2 Bft) SW 232 0 min 0,000 mm 1,2 UV-I 233 W/m 11,6 C 13,7 C 11,3 km/h (2 Bft) 97,73 %
10.09.2017 10:32 13,7 C 18,9 C 87 % 1005,9 hPa 0,0 l/m 10,6 km/h (2 Bft) W 260 0 min 0,000 mm 1,3 UV-I 253 W/m 11,6 C 11,4 C 14,5 km/h (3 Bft) 94,00 %
10.09.2017 10:34 13,8 C 18,9 C 87 % 1006,0 hPa 0,0 l/m 6,1 km/h (2 Bft) W 260 0 min 0,000 mm 1,4 UV-I 251 W/m 11,7 C 13,8 C 11,3 km/h (2 Bft) 97,87 %
10.09.2017 10:36 13,9 C 18,9 C 87 % 1006,0 hPa 0,0 l/m 6,2 km/h (2 Bft) SW 223 0 min 0,000 mm 1,3 UV-I 239 W/m 11,8 C 13,9 C 9,7 km/h (2 Bft) 98,00 %
10.09.2017 10:38 14,0 C 18,9 C 86 % 1006,1 hPa 0,0 l/m 8,0 km/h (2 Bft) W 265 0 min 0,000 mm 1,2 UV-I 227 W/m 11,7 C 13,1 C 16,1 km/h (3 Bft) 92,00 %
10.09.2017 10:40 14,1 C 18,9 C 86 % 1006,1 hPa 0,0 l/m 7,6 km/h (2 Bft) W 259 0 min 0,000 mm 1,1 UV-I 208 W/m 11,8 C 13,4 C 12,9 km/h (3 Bft) 100,00 %
10.09.2017 10:42 14,1 C 18,9 C 86 % 1006,1 hPa 0,0 l/m 8,4 km/h (2 Bft) W-SW 252 0 min 0,000 mm 0,9 UV-I 165 W/m 11,8 C 12,9 C 12,9 km/h (3 Bft) 94,44 %
10.09.2017 10:44 14,1 C 18,9 C 85 % 1006,1 hPa 0,0 l/m 9,7 km/h (2 Bft) W-SW 238 0 min 0,000 mm 0,8 UV-I 152 W/m 11,6 C 12,3 C 16,1 km/h (3 Bft) 96,72 %
10.09.2017 10:46 14,0 C 18,9 C 86 % 1006,1 hPa 0,0 l/m 10,3 km/h (2 Bft) W-SW 255 0 min 0,000 mm 0,8 UV-I 161 W/m 11,7 C 11,9 C 14,5 km/h (3 Bft) 94,00 %
10.09.2017 10:48 14,0 C 18,9 C 86 % 1006,1 hPa 0,0 l/m 8,3 km/h (2 Bft) W 267 0 min 0,000 mm 0,9 UV-I 177 W/m 11,7 C 12,9 C 12,9 km/h (3 Bft) 97,73 %
10.09.2017 10:50 13,9 C 18,9 C 86 % 1006,1 hPa 0,0 l/m 5,5 km/h (1 Bft) SW 225 0 min 0,000 mm 1,1 UV-I 210 W/m 11,6 C 13,9 C 11,3 km/h (2 Bft) 95,24 %
10.09.2017 10:52 13,9 C 18,9 C 86 % 1005,9 hPa 0,0 l/m 9,0 km/h (2 Bft) W-SW 250 0 min 0,000 mm 1,3 UV-I 236 W/m 11,6 C 12,4 C 14,5 km/h (3 Bft) 98,08 %
10.09.2017 10:54 13,9 C 18,9 C 86 % 1006,0 hPa 0,0 l/m 7,9 km/h (2 Bft) W 265 0 min 0,000 mm 1,4 UV-I 268 W/m 11,6 C 13,0 C 16,1 km/h (3 Bft) 97,92 %
10.09.2017 10:56 14,1 C 18,9 C 86 % 1006,0 hPa 0,0 l/m 11,8 km/h (2 Bft) W 271 0 min 0,000 mm 1,3 UV-I 252 W/m 11,8 C 11,3 C 16,1 km/h (3 Bft) 95,12 %
10.09.2017 10:58 14,1 C 18,9 C 86 % 1006,1 hPa 0,0 l/m 8,1 km/h (2 Bft) W-SW 246 0 min 0,000 mm 1,4 UV-I 262 W/m 11,8 C 13,1 C 12,9 km/h (3 Bft) 100,00 %
10.09.2017 11:00 14,1 C 18,9 C 86 % 1006,0 hPa 0,0 l/m 7,5 km/h (2 Bft) W-SW 257 0 min 0,000 mm 1,4 UV-I 270 W/m 11,8 C 13,4 C 12,9 km/h (3 Bft) 96,00 %
10.09.2017 11:02 14,2 C 18,9 C 86 % 1006,1 hPa 0,0 l/m 7,9 km/h (2 Bft) W-SW 238 0 min 0,127 mm 1,2 UV-I 226 W/m 11,9 C 13,3 C 12,9 km/h (3 Bft) 95,12 %
10.09.2017 11:04 14,2 C 18,9 C 85 % 1006,1 hPa 0,0 l/m 9,9 km/h (2 Bft) W-NW 282 0 min 0,000 mm 1,0 UV-I 182 W/m 11,7 C 12,3 C 16,1 km/h (3 Bft) 95,74 %
10.09.2017 11:06 14,2 C 18,9 C 85 % 1006,2 hPa 0,0 l/m 6,4 km/h (2 Bft) W-SW 243 0 min 0,000 mm 1,1 UV-I 192 W/m 11,7 C 14,2 C 12,9 km/h (3 Bft) 98,00 %
10.09.2017 11:08 14,2 C 18,9 C 86 % 1006,2 hPa 0,0 l/m 9,4 km/h (2 Bft) W-SW 254 0 min 0,000 mm 1,3 UV-I 228 W/m 11,9 C 12,5 C 17,7 km/h (3 Bft) 96,00 %
10.09.2017 11:10 14,2 C 18,9 C 85 % 1006,2 hPa 0,0 l/m 8,4 km/h (2 Bft) W-SW 254 0 min 0,000 mm 1,6 UV-I 273 W/m 11,7 C 13,0 C 14,5 km/h (3 Bft) 97,56 %
10.09.2017 11:12 14,2 C 18,9 C 85 % 1006,2 hPa 0,0 l/m 8,4 km/h (2 Bft) W-SW 256 0 min 0,000 mm 1,4 UV-I 255 W/m 11,7 C 13,0 C 14,5 km/h (3 Bft) 98,21 %
10.09.2017 11:14 14,2 C 18,9 C 85 % 1006,2 hPa 0,0 l/m 6,3 km/h (2 Bft) W 267 0 min 0,000 mm 1,3 UV-I 215 W/m 11,7 C 14,2 C 11,3 km/h (2 Bft) 97,73 %
10.09.2017 11:16 14,2 C 18,9 C 85 % 1006,2 hPa 0,0 l/m 3,7 km/h (1 Bft) W-SW 251 0 min 0,000 mm 1,2 UV-I 206 W/m 11,7 C 14,2 C 6,4 km/h (2 Bft) 92,31 %
10.09.2017 11:18 14,2 C 18,9 C 85 % 1006,2 hPa 0,0 l/m 6,3 km/h (2 Bft) W 281 0 min 0,000 mm 1,0 UV-I 183 W/m 11,7 C 14,2 C 14,5 km/h (3 Bft) 97,06 %
10.09.2017 11:20 14,2 C 18,9 C 85 % 1006,3 hPa 0,0 l/m 8,9 km/h (2 Bft) W-SW 250 0 min 0,000 mm 0,9 UV-I 161 W/m 11,7 C 12,8 C 16,1 km/h (3 Bft) 95,45 %
10.09.2017 11:22 14,2 C 18,9 C 85 % 1006,4 hPa 0,0 l/m 7,4 km/h (2 Bft) SW 231 0 min 0,000 mm 0,6 UV-I 115 W/m 11,7 C 13,6 C 12,9 km/h (3 Bft) 98,00 %
10.09.2017 11:24 14,1 C 18,9 C 85 % 1006,4 hPa 0,0 l/m 10,2 km/h (2 Bft) W 268 0 min 0,000 mm 0,5 UV-I 89 W/m 11,6 C 12,0 C 16,1 km/h (3 Bft) 97,87 %
10.09.2017 11:26 13,9 C 18,9 C 86 % 1006,3 hPa 0,0 l/m 11,9 km/h (2 Bft) W-SW 256 0 min 0,000 mm 0,5 UV-I 86 W/m 11,6 C 11,0 C 19,3 km/h (3 Bft) 97,56 %
10.09.2017 11:28 13,8 C 18,9 C 87 % 1006,2 hPa 0,0 l/m 10,1 km/h (2 Bft) W 262 0 min 0,000 mm 0,5 UV-I 91 W/m 11,7 C 11,7 C 14,5 km/h (3 Bft) 94,00 %
10.09.2017 11:30 13,6 C 18,9 C 87 % 1006,2 hPa 0,0 l/m 11,7 km/h (2 Bft) W 272 0 min 0,000 mm 0,5 UV-I 92 W/m 11,5 C 10,8 C 17,7 km/h (3 Bft) 100,00 %
10.09.2017 11:32 13,4 C 18,9 C 87 % 1006,2 hPa 0,0 l/m 8,5 km/h (2 Bft) W-SW 245 0 min 0,000 mm 0,5 UV-I 93 W/m 11,3 C 12,1 C 16,1 km/h (3 Bft) 100,00 %
10.09.2017 11:34 13,3 C 18,9 C 88 % 1006,3 hPa 0,0 l/m 12,4 km/h (3 Bft) W-SW 252 0 min 0,000 mm 0,6 UV-I 105 W/m 11,4 C 10,1 C 19,3 km/h (3 Bft) 100,00 %
10.09.2017 11:36 13,1 C 18,9 C 89 % 1006,3 hPa 0,0 l/m 11,8 km/h (2 Bft) W-SW 238 0 min 0,000 mm 0,7 UV-I 119 W/m 11,3 C 10,2 C 19,3 km/h (3 Bft) 98,00 %
10.09.2017 11:38 13,1 C 18,9 C 89 % 1006,4 hPa 0,0 l/m 11,4 km/h (2 Bft) W-SW 251 0 min 0,000 mm 0,8 UV-I 136 W/m 11,3 C 10,4 C 17,7 km/h (3 Bft) 98,00 %
10.09.2017 11:40 13,0 C 18,9 C 89 % 1006,4 hPa 0,0 l/m 10,7 km/h (2 Bft) W-SW 243 0 min 0,000 mm 1,0 UV-I 163 W/m 11,2 C 10,6 C 16,1 km/h (3 Bft) 100,00 %
10.09.2017 11:42 13,0 C 18,9 C 90 % 1006,4 hPa 0,0 l/m 9,5 km/h (2 Bft) W-SW 251 0 min 0,000 mm 1,1 UV-I 186 W/m 11,4 C 11,2 C 16,1 km/h (3 Bft) 100,00 %
10.09.2017 11:44 13,1 C 18,9 C 90 % 1006,4 hPa 0,0 l/m 8,7 km/h (2 Bft) W-NW 284 0 min 0,000 mm 1,2 UV-I 193 W/m 11,5 C 11,7 C 16,1 km/h (3 Bft) 97,87 %
10.09.2017 11:46 13,1 C 18,9 C 90 % 1006,4 hPa 0,0 l/m 8,5 km/h (2 Bft) SW 231 0 min 0,000 mm 1,3 UV-I 217 W/m 11,5 C 11,8 C 12,9 km/h (3 Bft) 100,00 %
10.09.2017 11:48 13,1 C 18,9 C 90 % 1006,3 hPa 0,0 l/m 7,9 km/h (2 Bft) W-SW 258 0 min 0,000 mm 1,5 UV-I 244 W/m 11,5 C 12,2 C 14,5 km/h (3 Bft) 98,11 %
10.09.2017 11:50 13,2 C 18,9 C 90 % 1006,4 hPa 0,0 l/m 8,9 km/h (2 Bft) SW 225 0 min 0,000 mm 1,6 UV-I 257 W/m 11,6 C 11,7 C 16,1 km/h (3 Bft) 100,00 %
10.09.2017 11:52 13,3 C 18,9 C 90 % 1006,4 hPa 0,0 l/m 5,3 km/h (1 Bft) W-SW 254 0 min 0,000 mm 1,7 UV-I 276 W/m 11,7 C 13,3 C 9,7 km/h (2 Bft) 97,56 %
10.09.2017 11:54 13,4 C 18,9 C 90 % 1006,4 hPa 0,0 l/m 8,1 km/h (2 Bft) W-NW 286 0 min 0,000 mm 1,8 UV-I 299 W/m 11,8 C 12,4 C 12,9 km/h (3 Bft) 98,11 %
10.09.2017 11:56 13,5 C 18,9 C 90 % 1006,3 hPa 0,0 l/m 6,7 km/h (2 Bft) W-SW 246 0 min 0,000 mm 2,0 UV-I 312 W/m 11,9 C 13,3 C 14,5 km/h (3 Bft) 100,00 %
10.09.2017 11:58 13,6 C 18,9 C 89 % 1006,3 hPa 0,0 l/m 8,2 km/h (2 Bft) W 273 0 min 0,000 mm 2,2 UV-I 344 W/m 11,8 C 12,5 C 14,5 km/h (3 Bft) 98,00 %
10.09.2017 12:00 13,6 C 18,9 C 88 % 1006,3 hPa 0,0 l/m 8,6 km/h (2 Bft) SW 232 0 min 0,102 mm 2,3 UV-I 370 W/m 11,6 C 12,3 C 16,1 km/h (3 Bft) 98,00 %
10.09.2017 12:02 13,7 C 18,9 C 88 % 1006,3 hPa 0,0 l/m 8,4 km/h (2 Bft) SW 236 0 min 0,000 mm 2,2 UV-I 369 W/m 11,7 C 12,5 C 12,9 km/h (3 Bft) 100,00 %
10.09.2017 12:04 13,8 C 18,9 C 88 % 1006,3 hPa 0,0 l/m 6,6 km/h (2 Bft) W 273 0 min 0,000 mm 2,1 UV-I 356 W/m 11,8 C 13,7 C 12,9 km/h (3 Bft) 100,00 %
10.09.2017 12:06 13,9 C 18,9 C 88 % 1006,3 hPa 0,0 l/m 6,4 km/h (2 Bft) W-SW 250 0 min 0,000 mm 2,2 UV-I 359 W/m 11,9 C 13,9 C 11,3 km/h (2 Bft) 100,00 %
10.09.2017 12:08 13,9 C 18,9 C 88 % 1006,4 hPa 0,0 l/m 7,7 km/h (2 Bft) W-NW 296 0 min 0,000 mm 2,0 UV-I 329 W/m 11,9 C 13,1 C 14,5 km/h (3 Bft) 100,00 %
10.09.2017 12:10 13,9 C 18,9 C 88 % 1006,4 hPa 0,0 l/m 5,1 km/h (1 Bft) W-NW 285 0 min 0,000 mm 1,8 UV-I 302 W/m 11,9 C 13,9 C 9,7 km/h (2 Bft) 97,73 %
10.09.2017 12:12 14,1 C 18,9 C 88 % 1006,3 hPa 0,0 l/m 2,8 km/h (1 Bft) W-SW 250 0 min 0,000 mm 1,9 UV-I 323 W/m 12,1 C 14,1 C 6,4 km/h (2 Bft) 100,00 %
10.09.2017 12:14 14,2 C 18,9 C 87 % 1006,2 hPa 0,0 l/m 4,3 km/h (1 Bft) N-NW 340 2 min 0,000 mm 2,5 UV-I 400 W/m 12,1 C 14,2 C 12,9 km/h (3 Bft) 100,00 %
10.09.2017 12:16 14,3 C 18,9 C 85 % 1006,1 hPa 0,0 l/m 3,4 km/h (1 Bft) W 261 2 min 0,000 mm 2,7 UV-I 426 W/m 11,8 C 14,3 C 8,0 km/h (2 Bft) 97,73 %
10.09.2017 12:18 14,3 C 18,9 C 85 % 1006,2 hPa 0,0 l/m 5,0 km/h (1 Bft) NW 321 2 min 0,000 mm 2,5 UV-I 411 W/m 11,8 C 14,3 C 9,7 km/h (2 Bft) 100,00 %
10.09.2017 12:20 14,5 C 18,9 C 86 % 1006,3 hPa 0,0 l/m 4,8 km/h (1 Bft) W-SW 244 2 min 0,000 mm 2,5 UV-I 454 W/m 12,2 C 14,5 C 9,7 km/h (2 Bft) 100,00 %
10.09.2017 12:22 14,8 C 18,9 C 85 % 1006,3 hPa 0,0 l/m 7,4 km/h (2 Bft) W-SW 246 0 min 0,000 mm 2,1 UV-I 342 W/m 12,3 C 14,2 C 14,5 km/h (3 Bft) 100,00 %
10.09.2017 12:24 14,8 C 18,9 C 84 % 1006,4 hPa 0,0 l/m 5,6 km/h (1 Bft) W 267 0 min 0,000 mm 1,9 UV-I 287 W/m 12,1 C 14,8 C 12,9 km/h (3 Bft) 100,00 %
10.09.2017 12:26 14,7 C 18,9 C 83 % 1006,4 hPa 0,0 l/m 6,0 km/h (2 Bft) W-SW 249 0 min 0,000 mm 1,5 UV-I 225 W/m 11,8 C 14,7 C 12,9 km/h (3 Bft) 100,00 %
10.09.2017 12:28 14,6 C 18,9 C 84 % 1006,4 hPa 0,0 l/m 5,9 km/h (2 Bft) W-SW 237 0 min 0,000 mm 1,1 UV-I 175 W/m 11,9 C 14,6 C 11,3 km/h (2 Bft) 100,00 %
10.09.2017 12:30 14,6 C 18,9 C 84 % 1006,4 hPa 0,0 l/m 5,6 km/h (1 Bft) W-SW 244 0 min 0,000 mm 0,9 UV-I 140 W/m 11,9 C 14,6 C 8,0 km/h (2 Bft) 100,00 %
10.09.2017 12:32 14,5 C 18,9 C 84 % 1006,4 hPa 0,0 l/m 3,7 km/h (1 Bft) W-SW 244 0 min 0,000 mm 0,9 UV-I 142 W/m 11,8 C 14,5 C 8,0 km/h (2 Bft) 97,87 %
10.09.2017 12:34 14,4 C 18,9 C 84 % 1006,2 hPa 0,0 l/m 10,3 km/h (2 Bft) W 263 0 min 0,000 mm 1,0 UV-I 160 W/m 11,7 C 12,3 C 16,1 km/h (3 Bft) 100,00 %
10.09.2017 12:36 14,4 C 18,9 C 84 % 1006,2 hPa 0,0 l/m 7,3 km/h (2 Bft) W-SW 250 0 min 0,000 mm 1,1 UV-I 158 W/m 11,7 C 13,9 C 11,3 km/h (2 Bft) 100,00 %
10.09.2017 12:38 14,3 C 18,9 C 84 % 1006,2 hPa 0,0 l/m 8,5 km/h (2 Bft) W 265 0 min 0,000 mm 0,9 UV-I 136 W/m 11,6 C 13,1 C 12,9 km/h (3 Bft) 100,00 %
10.09.2017 12:40 14,2 C 18,9 C 84 % 1006,3 hPa 0,0 l/m 6,8 km/h (2 Bft) SW 236 0 min 0,000 mm 0,8 UV-I 128 W/m 11,5 C 14,0 C 14,5 km/h (3 Bft) 100,00 %
10.09.2017 12:42 14,2 C 18,9 C 84 % 1006,4 hPa 0,0 l/m 7,5 km/h (2 Bft) W-SW 242 0 min 0,000 mm 0,9 UV-I 141 W/m 11,5 C 13,5 C 14,5 km/h (3 Bft) 100,00 %
10.09.2017 12:44 14,2 C 18,9 C 85 % 1006,4 hPa 0,0 l/m 10,7 km/h (2 Bft) W 261 0 min 0,000 mm 1,0 UV-I 155 W/m 11,7 C 11,9 C 16,1 km/h (3 Bft) 100,00 %
10.09.2017 12:46 14,2 C 18,9 C 85 % 1006,4 hPa 0,0 l/m 7,0 km/h (2 Bft) SW 225 0 min 0,000 mm 1,0 UV-I 158 W/m 11,7 C 13,8 C 11,3 km/h (2 Bft) 100,00 %
10.09.2017 12:48 14,2 C 18,9 C 85 % 1006,4 hPa 0,0 l/m 7,4 km/h (2 Bft) W-SW 239 0 min 0,000 mm 1,0 UV-I 152 W/m 11,7 C 13,6 C 11,3 km/h (2 Bft) 98,00 %
10.09.2017 12:50 14,2 C 18,9 C 85 % 1006,5 hPa 0,0 l/m 7,0 km/h (2 Bft) W 259 0 min 0,000 mm 0,9 UV-I 145 W/m 11,7 C 13,8 C 12,9 km/h (3 Bft) 100,00 %
10.09.2017 12:52 14,2 C 18,9 C 85 % 1006,5 hPa 0,0 l/m 10,9 km/h (2 Bft) W-SW 258 0 min 0,000 mm 0,9 UV-I 136 W/m 11,7 C 11,8 C 17,7 km/h (3 Bft) 97,87 %
10.09.2017 12:54 14,1 C 18,9 C 85 % 1006,6 hPa 0,0 l/m 9,0 km/h (2 Bft) W-SW 257 0 min 0,000 mm 0,9 UV-I 135 W/m 11,6 C 12,6 C 16,1 km/h (3 Bft) 98,00 %
10.09.2017 12:56 14,1 C 18,9 C 85 % 1006,6 hPa 0,0 l/m 7,9 km/h (2 Bft) W-SW 255 0 min 0,000 mm 0,9 UV-I 146 W/m 11,6 C 13,2 C 14,5 km/h (3 Bft) 95,65 %
10.09.2017 12:58 14,1 C 18,9 C 85 % 1006,5 hPa 0,0 l/m 5,4 km/h (1 Bft) SW 236 0 min 0,000 mm 1,1 UV-I 181 W/m 11,6 C 14,1 C 8,0 km/h (2 Bft) 96,23 %
10.09.2017 13:00 14,1 C 18,9 C 85 % 1006,4 hPa 0,0 l/m 6,7 km/h (2 Bft) SW 228 0 min 0,127 mm 1,2 UV-I 202 W/m 11,6 C 13,9 C 9,7 km/h (2 Bft) 97,73 %
10.09.2017 13:02 14,1 C 18,9 C 85 % 1006,4 hPa 0,0 l/m 8,2 km/h (2 Bft) W 279 0 min 0,000 mm 1,3 UV-I 218 W/m 11,6 C 13,0 C 12,9 km/h (3 Bft) 95,45 %
10.09.2017 13:04 14,2 C 18,9 C 85 % 1006,4 hPa 0,0 l/m 7,6 km/h (2 Bft) W-SW 247 0 min 0,000 mm 1,3 UV-I 226 W/m 11,7 C 13,5 C 12,9 km/h (3 Bft) 96,23 %
10.09.2017 13:06 14,3 C 18,9 C 85 % 1006,4 hPa 0,0 l/m 4,3 km/h (1 Bft) SW 229 0 min 0,000 mm 1,2 UV-I 215 W/m 11,8 C 14,3 C 6,4 km/h (2 Bft) 95,74 %
10.09.2017 13:08 14,3 C 18,9 C 84 % 1006,4 hPa 0,0 l/m 4,7 km/h (1 Bft) W-NW 286 0 min 0,000 mm 1,2 UV-I 200 W/m 11,6 C 14,3 C 9,7 km/h (2 Bft) 95,45 %
10.09.2017 13:10 14,3 C 18,9 C 83 % 1006,4 hPa 0,0 l/m 7,6 km/h (2 Bft) W-NW 282 0 min 0,000 mm 1,2 UV-I 206 W/m 11,5 C 13,6 C 14,5 km/h (3 Bft) 95,45 %
10.09.2017 13:12 14,3 C 18,9 C 83 % 1006,5 hPa 0,0 l/m 6,2 km/h (2 Bft) W 265 0 min 0,000 mm 1,2 UV-I 212 W/m 11,5 C 14,3 C 12,9 km/h (3 Bft) 98,11 %
10.09.2017 13:14 14,3 C 18,9 C 83 % 1006,6 hPa 0,0 l/m 8,9 km/h (2 Bft) W-SW 257 0 min 0,000 mm 1,4 UV-I 245 W/m 11,5 C 12,9 C 16,1 km/h (3 Bft) 97,73 %
10.09.2017 13:16 14,3 C 18,9 C 83 % 1006,6 hPa 0,0 l/m 10,2 km/h (2 Bft) W-SW 257 0 min 0,000 mm 1,7 UV-I 285 W/m 11,5 C 12,3 C 16,1 km/h (3 Bft) 98,00 %
10.09.2017 13:18 14,3 C 18,9 C 83 % 1006,6 hPa 0,0 l/m 6,0 km/h (2 Bft) W 259 0 min 0,000 mm 1,8 UV-I 300 W/m 11,5 C 14,3 C 12,9 km/h (3 Bft) 97,56 %
10.09.2017 13:20 14,6 C 18,9 C 83 % 1006,6 hPa 0,0 l/m 9,8 km/h (2 Bft) S-SW 201 0 min 0,000 mm 1,8 UV-I 292 W/m 11,7 C 12,8 C 17,7 km/h (3 Bft) 96,23 %
10.09.2017 13:22 14,6 C 18,9 C 82 % 1006,6 hPa 0,0 l/m 8,3 km/h (2 Bft) W-NW 287 0 min 0,000 mm 1,6 UV-I 270 W/m 11,6 C 13,5 C 14,5 km/h (3 Bft) 100,00 %
10.09.2017 13:24 14,5 C 18,9 C 82 % 1006,6 hPa 0,0 l/m 10,2 km/h (2 Bft) W 267 0 min 0,000 mm 1,4 UV-I 245 W/m 11,5 C 12,5 C 16,1 km/h (3 Bft) 98,21 %
10.09.2017 13:26 14,5 C 18,9 C 82 % 1006,5 hPa 0,0 l/m 5,3 km/h (1 Bft) W-NW 286 0 min 0,000 mm 1,2 UV-I 216 W/m 11,5 C 14,5 C 8,0 km/h (2 Bft) 100,00 %
10.09.2017 13:28 14,6 C 18,9 C 83 % 1006,5 hPa 0,0 l/m 6,8 km/h (2 Bft) W 267 0 min 0,000 mm 1,0 UV-I 177 W/m 11,7 C 14,4 C 12,9 km/h (3 Bft) 98,18 %
10.09.2017 13:30 14,6 C 18,9 C 83 % 1006,6 hPa 0,0 l/m 8,8 km/h (2 Bft) W-SW 258 0 min 0,000 mm 0,8 UV-I 152 W/m 11,7 C 13,3 C 16,1 km/h (3 Bft) 100,00 %
10.09.2017 13:32 14,5 C 18,9 C 82 % 1006,6 hPa 0,0 l/m 8,6 km/h (2 Bft) W-SW 247 0 min 0,000 mm 0,7 UV-I 140 W/m 11,5 C 13,3 C 14,5 km/h (3 Bft) 97,73 %
10.09.2017 13:34 14,4 C 18,9 C 83 % 1006,7 hPa 0,0 l/m 7,3 km/h (2 Bft) SW 229 0 min 0,000 mm 0,8 UV-I 145 W/m 11,5 C 13,9 C 12,9 km/h (3 Bft) 100,00 %
10.09.2017 13:36 14,4 C 18,9 C 83 % 1006,7 hPa 0,0 l/m 8,2 km/h (2 Bft) W-SW 242 0 min 0,000 mm 0,9 UV-I 159 W/m 11,5 C 13,4 C 12,9 km/h (3 Bft) 100,00 %
10.09.2017 13:38 14,3 C 18,9 C 83 % 1006,7 hPa 0,0 l/m 8,5 km/h (2 Bft) SW 221 0 min 0,000 mm 1,0 UV-I 184 W/m 11,5 C 13,1 C 12,9 km/h (3 Bft) 100,00 %
10.09.2017 13:40 14,4 C 18,9 C 83 % 1006,7 hPa 0,0 l/m 6,9 km/h (2 Bft) S-SW 211 0 min 0,000 mm 1,3 UV-I 218 W/m 11,5 C 14,1 C 14,5 km/h (3 Bft) 100,00 %
10.09.2017 13:43 14,4 C 18,9 C 83 % 1006,7 hPa 0,0 l/m 7,8 km/h (2 Bft) W-SW 243 0 min 0,000 mm 1,5 UV-I 263 W/m 11,5 C 13,6 C 14,5 km/h (3 Bft) 100,00 %
10.09.2017 13:44 14,4 C 18,9 C 83 % 1006,7 hPa 0,0 l/m 7,3 km/h (2 Bft) S-SW 209 0 min 0,000 mm 1,7 UV-I 285 W/m 11,5 C 13,9 C 11,3 km/h (2 Bft) 100,00 %
10.09.2017 13:46 14,5 C 18,9 C 84 % 1006,6 hPa 0,0 l/m 11,6 km/h (2 Bft) S-SW 206 0 min 0,000 mm 1,7 UV-I 280 W/m 11,8 C 11,9 C 14,5 km/h (3 Bft) 98,11 %
10.09.2017 13:48 14,6 C 18,9 C 83 % 1006,6 hPa 0,0 l/m 10,3 km/h (2 Bft) W-SW 246 0 min 0,000 mm 1,5 UV-I 255 W/m 11,7 C 12,5 C 14,5 km/h (3 Bft) 100,00 %
10.09.2017 13:50 14,6 C 18,9 C 82 % 1006,7 hPa 0,0 l/m 8,3 km/h (2 Bft) S-SW 199 0 min 0,000 mm 1,2 UV-I 212 W/m 11,6 C 13,5 C 14,5 km/h (3 Bft) 100,00 %
10.09.2017 13:52 14,6 C 18,9 C 83 % 1006,6 hPa 0,0 l/m 9,1 km/h (2 Bft) W-SW 239 0 min 0,000 mm 0,9 UV-I 170 W/m 11,7 C 13,1 C 14,5 km/h (3 Bft) 98,00 %
10.09.2017 13:54 14,6 C 18,9 C 83 % 1006,6 hPa 0,0 l/m 6,2 km/h (2 Bft) W-SW 257 0 min 0,000 mm 0,7 UV-I 142 W/m 11,7 C 14,6 C 8,0 km/h (2 Bft) 100,00 %
10.09.2017 13:56 14,6 C 18,9 C 83 % 1006,6 hPa 0,0 l/m 7,8 km/h (2 Bft) W 277 0 min 0,000 mm 0,7 UV-I 124 W/m 11,7 C 13,8 C 14,5 km/h (3 Bft) 100,00 %
10.09.2017 13:59 14,5 C 18,9 C 82 % 1006,6 hPa 0,0 l/m 10,5 km/h (2 Bft) W 281 0 min 0,000 mm 0,5 UV-I 107 W/m 11,5 C 12,3 C 17,7 km/h (3 Bft) 98,75 %
10.09.2017 14:00 14,4 C 18,9 C 82 % 1006,6 hPa 0,0 l/m 10,8 km/h (2 Bft) W-SW 239 0 min 0,000 mm 0,5 UV-I 102 W/m 11,4 C 12,1 C 14,5 km/h (3 Bft) 100,00 %
10.09.2017 14:02 14,4 C 18,9 C 82 % 1006,6 hPa 0,0 l/m 8,4 km/h (2 Bft) SW 217 0 min 0,127 mm 0,6 UV-I 113 W/m 11,4 C 13,3 C 14,5 km/h (3 Bft) 98,00 %
10.09.2017 14:04 14,3 C 18,9 C 83 % 1006,5 hPa 0,0 l/m 5,3 km/h (1 Bft) W-SW 243 0 min 0,000 mm 0,8 UV-I 139 W/m 11,5 C 14,3 C 9,7 km/h (2 Bft) 96,00 %
10.09.2017 14:06 14,4 C 18,9 C 83 % 1006,4 hPa 0,0 l/m 5,5 km/h (1 Bft) W 261 0 min 0,000 mm 1,0 UV-I 183 W/m 11,5 C 14,4 C 11,3 km/h (2 Bft) 97,22 %
10.09.2017 14:08 14,5 C 18,9 C 83 % 1006,4 hPa 0,0 l/m 4,2 km/h (1 Bft) W-SW 244 0 min 0,000 mm 1,2 UV-I 215 W/m 11,6 C 14,5 C 9,7 km/h (2 Bft) 98,00 %
10.09.2017 14:10 14,6 C 18,9 C 83 % 1006,4 hPa 0,0 l/m 8,0 km/h (2 Bft) SW 233 0 min 0,000 mm 1,2 UV-I 217 W/m 11,7 C 13,7 C 12,9 km/h (3 Bft) 98,00 %
10.09.2017 14:12 14,5 C 18,9 C 82 % 1006,4 hPa 0,0 l/m 5,2 km/h (1 Bft) W-SW 254 0 min 0,000 mm 1,1 UV-I 204 W/m 11,5 C 14,5 C 9,7 km/h (2 Bft) 96,23 %
10.09.2017 14:14 14,6 C 18,9 C 82 % 1006,4 hPa 0,0 l/m 4,9 km/h (1 Bft) W-SW 257 0 min 0,000 mm 1,1 UV-I 209 W/m 11,6 C 14,6 C 8,0 km/h (2 Bft) 100,00 %
10.09.2017 14:16 14,7 C 18,9 C 83 % 1006,5 hPa 0,0 l/m 5,0 km/h (1 Bft) SW 215 0 min 0,000 mm 1,2 UV-I 214 W/m 11,8 C 14,7 C 9,7 km/h (2 Bft) 94,34 %
10.09.2017 14:18 14,7 C 18,9 C 82 % 1006,5 hPa 0,0 l/m 7,9 km/h (2 Bft) W 265 0 min 0,000 mm 1,2 UV-I 216 W/m 11,7 C 13,8 C 11,3 km/h (2 Bft) 97,37 %
10.09.2017 14:20 14,7 C 18,9 C 82 % 1006,6 hPa 0,0 l/m 7,6 km/h (2 Bft) W-SW 255 0 min 0,000 mm 1,2 UV-I 225 W/m 11,7 C 14,0 C 11,3 km/h (2 Bft) 97,87 %
10.09.2017 14:22 14,7 C 18,9 C 81 % 1006,6 hPa 0,0 l/m 6,4 km/h (2 Bft) S-SW 207 0 min 0,000 mm 1,3 UV-I 241 W/m 11,5 C 14,7 C 11,3 km/h (2 Bft) 94,74 %
10.09.2017 14:24 14,7 C 18,9 C 82 % 1006,5 hPa 0,0 l/m 6,4 km/h (2 Bft) SW 224 0 min 0,000 mm 1,5 UV-I 268 W/m 11,7 C 14,7 C 9,7 km/h (2 Bft) 98,39 %
10.09.2017 14:26 14,7 C 18,9 C 82 % 1006,4 hPa 0,0 l/m 7,8 km/h (2 Bft) S-SW 201 0 min 0,000 mm 1,5 UV-I 286 W/m 11,7 C 13,9 C 12,9 km/h (3 Bft) 97,87 %
10.09.2017 14:28 14,8 C 18,9 C 82 % 1006,5 hPa 0,0 l/m 6,7 km/h (2 Bft) W-SW 244 0 min 0,000 mm 1,5 UV-I 285 W/m 11,8 C 14,6 C 11,3 km/h (2 Bft) 97,73 %
10.09.2017 14:30 14,8 C 18,9 C 82 % 1006,5 hPa 0,0 l/m 9,4 km/h (2 Bft) SW 229 0 min 0,000 mm 1,5 UV-I 277 W/m 11,8 C 13,2 C 14,5 km/h (3 Bft) 98,11 %
10.09.2017 14:32 14,9 C 18,9 C 82 % 1006,5 hPa 0,0 l/m 6,5 km/h (2 Bft) SW 225 0 min 0,000 mm 1,5 UV-I 276 W/m 11,9 C 14,9 C 9,7 km/h (2 Bft) 97,37 %
10.09.2017 14:34 14,9 C 18,9 C 82 % 1006,5 hPa 0,0 l/m 8,8 km/h (2 Bft) SW 231 0 min 0,000 mm 1,4 UV-I 277 W/m 11,9 C 13,6 C 14,5 km/h (3 Bft) 97,87 %
10.09.2017 14:36 14,9 C 18,9 C 81 % 1006,5 hPa 0,0 l/m 9,9 km/h (2 Bft) SW 216 0 min 0,000 mm 1,4 UV-I 276 W/m 11,7 C 13,1 C 14,5 km/h (3 Bft) 94,34 %
10.09.2017 14:38 15,0 C 18,9 C 81 % 1006,5 hPa 0,0 l/m 10,8 km/h (2 Bft) W-SW 256 0 min 0,000 mm 1,4 UV-I 273 W/m 11,8 C 12,8 C 17,7 km/h (3 Bft) 95,45 %
10.09.2017 14:40 14,9 C 18,9 C 81 % 1006,5 hPa 0,0 l/m 11,7 km/h (2 Bft) W-SW 245 0 min 0,000 mm 1,5 UV-I 287 W/m 11,7 C 12,3 C 17,7 km/h (3 Bft) 98,00 %
10.09.2017 14:42 14,9 C 18,9 C 80 % 1006,5 hPa 0,0 l/m 7,1 km/h (2 Bft) W-SW 244 0 min 0,000 mm 1,5 UV-I 302 W/m 11,5 C 14,5 C 12,9 km/h (3 Bft) 97,56 %
10.09.2017 14:44 14,9 C 18,9 C 81 % 1006,5 hPa 0,0 l/m 5,0 km/h (1 Bft) SW 223 0 min 0,000 mm 1,6 UV-I 295 W/m 11,7 C 14,9 C 11,3 km/h (2 Bft) 96,00 %
10.09.2017 14:46 15,1 C 18,9 C 81 % 1006,4 hPa 0,0 l/m 7,6 km/h (2 Bft) S-SW 211 0 min 0,000 mm 1,6 UV-I 289 W/m 11,9 C 14,4 C 12,9 km/h (3 Bft) 97,44 %
10.09.2017 14:48 15,1 C 18,9 C 81 % 1006,4 hPa 0,0 l/m 6,6 km/h (2 Bft) S-SO 165 0 min 0,000 mm 1,6 UV-I 283 W/m 11,9 C 15,0 C 11,3 km/h (2 Bft) 94,64 %
10.09.2017 14:50 15,2 C 18,9 C 81 % 1006,3 hPa 0,0 l/m 6,5 km/h (2 Bft) SW 234 0 min 0,000 mm 1,6 UV-I 283 W/m 12,0 C 15,2 C 11,3 km/h (2 Bft) 94,74 %
10.09.2017 14:52 15,1 C 18,9 C 80 % 1006,3 hPa 0,0 l/m 6,8 km/h (2 Bft) S-SW 207 0 min 0,000 mm 1,5 UV-I 281 W/m 11,7 C 14,9 C 9,7 km/h (2 Bft) 93,18 %
10.09.2017 14:54 15,1 C 18,9 C 81 % 1006,4 hPa 0,0 l/m 5,5 km/h (1 Bft) W-SW 237 0 min 0,000 mm 1,5 UV-I 273 W/m 11,9 C 15,1 C 9,7 km/h (2 Bft) 96,30 %
10.09.2017 14:56 15,1 C 18,9 C 80 % 1006,4 hPa 0,0 l/m 4,9 km/h (1 Bft) W-SW 256 0 min 0,000 mm 1,4 UV-I 271 W/m 11,7 C 15,1 C 9,7 km/h (2 Bft) 94,34 %
10.09.2017 14:58 15,2 C 18,9 C 80 % 1006,5 hPa 0,0 l/m 8,1 km/h (2 Bft) SW 232 0 min 0,000 mm 1,4 UV-I 276 W/m 11,8 C 14,3 C 12,9 km/h (3 Bft) 92,68 %
10.09.2017 15:00 15,2 C 18,9 C 79 % 1006,6 hPa 0,0 l/m 8,8 km/h (2 Bft) W-SW 244 0 min 0,000 mm 1,4 UV-I 264 W/m 11,6 C 13,9 C 14,5 km/h (3 Bft) 94,00 %
10.09.2017 15:02 15,2 C 18,9 C 79 % 1006,7 hPa 0,0 l/m 10,2 km/h (2 Bft) W-SW 238 0 min 0,152 mm 1,3 UV-I 242 W/m 11,6 C 13,2 C 14,5 km/h (3 Bft) 94,74 %
10.09.2017 15:04 15,2 C 18,9 C 79 % 1006,7 hPa 0,0 l/m 5,8 km/h (2 Bft) S-SW 207 0 min 0,000 mm 1,2 UV-I 231 W/m 11,6 C 15,2 C 8,0 km/h (2 Bft) 94,34 %
10.09.2017 15:06 15,2 C 18,9 C 79 % 1006,6 hPa 0,0 l/m 5,0 km/h (1 Bft) W-SW 239 0 min 0,000 mm 1,2 UV-I 233 W/m 11,6 C 15,2 C 9,7 km/h (2 Bft) 93,62 %
10.09.2017 15:08 15,2 C 18,9 C 80 % 1006,5 hPa 0,0 l/m 5,8 km/h (2 Bft) W 263 0 min 0,000 mm 1,2 UV-I 231 W/m 11,8 C 15,2 C 11,3 km/h (2 Bft) 96,00 %
10.09.2017 15:10 15,3 C 18,9 C 80 % 1006,6 hPa 0,0 l/m 7,9 km/h (2 Bft) W 268 0 min 0,000 mm 1,1 UV-I 217 W/m 11,9 C 14,5 C 12,9 km/h (3 Bft) 96,00 %
10.09.2017 15:12 15,3 C 18,9 C 80 % 1006,6 hPa 0,0 l/m 7,2 km/h (2 Bft) SW 224 0 min 0,000 mm 1,1 UV-I 205 W/m 11,9 C 14,9 C 12,9 km/h (3 Bft) 95,12 %
10.09.2017 15:14 15,3 C 18,9 C 80 % 1006,6 hPa 0,0 l/m 9,1 km/h (2 Bft) W 259 0 min 0,000 mm 1,1 UV-I 209 W/m 11,9 C 13,9 C 12,9 km/h (3 Bft) 96,23 %
10.09.2017 15:16 15,2 C 18,9 C 80 % 1006,6 hPa 0,0 l/m 6,5 km/h (2 Bft) W-SW 242 0 min 0,000 mm 1,1 UV-I 215 W/m 11,8 C 15,2 C 11,3 km/h (2 Bft) 95,12 %
10.09.2017 15:18 15,2 C 18,9 C 79 % 1006,6 hPa 0,0 l/m 7,4 km/h (2 Bft) S-SW 209 0 min 0,000 mm 1,1 UV-I 214 W/m 11,6 C 14,6 C 9,7 km/h (2 Bft) 98,00 %
10.09.2017 15:20 15,2 C 18,9 C 80 % 1006,6 hPa 0,0 l/m 6,1 km/h (2 Bft) W-SW 240 0 min 0,000 mm 1,1 UV-I 208 W/m 11,8 C 15,2 C 11,3 km/h (2 Bft) 97,37 %
10.09.2017 15:22 15,2 C 18,9 C 79 % 1006,6 hPa 0,0 l/m 6,6 km/h (2 Bft) SW 227 0 min 0,000 mm 1,1 UV-I 214 W/m 11,6 C 15,1 C 11,3 km/h (2 Bft) 98,21 %
10.09.2017 15:24 15,2 C 18,9 C 79 % 1006,5 hPa 0,0 l/m 7,9 km/h (2 Bft) SW 231 0 min 0,000 mm 1,1 UV-I 223 W/m 11,6 C 14,4 C 11,3 km/h (2 Bft) 100,00 %
10.09.2017 15:26 15,2 C 18,9 C 79 % 1006,6 hPa 0,0 l/m 5,2 km/h (1 Bft) SW 232 0 min 0,000 mm 1,1 UV-I 226 W/m 11,6 C 15,2 C 9,7 km/h (2 Bft) 100,00 %
10.09.2017 15:28 15,2 C 18,9 C 78 % 1006,6 hPa 0,0 l/m 6,3 km/h (2 Bft) W-SW 247 0 min 0,000 mm 1,1 UV-I 225 W/m 11,4 C 15,2 C 11,3 km/h (2 Bft) 100,00 %
10.09.2017 15:30 15,2 C 18,9 C 81 % 1006,5 hPa 0,0 l/m 6,2 km/h (2 Bft) W-SW 251 0 min 0,000 mm 1,1 UV-I 226 W/m 12,0 C 15,2 C 11,3 km/h (2 Bft) 100,00 %
10.09.2017 15:32 15,3 C 18,9 C 79 % 1006,5 hPa 0,0 l/m 8,1 km/h (2 Bft) SW 219 0 min 0,000 mm 1,1 UV-I 225 W/m 11,7 C 14,4 C 11,3 km/h (2 Bft) 100,00 %
10.09.2017 15:34 15,2 C 18,9 C 78 % 1006,5 hPa 0,0 l/m 6,2 km/h (2 Bft) SW 219 0 min 0,000 mm 1,1 UV-I 216 W/m 11,4 C 15,2 C 8,0 km/h (2 Bft) 98,00 %
10.09.2017 15:36 15,2 C 18,9 C 79 % 1006,5 hPa 0,0 l/m 5,4 km/h (1 Bft) W 259 0 min 0,000 mm 1,0 UV-I 207 W/m 11,6 C 15,2 C 9,7 km/h (2 Bft) 100,00 %
10.09.2017 15:38 15,2 C 18,9 C 79 % 1006,5 hPa 0,0 l/m 7,4 km/h (2 Bft) W-SW 257 0 min 0,000 mm 0,9 UV-I 199 W/m 11,6 C 14,6 C 12,9 km/h (3 Bft) 98,00 %
10.09.2017 15:40 15,2 C 18,9 C 79 % 1006,5 hPa 0,0 l/m 6,1 km/h (2 Bft) SW 217 0 min 0,000 mm 0,9 UV-I 193 W/m 11,6 C 15,2 C 9,7 km/h (2 Bft) 100,00 %
10.09.2017 15:42 15,2 C 18,9 C 79 % 1006,5 hPa 0,0 l/m 4,7 km/h (1 Bft) W-SW 246 0 min 0,000 mm 0,9 UV-I 193 W/m 11,6 C 15,2 C 9,7 km/h (2 Bft) 96,15 %
10.09.2017 15:44 15,2 C 18,9 C 79 % 1006,4 hPa 0,0 l/m 4,6 km/h (1 Bft) SW 235 0 min 0,000 mm 0,9 UV-I 194 W/m 11,6 C 15,2 C 8,0 km/h (2 Bft) 100,00 %
10.09.2017 15:46 15,2 C 18,9 C 79 % 1006,4 hPa 0,0 l/m 2,3 km/h (1 Bft) W-SW 253 0 min 0,000 mm 0,9 UV-I 189 W/m 11,6 C 15,2 C 6,4 km/h (2 Bft) 100,00 %
10.09.2017 15:48 15,2 C 18,9 C 79 % 1006,4 hPa 0,0 l/m 3,8 km/h (1 Bft) W 264 0 min 0,000 mm 0,9 UV-I 185 W/m 11,6 C 15,2 C 6,4 km/h (2 Bft) 100,00 %
10.09.2017 15:50 15,3 C 18,9 C 79 % 1006,4 hPa 0,0 l/m 6,0 km/h (2 Bft) SW 224 0 min 0,000 mm 0,9 UV-I 182 W/m 11,7 C 15,3 C 9,7 km/h (2 Bft) 100,00 %
10.09.2017 15:52 15,3 C 18,9 C 79 % 1006,4 hPa 0,0 l/m 4,0 km/h (1 Bft) W 277 0 min 0,000 mm 0,8 UV-I 170 W/m 11,7 C 15,3 C 6,4 km/h (2 Bft) 100,00 %
10.09.2017 15:54 15,2 C 18,9 C 79 % 1006,4 hPa 0,0 l/m 2,1 km/h (1 Bft) W 262 0 min 0,000 mm 0,7 UV-I 152 W/m 11,6 C 15,2 C 4,8 km/h (1 Bft) 98,21 %
10.09.2017 15:56 15,2 C 18,9 C 80 % 1006,5 hPa 0,0 l/m 5,9 km/h (2 Bft) W-SW 237 0 min 0,000 mm 0,7 UV-I 146 W/m 11,8 C 15,2 C 9,7 km/h (2 Bft) 100,00 %
10.09.2017 15:58 15,2 C 18,9 C 79 % 1006,5 hPa 0,0 l/m 5,7 km/h (1 Bft) W-SW 238 0 min 0,000 mm 0,7 UV-I 147 W/m 11,6 C 15,2 C 11,3 km/h (2 Bft) 98,00 %
10.09.2017 16:00 15,2 C 18,9 C 79 % 1006,5 hPa 0,0 l/m 4,9 km/h (1 Bft) W-SW 246 0 min 0,000 mm 0,7 UV-I 143 W/m 11,6 C 15,2 C 9,7 km/h (2 Bft) 100,00 %
10.09.2017 16:02 15,2 C 18,9 C 80 % 1006,5 hPa 0,0 l/m 4,7 km/h (1 Bft) S-SW 192 0 min 0,127 mm 0,7 UV-I 142 W/m 11,8 C 15,2 C 11,3 km/h (2 Bft) 100,00 %
10.09.2017 16:04 15,2 C 18,9 C 80 % 1006,5 hPa 0,0 l/m 4,8 km/h (1 Bft) W-SW 252 0 min 0,000 mm 0,7 UV-I 147 W/m 11,8 C 15,2 C 9,7 km/h (2 Bft) 98,18 %
10.09.2017 16:06 15,2 C 18,9 C 79 % 1006,4 hPa 0,0 l/m 6,3 km/h (2 Bft) W-SW 250 0 min 0,000 mm 0,7 UV-I 147 W/m 11,6 C 15,2 C 9,7 km/h (2 Bft) 97,87 %
10.09.2017 16:08 15,2 C 18,9 C 79 % 1006,4 hPa 0,0 l/m 6,1 km/h (2 Bft) W-SW 252 0 min 0,000 mm 0,6 UV-I 140 W/m 11,6 C 15,2 C 9,7 km/h (2 Bft) 100,00 %
10.09.2017 16:10 15,1 C 18,9 C 79 % 1006,4 hPa 0,0 l/m 6,2 km/h (2 Bft) W-SW 237 0 min 0,000 mm 0,6 UV-I 132 W/m 11,5 C 15,1 C 9,7 km/h (2 Bft) 100,00 %
10.09.2017 16:12 15,1 C 18,9 C 80 % 1006,4 hPa 0,0 l/m 7,2 km/h (2 Bft) SW 224 0 min 0,000 mm 0,5 UV-I 121 W/m 11,7 C 14,6 C 9,7 km/h (2 Bft) 100,00 %
10.09.2017 16:14 15,1 C 18,9 C 80 % 1006,4 hPa 0,0 l/m 6,3 km/h (2 Bft) W-SW 246 0 min 0,000 mm 0,5 UV-I 114 W/m 11,7 C 15,1 C 9,7 km/h (2 Bft) 100,00 %
10.09.2017 16:16 15,1 C 18,9 C 79 % 1006,4 hPa 0,0 l/m 5,8 km/h (2 Bft) SW 225 0 min 0,000 mm 0,5 UV-I 110 W/m 11,5 C 15,1 C 9,7 km/h (2 Bft) 100,00 %
10.09.2017 16:18 15,1 C 18,9 C 80 % 1006,4 hPa 0,0 l/m 5,8 km/h (2 Bft) SW 236 0 min 0,000 mm 0,2 UV-I 104 W/m 11,7 C 15,1 C 8,0 km/h (2 Bft) 100,00 %
10.09.2017 16:20 15,1 C 18,9 C 80 % 1006,4 hPa 0,0 l/m 5,7 km/h (1 Bft) SW 229 0 min 0,000 mm 0,0 UV-I 104 W/m 11,7 C 15,1 C 8,0 km/h (2 Bft) 100,00 %
10.09.2017 16:22 15,1 C 18,9 C 79 % 1006,3 hPa 0,0 l/m 3,6 km/h (1 Bft) W-SW 252 0 min 0,000 mm 0,4 UV-I 108 W/m 11,5 C 15,1 C 6,4 km/h (2 Bft) 100,00 %
10.09.2017 16:24 15,1 C 18,9 C 80 % 1006,3 hPa 0,0 l/m 2,9 km/h (1 Bft) W-SW 252 0 min 0,000 mm 0,5 UV-I 116 W/m 11,7 C 15,1 C 4,8 km/h (1 Bft) 100,00 %
10.09.2017 16:26 15,1 C 18,9 C 79 % 1006,2 hPa 0,0 l/m 3,2 km/h (1 Bft) W-SW 245 0 min 0,000 mm 0,5 UV-I 127 W/m 11,5 C 15,1 C 6,4 km/h (2 Bft) 100,00 %
10.09.2017 16:28 15,1 C 18,9 C 80 % 1006,2 hPa 0,0 l/m 4,8 km/h (1 Bft) W-SW 250 0 min 0,000 mm 0,6 UV-I 144 W/m 11,7 C 15,1 C 8,0 km/h (2 Bft) 100,00 %
10.09.2017 16:30 15,1 C 18,9 C 79 % 1006,2 hPa 0,0 l/m 4,1 km/h (1 Bft) W-SW 240 0 min 0,000 mm 0,6 UV-I 150 W/m 11,5 C 15,1 C 6,4 km/h (2 Bft) 100,00 %
10.09.2017 16:35 15,1 C 18,9 C 79 % 1006,2 hPa 0,0 l/m 4,8 km/h (1 Bft) W 270 0 min 0,000 mm 0,6 UV-I 151 W/m 11,5 C 15,1 C 6,4 km/h (2 Bft) 99,12 %
10.09.2017 16:37 15,1 C 18,9 C 79 % 1006,3 hPa 0,0 l/m 1,6 km/h (1 Bft) W 266 0 min 0,000 mm 0,6 UV-I 148 W/m 11,5 C 15,1 C 1,6 km/h (1 Bft) 100,00 %
10.09.2017 16:38 15,1 C 18,9 C 80 % 1006,3 hPa 0,0 l/m 4,7 km/h (1 Bft) W 268 0 min 0,000 mm 0,6 UV-I 158 W/m 11,7 C 15,1 C 6,4 km/h (2 Bft) 94,44 %
10.09.2017 16:40 15,1 C 18,9 C 79 % 1006,3 hPa 0,0 l/m 3,3 km/h (1 Bft) W-SW 252 0 min 0,000 mm 0,6 UV-I 160 W/m 11,5 C 15,1 C 6,4 km/h (2 Bft) 96,23 %
10.09.2017 16:42 15,1 C 18,9 C 79 % 1006,2 hPa 0,0 l/m 2,5 km/h (1 Bft) W-SW 252 0 min 0,000 mm 0,6 UV-I 156 W/m 11,5 C 15,1 C 4,8 km/h (1 Bft) 97,56 %
10.09.2017 16:44 15,1 C 18,9 C 80 % 1006,3 hPa 0,0 l/m 2,3 km/h (1 Bft) W-SW 252 0 min 0,000 mm 0,6 UV-I 152 W/m 11,7 C 15,1 C 4,8 km/h (1 Bft) 95,74 %
10.09.2017 16:45 15,1 C 18,9 C 80 % 1006,3 hPa 0,0 l/m 1,6 km/h (1 Bft) W-SW 247 0 min 0,000 mm 0,6 UV-I 153 W/m 11,7 C 15,1 C 4,8 km/h (1 Bft) 98,25 %
10.09.2017 16:48 15,0 C 18,9 C 79 % 1006,2 hPa 0,0 l/m 2,3 km/h (1 Bft) W-SW 252 0 min 0,000 mm 0,5 UV-I 144 W/m 11,4 C 15,0 C 3,2 km/h (1 Bft) 97,78 %
10.09.2017 16:50 15,1 C 18,9 C 80 % 1006,2 hPa 0,0 l/m 3,6 km/h (1 Bft) W 267 0 min 0,000 mm 0,5 UV-I 127 W/m 11,7 C 15,1 C 6,4 km/h (2 Bft) 96,23 %
10.09.2017 16:52 15,1 C 18,9 C 79 % 1006,3 hPa 0,0 l/m 3,5 km/h (1 Bft) W 267 0 min 0,000 mm 0,1 UV-I 120 W/m 11,5 C 15,1 C 4,8 km/h (1 Bft) 96,00 %
10.09.2017 16:54 15,1 C 18,9 C 79 % 1006,3 hPa 0,0 l/m 3,0 km/h (1 Bft) W 267 0 min 0,000 mm 0,0 UV-I 109 W/m 11,5 C 15,1 C 4,8 km/h (1 Bft) 94,74 %
10.09.2017 16:56 15,1 C 18,9 C 79 % 1006,4 hPa 0,0 l/m 4,6 km/h (1 Bft) W 265 0 min 0,000 mm 0,0 UV-I 94 W/m 11,5 C 15,1 C 6,4 km/h (2 Bft) 98,11 %
10.09.2017 16:58 15,0 C 18,9 C 79 % 1006,4 hPa 0,0 l/m 5,8 km/h (2 Bft) SW 232 0 min 0,000 mm 0,0 UV-I 89 W/m 11,4 C 15,0 C 9,7 km/h (2 Bft) 97,87 %
10.09.2017 17:00 15,0 C 18,9 C 79 % 1006,4 hPa 0,0 l/m 4,7 km/h (1 Bft) SW 228 0 min 0,076 mm 0,0 UV-I 83 W/m 11,4 C 15,0 C 6,4 km/h (2 Bft) 95,74 %
10.09.2017 17:02 15,0 C 18,9 C 79 % 1006,4 hPa 0,0 l/m 3,2 km/h (1 Bft) SW 229 0 min 0,000 mm 0,0 UV-I 75 W/m 11,4 C 15,0 C 4,8 km/h (1 Bft) 97,92 %
10.09.2017 17:04 15,0 C 18,9 C 80 % 1006,3 hPa 0,0 l/m 4,0 km/h (1 Bft) W-SW 239 0 min 0,000 mm 0,0 UV-I 72 W/m 11,6 C 15,0 C 4,8 km/h (1 Bft) 97,56 %
10.09.2017 17:06 15,0 C 18,9 C 80 % 1006,3 hPa 0,0 l/m 2,5 km/h (1 Bft) W 280 0 min 0,000 mm 0,0 UV-I 72 W/m 11,6 C 15,0 C 4,8 km/h (1 Bft) 96,23 %
10.09.2017 17:08 15,0 C 18,9 C 80 % 1006,3 hPa 0,0 l/m 1,1 km/h (1 Bft) W 280 0 min 0,000 mm 0,0 UV-I 71 W/m 11,6 C 15,0 C 3,2 km/h (1 Bft) 97,56 %
10.09.2017 17:10 14,9 C 18,9 C 81 % 1006,4 hPa 0,0 l/m 3,1 km/h (1 Bft) W 260 0 min 0,000 mm 0,0 UV-I 70 W/m 11,7 C 14,9 C 4,8 km/h (1 Bft) 100,00 %
10.09.2017 17:12 14,9 C 18,9 C 80 % 1006,4 hPa 0,0 l/m 3,7 km/h (1 Bft) SW 221 0 min 0,000 mm 0,0 UV-I 74 W/m 11,5 C 14,9 C 6,4 km/h (2 Bft) 100,00 %
10.09.2017 17:14 14,9 C 18,9 C 80 % 1006,4 hPa 0,0 l/m 2,9 km/h (1 Bft) SW 221 0 min 0,000 mm 0,0 UV-I 76 W/m 11,5 C 14,9 C 4,8 km/h (1 Bft) 98,00 %
10.09.2017 17:16 14,9 C 18,9 C 80 % 1006,5 hPa 0,0 l/m 4,1 km/h (1 Bft) S-SW 212 0 min 0,000 mm 0,0 UV-I 72 W/m 11,5 C 14,9 C 6,4 km/h (2 Bft) 97,87 %
10.09.2017 17:18 14,9 C 18,9 C 81 % 1006,5 hPa 0,0 l/m 2,8 km/h (1 Bft) S-SW 212 0 min 0,000 mm 0,0 UV-I 66 W/m 11,7 C 14,9 C 6,4 km/h (2 Bft) 100,00 %
10.09.2017 17:20 14,9 C 18,9 C 81 % 1006,5 hPa 0,0 l/m 2,6 km/h (1 Bft) S-SW 212 0 min 0,000 mm 0,0 UV-I 62 W/m 11,7 C 14,9 C 4,8 km/h (1 Bft) 100,00 %
10.09.2017 17:22 14,9 C 18,9 C 80 % 1006,4 hPa 0,0 l/m 3,1 km/h (1 Bft) W 269 0 min 0,000 mm 0,0 UV-I 61 W/m 11,5 C 14,9 C 4,8 km/h (1 Bft) 100,00 %
10.09.2017 17:24 14,9 C 18,9 C 81 % 1006,3 hPa 0,0 l/m 0,8 km/h (0 Bft) W 269 0 min 0,000 mm 0,0 UV-I 62 W/m 11,7 C 14,9 C 3,2 km/h (1 Bft) 97,56 %
10.09.2017 17:26 14,9 C 18,9 C 82 % 1006,4 hPa 0,0 l/m 2,5 km/h (1 Bft) W 269 0 min 0,000 mm 0,0 UV-I 61 W/m 11,9 C 14,9 C 3,2 km/h (1 Bft) 100,00 %
10.09.2017 17:28 14,9 C 18,9 C 81 % 1006,4 hPa 0,0 l/m 3,1 km/h (1 Bft) W 269 0 min 0,000 mm 0,0 UV-I 57 W/m 11,7 C 14,9 C 4,8 km/h (1 Bft) 100,00 %
10.09.2017 17:30 14,9 C 18,9 C 81 % 1006,4 hPa 0,0 l/m 3,4 km/h (1 Bft) W 267 0 min 0,000 mm 0,0 UV-I 55 W/m 11,7 C 14,9 C 4,8 km/h (1 Bft) 97,87 %
10.09.2017 17:32 14,9 C 18,9 C 80 % 1006,4 hPa 0,0 l/m 3,3 km/h (1 Bft) W-SW 255 0 min 0,000 mm 0,0 UV-I 54 W/m 11,5 C 14,9 C 6,4 km/h (2 Bft) 100,00 %
10.09.2017 17:34 14,9 C 18,9 C 81 % 1006,4 hPa 0,0 l/m 4,3 km/h (1 Bft) W-SW 256 0 min 0,000 mm 0,0 UV-I 52 W/m 11,7 C 14,9 C 6,4 km/h (2 Bft) 98,00 %
10.09.2017 17:36 14,8 C 18,9 C 81 % 1006,3 hPa 0,0 l/m 2,9 km/h (1 Bft) W-SW 256 0 min 0,000 mm 0,0 UV-I 48 W/m 11,6 C 14,8 C 4,8 km/h (1 Bft) 100,00 %
10.09.2017 17:38 14,8 C 18,9 C 81 % 1006,4 hPa 0,0 l/m 2,2 km/h (1 Bft) W-SW 256 0 min 0,000 mm 0,0 UV-I 44 W/m 11,6 C 14,8 C 4,8 km/h (1 Bft) 100,00 %
10.09.2017 17:40 14,8 C 18,9 C 82 % 1006,3 hPa 0,0 l/m 2,4 km/h (1 Bft) W-SW 256 0 min 0,000 mm 0,0 UV-I 39 W/m 11,8 C 14,8 C 3,2 km/h (1 Bft) 98,08 %
10.09.2017 17:42 14,8 C 18,9 C 83 % 1006,4 hPa 0,0 l/m 3,3 km/h (1 Bft) W-SW 255 0 min 0,000 mm 0,0 UV-I 36 W/m 11,9 C 14,8 C 4,8 km/h (1 Bft) 100,00 %
10.09.2017 17:44 14,8 C 18,9 C 83 % 1006,5 hPa 0,0 l/m 3,0 km/h (1 Bft) W-SW 250 0 min 0,000 mm 0,0 UV-I 34 W/m 11,9 C 14,8 C 4,8 km/h (1 Bft) 100,00 %
10.09.2017 17:46 14,7 C 18,9 C 84 % 1006,4 hPa 0,0 l/m 4,6 km/h (1 Bft) S-SW 211 0 min 0,000 mm 0,0 UV-I 33 W/m 12,0 C 14,7 C 6,4 km/h (2 Bft) 100,00 %
10.09.2017 17:48 14,7 C 18,9 C 84 % 1006,4 hPa 0,0 l/m 5,2 km/h (1 Bft) SW 217 0 min 0,000 mm 0,0 UV-I 35 W/m 12,0 C 14,7 C 6,4 km/h (2 Bft) 100,00 %
10.09.2017 17:50 14,6 C 18,9 C 84 % 1006,4 hPa 0,0 l/m 4,0 km/h (1 Bft) SW 217 0 min 0,000 mm 0,0 UV-I 39 W/m 11,9 C 14,6 C 6,4 km/h (2 Bft) 100,00 %
10.09.2017 17:52 14,6 C 18,9 C 84 % 1006,4 hPa 0,0 l/m 3,8 km/h (1 Bft) SW 221 0 min 0,000 mm 0,0 UV-I 42 W/m 11,9 C 14,6 C 6,4 km/h (2 Bft) 100,00 %
10.09.2017 17:54 14,6 C 18,9 C 85 % 1006,4 hPa 0,0 l/m 2,5 km/h (1 Bft) SW 221 0 min 0,000 mm 0,0 UV-I 45 W/m 12,1 C 14,6 C 3,2 km/h (1 Bft) 98,11 %
10.09.2017 17:56 14,5 C 18,9 C 85 % 1006,4 hPa 0,0 l/m 4,5 km/h (1 Bft) SW 221 0 min 0,000 mm 0,0 UV-I 46 W/m 12,0 C 14,5 C 6,4 km/h (2 Bft) 100,00 %
10.09.2017 17:58 14,5 C 18,9 C 86 % 1006,5 hPa 0,0 l/m 3,2 km/h (1 Bft) SW 221 0 min 0,000 mm 0,0 UV-I 46 W/m 12,2 C 14,5 C 4,8 km/h (1 Bft) 100,00 %
10.09.2017 18:00 14,5 C 18,9 C 86 % 1006,5 hPa 0,0 l/m 2,6 km/h (1 Bft) SW 221 0 min 0,000 mm 0,0 UV-I 49 W/m 12,2 C 14,5 C 4,8 km/h (1 Bft) 100,00 %
10.09.2017 18:02 14,5 C 18,9 C 86 % 1006,5 hPa 0,0 l/m 1,9 km/h (1 Bft) SW 221 0 min 0,026 mm 0,0 UV-I 55 W/m 12,2 C 14,5 C 3,2 km/h (1 Bft) 100,00 %
10.09.2017 18:04 14,5 C 18,9 C 86 % 1006,4 hPa 0,0 l/m 3,3 km/h (1 Bft) W-SW 258 0 min 0,000 mm 0,0 UV-I 55 W/m 12,2 C 14,5 C 4,8 km/h (1 Bft) 100,00 %
10.09.2017 18:06 14,6 C 18,9 C 86 % 1006,4 hPa 0,0 l/m 3,3 km/h (1 Bft) W-SW 257 0 min 0,000 mm 0,0 UV-I 49 W/m 12,3 C 14,6 C 4,8 km/h (1 Bft) 100,00 %
10.09.2017 18:08 14,5 C 18,9 C 87 % 1006,5 hPa 0,0 l/m 3,9 km/h (1 Bft) W-SW 244 0 min 0,000 mm 0,0 UV-I 46 W/m 12,4 C 14,5 C 6,4 km/h (2 Bft) 100,00 %
10.09.2017 18:10 14,6 C 18,9 C 87 % 1006,4 hPa 0,0 l/m 2,9 km/h (1 Bft) W 263 0 min 0,000 mm 0,0 UV-I 46 W/m 12,5 C 14,6 C 4,8 km/h (1 Bft) 94,64 %
10.09.2017 18:12 14,6 C 18,9 C 87 % 1006,4 hPa 0,0 l/m 3,2 km/h (1 Bft) W 264 0 min 0,000 mm 0,0 UV-I 46 W/m 12,5 C 14,6 C 4,8 km/h (1 Bft) 100,00 %
10.09.2017 18:14 14,5 C 18,9 C 86 % 1006,4 hPa 0,0 l/m 3,7 km/h (1 Bft) W-SW 239 0 min 0,000 mm 0,0 UV-I 43 W/m 12,2 C 14,5 C 4,8 km/h (1 Bft) 96,36 %
10.09.2017 18:16 14,4 C 18,9 C 86 % 1006,4 hPa 0,0 l/m 3,6 km/h (1 Bft) W 280 0 min 0,000 mm 0,0 UV-I 39 W/m 12,1 C 14,4 C 4,8 km/h (1 Bft) 97,87 %
10.09.2017 18:18 14,4 C 18,9 C 86 % 1006,4 hPa 0,0 l/m 3,0 km/h (1 Bft) W-SW 258 0 min 0,000 mm 0,0 UV-I 39 W/m 12,1 C 14,4 C 4,8 km/h (1 Bft) 98,00 %
10.09.2017 18:20 14,4 C 18,9 C 87 % 1006,4 hPa 0,0 l/m 3,5 km/h (1 Bft) W 275 0 min 0,000 mm 0,0 UV-I 37 W/m 12,3 C 14,4 C 4,8 km/h (1 Bft) 97,78 %
10.09.2017 18:22 14,4 C 18,9 C 87 % 1006,4 hPa 0,0 l/m 2,6 km/h (1 Bft) W 267 0 min 0,000 mm 0,0 UV-I 35 W/m 12,3 C 14,4 C 4,8 km/h (1 Bft) 97,56 %
10.09.2017 18:24 14,3 C 18,9 C 87 % 1006,4 hPa 0,0 l/m 3,8 km/h (1 Bft) W-SW 246 0 min 0,000 mm 0,0 UV-I 34 W/m 12,2 C 14,3 C 6,4 km/h (2 Bft) 95,74 %
10.09.2017 18:26 14,3 C 18,9 C 86 % 1006,4 hPa 0,0 l/m 3,7 km/h (1 Bft) W 264 0 min 0,000 mm 0,0 UV-I 33 W/m 12,0 C 14,3 C 6,4 km/h (2 Bft) 96,00 %
10.09.2017 18:28 14,3 C 18,9 C 87 % 1006,5 hPa 0,0 l/m 2,9 km/h (1 Bft) W-SW 245 0 min 0,000 mm 0,0 UV-I 32 W/m 12,2 C 14,3 C 8,0 km/h (2 Bft) 98,00 %
10.09.2017 18:30 14,3 C 18,9 C 87 % 1006,4 hPa 0,0 l/m 4,0 km/h (1 Bft) W 266 0 min 0,000 mm 0,0 UV-I 32 W/m 12,2 C 14,3 C 6,4 km/h (2 Bft) 98,00 %
10.09.2017 18:32 14,3 C 18,9 C 87 % 1006,5 hPa 0,0 l/m 3,2 km/h (1 Bft) W 265 0 min 0,000 mm 0,0 UV-I 30 W/m 12,2 C 14,3 C 4,8 km/h (1 Bft) 100,00 %
10.09.2017 18:34 14,3 C 18,9 C 87 % 1006,5 hPa 0,0 l/m 3,1 km/h (1 Bft) W 265 0 min 0,000 mm 0,0 UV-I 31 W/m 12,2 C 14,3 C 4,8 km/h (1 Bft) 94,00 %
10.09.2017 18:36 14,3 C 18,9 C 87 % 1006,5 hPa 0,0 l/m 4,2 km/h (1 Bft) W-SW 257 0 min 0,000 mm 0,0 UV-I 32 W/m 12,2 C 14,3 C 6,4 km/h (2 Bft) 95,12 %
10.09.2017 18:38 14,2 C 18,9 C 87 % 1006,5 hPa 0,0 l/m 4,8 km/h (1 Bft) W-SW 240 0 min 0,000 mm 0,0 UV-I 32 W/m 12,1 C 14,2 C 8,0 km/h (2 Bft) 95,45 %
10.09.2017 18:40 14,2 C 18,9 C 87 % 1006,4 hPa 0,0 l/m 3,6 km/h (1 Bft) W-SW 242 0 min 0,000 mm 0,0 UV-I 33 W/m 12,1 C 14,2 C 4,8 km/h (1 Bft) 96,00 %
10.09.2017 18:42 14,2 C 18,9 C 87 % 1006,4 hPa 0,0 l/m 4,0 km/h (1 Bft) W-SW 249 0 min 0,000 mm 0,0 UV-I 33 W/m 12,1 C 14,2 C 6,4 km/h (2 Bft) 95,12 %
10.09.2017 18:44 14,2 C 18,9 C 87 % 1006,3 hPa 0,0 l/m 2,5 km/h (1 Bft) W 263 0 min 0,000 mm 0,0 UV-I 32 W/m 12,1 C 14,2 C 4,8 km/h (1 Bft) 94,34 %
10.09.2017 18:46 14,1 C 18,9 C 87 % 1006,4 hPa 0,0 l/m 4,7 km/h (1 Bft) W-SW 244 0 min 0,000 mm 0,0 UV-I 29 W/m 12,0 C 14,1 C 6,4 km/h (2 Bft) 94,00 %
10.09.2017 18:48 14,1 C 18,9 C 87 % 1006,4 hPa 0,0 l/m 4,1 km/h (1 Bft) W-SW 246 0 min 0,000 mm 0,0 UV-I 28 W/m 12,0 C 14,1 C 6,4 km/h (2 Bft) 94,74 %
10.09.2017 18:50 14,1 C 18,9 C 87 % 1006,4 hPa 0,0 l/m 5,0 km/h (1 Bft) W 265 0 min 0,000 mm 0,0 UV-I 29 W/m 12,0 C 14,1 C 8,0 km/h (2 Bft) 94,64 %
10.09.2017 18:52 14,1 C 18,9 C 88 % 1006,3 hPa 0,0 l/m 5,2 km/h (1 Bft) W-SW 249 0 min 0,000 mm 0,0 UV-I 31 W/m 12,1 C 14,1 C 8,0 km/h (2 Bft) 96,00 %
10.09.2017 18:54 14,1 C 18,9 C 88 % 1006,2 hPa 0,0 l/m 4,7 km/h (1 Bft) W-SW 250 0 min 0,000 mm 0,0 UV-I 32 W/m 12,1 C 14,1 C 6,4 km/h (2 Bft) 94,44 %
10.09.2017 18:56 14,1 C 18,9 C 88 % 1006,3 hPa 0,0 l/m 4,5 km/h (1 Bft) W-SW 246 0 min 0,000 mm 0,0 UV-I 30 W/m 12,1 C 14,1 C 8,0 km/h (2 Bft) 94,12 %
10.09.2017 18:58 14,0 C 18,9 C 88 % 1006,3 hPa 0,0 l/m 4,7 km/h (1 Bft) W 259 0 min 0,000 mm 0,0 UV-I 29 W/m 12,0 C 14,0 C 8,0 km/h (2 Bft) 94,00 %
10.09.2017 19:00 14,0 C 18,9 C 88 % 1006,2 hPa 0,0 l/m 3,5 km/h (1 Bft) W 275 0 min 0,000 mm 0,0 UV-I 27 W/m 12,0 C 14,0 C 4,8 km/h (1 Bft) 95,12 %
10.09.2017 19:02 14,0 C 18,9 C 88 % 1006,2 hPa 0,0 l/m 4,3 km/h (1 Bft) W 262 0 min 0,025 mm 0,0 UV-I 25 W/m 12,0 C 14,0 C 6,4 km/h (2 Bft) 96,23 %
10.09.2017 19:04 13,9 C 18,9 C 88 % 1006,2 hPa 0,0 l/m 4,3 km/h (1 Bft) W 267 0 min 0,000 mm 0,0 UV-I 23 W/m 11,9 C 13,9 C 6,4 km/h (2 Bft) 96,00 %
10.09.2017 19:06 13,9 C 18,9 C 88 % 1006,2 hPa 0,0 l/m 6,4 km/h (2 Bft) W 265 0 min 0,000 mm 0,0 UV-I 23 W/m 11,9 C 13,9 C 11,3 km/h (2 Bft) 94,74 %
10.09.2017 19:08 13,9 C 18,9 C 88 % 1006,2 hPa 0,0 l/m 3,4 km/h (1 Bft) W 259 2 min 0,000 mm 0,0 UV-I 22 W/m 11,9 C 13,9 C 6,4 km/h (2 Bft) 94,34 %
10.09.2017 19:10 13,9 C 18,9 C 88 % 1006,1 hPa 0,0 l/m 4,2 km/h (1 Bft) W 268 2 min 0,000 mm 0,0 UV-I 22 W/m 11,9 C 13,9 C 9,7 km/h (2 Bft) 100,00 %
10.09.2017 19:12 13,8 C 18,9 C 88 % 1006,1 hPa 0,0 l/m 4,7 km/h (1 Bft) W-NW 283 2 min 0,000 mm 0,0 UV-I 19 W/m 11,8 C 13,8 C 8,0 km/h (2 Bft) 96,00 %
10.09.2017 19:14 13,8 C 18,9 C 88 % 1006,1 hPa 0,0 l/m 3,1 km/h (1 Bft) SW 232 2 min 0,000 mm 0,0 UV-I 19 W/m 11,8 C 13,8 C 4,8 km/h (1 Bft) 100,00 %
10.09.2017 19:16 13,8 C 18,9 C 87 % 1006,1 hPa 0,0 l/m 3,7 km/h (1 Bft) W-SW 238 2 min 0,000 mm 0,0 UV-I 16 W/m 11,7 C 13,8 C 6,4 km/h (2 Bft) 100,00 %
10.09.2017 19:18 13,8 C 18,9 C 88 % 1006,1 hPa 0,0 l/m 4,0 km/h (1 Bft) W-SW 258 0 min 0,000 mm 0,0 UV-I 14 W/m 11,8 C 13,8 C 6,4 km/h (2 Bft) 100,00 %
10.09.2017 19:20 13,8 C 18,9 C 88 % 1006,2 hPa 0,0 l/m 2,6 km/h (1 Bft) W-SW 258 0 min 0,000 mm 0,0 UV-I 14 W/m 11,8 C 13,8 C 4,8 km/h (1 Bft) 100,00 %
10.09.2017 19:22 13,7 C 18,9 C 88 % 1006,2 hPa 0,0 l/m 1,9 km/h (1 Bft) W-SW 258 0 min 0,000 mm 0,0 UV-I 13 W/m 11,7 C 13,7 C 3,2 km/h (1 Bft) 100,00 %
10.09.2017 19:24 13,7 C 18,9 C 88 % 1006,2 hPa 0,0 l/m 1,3 km/h (1 Bft) W-SW 258 0 min 0,000 mm 0,0 UV-I 12 W/m 11,7 C 13,7 C 3,2 km/h (1 Bft) 100,00 %
10.09.2017 19:26 13,7 C 18,9 C 88 % 1006,2 hPa 0,0 l/m 2,4 km/h (1 Bft) W 280 0 min 0,000 mm 0,0 UV-I 12 W/m 11,7 C 13,7 C 4,8 km/h (1 Bft) 98,00 %
10.09.2017 19:28 13,7 C 18,9 C 88 % 1006,2 hPa 0,0 l/m 2,8 km/h (1 Bft) W-NW 287 0 min 0,000 mm 0,0 UV-I 12 W/m 11,7 C 13,7 C 4,8 km/h (1 Bft) 100,00 %
10.09.2017 19:30 13,7 C 18,9 C 88 % 1006,3 hPa 0,0 l/m 3,0 km/h (1 Bft) W 277 0 min 0,000 mm 0,0 UV-I 12 W/m 11,7 C 13,7 C 6,4 km/h (2 Bft) 100,00 %
10.09.2017 19:32 13,7 C 18,9 C 88 % 1006,2 hPa 0,0 l/m 3,3 km/h (1 Bft) W 261 0 min 0,000 mm 0,0 UV-I 11 W/m 11,7 C 13,7 C 6,4 km/h (2 Bft) 100,00 %
10.09.2017 19:34 13,7 C 18,9 C 88 % 1006,3 hPa 0,0 l/m 2,5 km/h (1 Bft) W 261 0 min 0,000 mm 0,0 UV-I 10 W/m 11,7 C 13,7 C 4,8 km/h (1 Bft) 100,00 %
10.09.2017 19:36 13,6 C 18,9 C 88 % 1006,3 hPa 0,0 l/m 2,7 km/h (1 Bft) W-SW 245 0 min 0,000 mm 0,0 UV-I 8 W/m 11,6 C 13,6 C 4,8 km/h (1 Bft) 100,00 %
10.09.2017 19:38 13,6 C 18,9 C 88 % 1006,4 hPa 0,0 l/m 3,2 km/h (1 Bft) W 279 0 min 0,000 mm 0,0 UV-I 6 W/m 11,6 C 13,6 C 6,4 km/h (2 Bft) 100,00 %
10.09.2017 19:40 13,6 C 18,9 C 89 % 1006,4 hPa 0,0 l/m 3,5 km/h (1 Bft) W 260 0 min 0,000 mm 0,0 UV-I 1 W/m 11,8 C 13,6 C 9,7 km/h (2 Bft) 100,00 %
10.09.2017 19:42 13,6 C 18,9 C 89 % 1006,5 hPa 0,0 l/m 4,2 km/h (1 Bft) W-SW 254 0 min 0,000 mm 0,0 UV-I 0 W/m 11,8 C 13,6 C 6,4 km/h (2 Bft) 98,00 %
10.09.2017 19:44 13,6 C 18,9 C 89 % 1006,5 hPa 0,0 l/m 3,2 km/h (1 Bft) W-SW 257 0 min 0,000 mm 0,0 UV-I 0 W/m 11,8 C 13,6 C 4,8 km/h (1 Bft) 100,00 %
10.09.2017 19:46 13,6 C 18,9 C 89 % 1006,5 hPa 0,0 l/m 3,1 km/h (1 Bft) W 271 0 min 0,000 mm 0,0 UV-I 0 W/m 11,8 C 13,6 C 9,7 km/h (2 Bft) 100,00 %
10.09.2017 19:48 13,6 C 18,9 C 89 % 1006,5 hPa 0,0 l/m 3,0 km/h (1 Bft) W 271 0 min 0,000 mm 0,0 UV-I 0 W/m 11,8 C 13,6 C 4,8 km/h (1 Bft) 100,00 %
10.09.2017 19:50 13,6 C 18,9 C 89 % 1006,5 hPa 0,0 l/m 3,6 km/h (1 Bft) W-SW 240 0 min 0,000 mm 0,0 UV-I 0 W/m 11,8 C 13,6 C 6,4 km/h (2 Bft) 100,00 %
10.09.2017 19:52 13,6 C 18,9 C 90 % 1006,6 hPa 0,0 l/m 3,7 km/h (1 Bft) W-SW 257 0 min 0,000 mm 0,0 UV-I 0 W/m 12,0 C 13,6 C 4,8 km/h (1 Bft) 97,14 %
10.09.2017 19:54 13,6 C 18,9 C 90 % 1006,5 hPa 0,0 l/m 2,9 km/h (1 Bft) W-SW 257 0 min 0,000 mm 0,0 UV-I 0 W/m 12,0 C 13,6 C 4,8 km/h (1 Bft) 100,00 %
10.09.2017 19:56 13,6 C 18,9 C 90 % 1006,6 hPa 0,0 l/m 3,7 km/h (1 Bft) W 262 0 min 0,000 mm 0,0 UV-I 0 W/m 12,0 C 13,6 C 6,4 km/h (2 Bft) 97,56 %
10.09.2017 19:58 13,6 C 18,9 C 90 % 1006,6 hPa 0,0 l/m 4,9 km/h (1 Bft) W-SW 255 0 min 0,000 mm 0,0 UV-I 0 W/m 12,0 C 13,6 C 8,0 km/h (2 Bft) 100,00 %
10.09.2017 20:00 13,6 C 18,9 C 90 % 1006,6 hPa 0,0 l/m 4,3 km/h (1 Bft) W 271 0 min 0,000 mm 0,0 UV-I 0 W/m 12,0 C 13,6 C 6,4 km/h (2 Bft) 100,00 %
10.09.2017 20:02 13,6 C 18,9 C 90 % 1006,6 hPa 0,0 l/m 5,4 km/h (1 Bft) W-SW 242 0 min 0,000 mm 0,0 UV-I 0 W/m 12,0 C 13,6 C 9,7 km/h (2 Bft) 100,00 %
10.09.2017 20:04 13,6 C 18,9 C 90 % 1006,7 hPa 0,0 l/m 6,2 km/h (2 Bft) W-NW 285 0 min 0,000 mm 0,0 UV-I 0 W/m 12,0 C 13,6 C 8,0 km/h (2 Bft) 100,00 %
10.09.2017 20:06 13,6 C 18,9 C 90 % 1006,7 hPa 0,0 l/m 3,1 km/h (1 Bft) W-SW 253 0 min 0,000 mm 0,0 UV-I 0 W/m 12,0 C 13,6 C 4,8 km/h (1 Bft) 97,56 %
10.09.2017 20:08 13,6 C 18,9 C 90 % 1006,8 hPa 0,0 l/m 3,8 km/h (1 Bft) W 271 0 min 0,000 mm 0,0 UV-I 0 W/m 12,0 C 13,6 C 6,4 km/h (2 Bft) 100,00 %
10.09.2017 20:10 13,6 C 18,9 C 90 % 1006,8 hPa 0,0 l/m 4,3 km/h (1 Bft) W 259 0 min 0,000 mm 0,0 UV-I 0 W/m 12,0 C 13,6 C 6,4 km/h (2 Bft) 97,87 %
10.09.2017 20:12 13,6 C 18,9 C 91 % 1006,8 hPa 0,0 l/m 2,2 km/h (1 Bft) W 259 0 min 0,000 mm 0,0 UV-I 0 W/m 12,2 C 13,6 C 3,2 km/h (1 Bft) 100,00 %
10.09.2017 20:14 13,6 C 18,9 C 91 % 1006,8 hPa 0,0 l/m 4,0 km/h (1 Bft) W 259 0 min 0,000 mm 0,0 UV-I 0 W/m 12,2 C 13,6 C 6,4 km/h (2 Bft) 100,00 %
10.09.2017 20:16 13,6 C 18,9 C 91 % 1006,9 hPa 0,0 l/m 3,4 km/h (1 Bft) W 259 0 min 0,000 mm 0,0 UV-I 0 W/m 12,2 C 13,6 C 4,8 km/h (1 Bft) 100,00 %
10.09.2017 20:18 13,6 C 18,9 C 91 % 1006,9 hPa 0,0 l/m 3,1 km/h (1 Bft) W 259 0 min 0,000 mm 0,0 UV-I 0 W/m 12,2 C 13,6 C 6,4 km/h (2 Bft) 100,00 %
10.09.2017 20:20 13,6 C 18,9 C 91 % 1006,9 hPa 0,0 l/m 3,9 km/h (1 Bft) W 259 0 min 0,000 mm 0,0 UV-I 0 W/m 12,2 C 13,6 C 6,4 km/h (2 Bft) 100,00 %
10.09.2017 20:22 13,6 C 18,9 C 91 % 1006,9 hPa 0,0 l/m 4,1 km/h (1 Bft) W 259 0 min 0,000 mm 0,0 UV-I 0 W/m 12,2 C 13,6 C 6,4 km/h (2 Bft) 100,00 %
10.09.2017 20:24 13,6 C 18,9 C 91 % 1006,9 hPa 0,0 l/m 3,1 km/h (1 Bft) W-NW 286 0 min 0,000 mm 0,0 UV-I 0 W/m 12,2 C 13,6 C 4,8 km/h (1 Bft) 96,00 %
10.09.2017 20:26 13,6 C 18,9 C 91 % 1007,0 hPa 0,0 l/m 4,2 km/h (1 Bft) W 275 0 min 0,000 mm 0,0 UV-I 0 W/m 12,2 C 13,6 C 6,4 km/h (2 Bft) 100,00 %
10.09.2017 20:28 13,5 C 18,9 C 91 % 1007,0 hPa 0,0 l/m 4,3 km/h (1 Bft) W-SW 240 0 min 0,000 mm 0,0 UV-I 0 W/m 12,1 C 13,5 C 6,4 km/h (2 Bft) 98,00 %
10.09.2017 20:30 13,5 C 18,9 C 91 % 1007,0 hPa 0,0 l/m 5,6 km/h (1 Bft) W-SW 246 0 min 0,000 mm 0,0 UV-I 0 W/m 12,1 C 13,5 C 9,7 km/h (2 Bft) 100,00 %
10.09.2017 20:32 13,5 C 18,9 C 91 % 1007,1 hPa 0,0 l/m 3,9 km/h (1 Bft) W 269 0 min 0,000 mm 0,0 UV-I 0 W/m 12,1 C 13,5 C 6,4 km/h (2 Bft) 98,11 %
10.09.2017 20:34 13,5 C 18,9 C 91 % 1007,0 hPa 0,0 l/m 4,8 km/h (1 Bft) W-SW 253 0 min 0,000 mm 0,0 UV-I 0 W/m 12,1 C 13,5 C 8,0 km/h (2 Bft) 100,00 %
10.09.2017 20:36 13,4 C 18,9 C 91 % 1007,0 hPa 0,0 l/m 5,5 km/h (1 Bft) W 263 0 min 0,000 mm 0,0 UV-I 0 W/m 12,0 C 13,4 C 9,7 km/h (2 Bft) 96,00 %
10.09.2017 20:38 13,4 C 18,9 C 91 % 1007,0 hPa 0,0 l/m 4,1 km/h (1 Bft) W-SW 256 0 min 0,000 mm 0,0 UV-I 0 W/m 12,0 C 13,4 C 6,4 km/h (2 Bft) 98,00 %
10.09.2017 20:40 13,4 C 18,9 C 91 % 1007,1 hPa 0,0 l/m 4,7 km/h (1 Bft) W-SW 250 0 min 0,000 mm 0,0 UV-I 0 W/m 12,0 C 13,4 C 6,4 km/h (2 Bft) 97,87 %
10.09.2017 20:42 13,4 C 18,9 C 91 % 1007,1 hPa 0,0 l/m 3,7 km/h (1 Bft) W 271 0 min 0,000 mm 0,0 UV-I 0 W/m 12,0 C 13,4 C 6,4 km/h (2 Bft) 97,56 %
10.09.2017 20:44 13,4 C 18,9 C 91 % 1007,1 hPa 0,0 l/m 2,0 km/h (1 Bft) W-NW 290 0 min 0,000 mm 0,0 UV-I 0 W/m 12,0 C 13,4 C 4,8 km/h (1 Bft) 97,73 %
10.09.2017 20:46 13,4 C 18,9 C 91 % 1007,0 hPa 0,0 l/m 3,2 km/h (1 Bft) W-NW 290 0 min 0,000 mm 0,0 UV-I 0 W/m 12,0 C 13,4 C 4,8 km/h (1 Bft) 98,21 %
10.09.2017 20:48 13,4 C 18,9 C 91 % 1007,0 hPa 0,0 l/m 4,0 km/h (1 Bft) W 261 0 min 0,000 mm 0,0 UV-I 0 W/m 12,0 C 13,4 C 6,4 km/h (2 Bft) 97,56 %
10.09.2017 20:50 13,4 C 18,9 C 91 % 1007,1 hPa 0,0 l/m 3,3 km/h (1 Bft) W 261 0 min 0,000 mm 0,0 UV-I 0 W/m 12,0 C 13,4 C 4,8 km/h (1 Bft) 96,23 %
10.09.2017 20:52 13,4 C 18,9 C 91 % 1007,0 hPa 0,0 l/m 2,9 km/h (1 Bft) W 261 0 min 0,000 mm 0,0 UV-I 0 W/m 12,0 C 13,4 C 3,2 km/h (1 Bft) 97,87 %
10.09.2017 20:54 13,4 C 18,9 C 91 % 1007,0 hPa 0,0 l/m 3,9 km/h (1 Bft) W 265 0 min 0,000 mm 0,0 UV-I 0 W/m 12,0 C 13,4 C 6,4 km/h (2 Bft) 97,22 %
10.09.2017 20:56 13,4 C 18,9 C 91 % 1007,0 hPa 0,0 l/m 3,5 km/h (1 Bft) W 270 0 min 0,000 mm 0,0 UV-I 0 W/m 12,0 C 13,4 C 4,8 km/h (1 Bft) 100,00 %
10.09.2017 20:58 13,4 C 18,9 C 91 % 1007,0 hPa 0,0 l/m 2,6 km/h (1 Bft) W-NW 294 0 min 0,000 mm 0,0 UV-I 0 W/m 12,0 C 13,4 C 4,8 km/h (1 Bft) 96,61 %
10.09.2017 21:00 13,4 C 18,9 C 91 % 1006,9 hPa 0,0 l/m 2,4 km/h (1 Bft) W-NW 292 0 min 0,000 mm 0,0 UV-I 0 W/m 12,0 C 13,4 C 4,8 km/h (1 Bft) 98,11 %
10.09.2017 21:02 13,4 C 18,9 C 91 % 1007,0 hPa 0,0 l/m 2,6 km/h (1 Bft) W-NW 292 0 min 0,000 mm 0,0 UV-I 0 W/m 12,0 C 13,4 C 3,2 km/h (1 Bft) 97,56 %
10.09.2017 21:04 13,3 C 18,9 C 91 % 1007,0 hPa 0,0 l/m 2,5 km/h (1 Bft) W-NW 292 0 min 0,000 mm 0,0 UV-I 0 W/m 11,9 C 13,3 C 3,2 km/h (1 Bft) 98,11 %
10.09.2017 21:06 13,3 C 18,9 C 91 % 1007,1 hPa 0,0 l/m 3,2 km/h (1 Bft) W 280 0 min 0,000 mm 0,0 UV-I 0 W/m 11,9 C 13,3 C 6,4 km/h (2 Bft) 97,37 %
10.09.2017 21:08 13,3 C 18,9 C 91 % 1007,1 hPa 0,0 l/m 2,4 km/h (1 Bft) W 280 0 min 0,000 mm 0,0 UV-I 0 W/m 11,9 C 13,3 C 3,2 km/h (1 Bft) 98,00 %
10.09.2017 21:10 13,3 C 18,9 C 91 % 1007,1 hPa 0,0 l/m 3,0 km/h (1 Bft) W 261 0 min 0,000 mm 0,0 UV-I 0 W/m 11,9 C 13,3 C 4,8 km/h (1 Bft) 100,00 %
10.09.2017 21:12 13,3 C 18,9 C 91 % 1007,2 hPa 0,0 l/m 4,6 km/h (1 Bft) W-SW 254 0 min 0,000 mm 0,0 UV-I 0 W/m 11,9 C 13,3 C 6,4 km/h (2 Bft) 100,00 %
10.09.2017 21:14 13,3 C 18,9 C 91 % 1007,2 hPa 0,0 l/m 2,6 km/h (1 Bft) W-SW 254 0 min 0,000 mm 0,0 UV-I 0 W/m 11,9 C 13,3 C 4,8 km/h (1 Bft) 100,00 %
10.09.2017 21:16 13,3 C 18,9 C 91 % 1007,3 hPa 0,0 l/m 3,5 km/h (1 Bft) W-SW 254 0 min 0,000 mm 0,0 UV-I 0 W/m 11,9 C 13,3 C 4,8 km/h (1 Bft) 100,00 %
10.09.2017 21:18 13,3 C 18,9 C 91 % 1007,3 hPa 0,0 l/m 2,7 km/h (1 Bft) W-SW 254 0 min 0,000 mm 0,0 UV-I 0 W/m 11,9 C 13,3 C 4,8 km/h (1 Bft) 100,00 %
10.09.2017 21:20 13,3 C 18,9 C 91 % 1007,3 hPa 0,0 l/m 2,3 km/h (1 Bft) W-SW 254 0 min 0,000 mm 0,0 UV-I 0 W/m 11,9 C 13,3 C 3,2 km/h (1 Bft) 100,00 %
10.09.2017 21:22 13,3 C 18,9 C 91 % 1007,3 hPa 0,0 l/m 3,4 km/h (1 Bft) W-SW 254 0 min 0,000 mm 0,0 UV-I 0 W/m 11,9 C 13,3 C 4,8 km/h (1 Bft) 100,00 %
10.09.2017 21:24 13,3 C 18,9 C 91 % 1007,3 hPa 0,0 l/m 3,8 km/h (1 Bft) W-SW 253 0 min 0,000 mm 0,0 UV-I 0 W/m 11,9 C 13,3 C 4,8 km/h (1 Bft) 100,00 %
10.09.2017 21:26 13,3 C 18,9 C 91 % 1007,3 hPa 0,0 l/m 3,1 km/h (1 Bft) W-SW 253 0 min 0,000 mm 0,0 UV-I 0 W/m 11,9 C 13,3 C 4,8 km/h (1 Bft) 100,00 %
10.09.2017 21:28 13,3 C 18,9 C 91 % 1007,2 hPa 0,0 l/m 4,6 km/h (1 Bft) W-SW 249 0 min 0,000 mm 0,0 UV-I 0 W/m 11,9 C 13,3 C 6,4 km/h (2 Bft) 97,56 %
10.09.2017 21:30 13,3 C 18,9 C 91 % 1007,2 hPa 0,0 l/m 4,4 km/h (1 Bft) SW 236 0 min 0,000 mm 0,0 UV-I 0 W/m 11,9 C 13,3 C 6,4 km/h (2 Bft) 100,00 %
10.09.2017 21:32 13,3 C 18,9 C 91 % 1007,1 hPa 0,0 l/m 4,1 km/h (1 Bft) SW 232 0 min 0,000 mm 0,0 UV-I 0 W/m 11,9 C 13,3 C 8,0 km/h (2 Bft) 100,00 %
10.09.2017 21:34 13,3 C 18,9 C 91 % 1007,1 hPa 0,0 l/m 3,9 km/h (1 Bft) SW 229 0 min 0,000 mm 0,0 UV-I 0 W/m 11,9 C 13,3 C 4,8 km/h (1 Bft) 100,00 %
10.09.2017 21:36 13,3 C 18,9 C 91 % 1007,1 hPa 0,0 l/m 2,9 km/h (1 Bft) SW 229 0 min 0,000 mm 0,0 UV-I 0 W/m 11,9 C 13,3 C 4,8 km/h (1 Bft) 100,00 %
10.09.2017 21:38 13,3 C 18,9 C 91 % 1007,1 hPa 0,0 l/m 2,7 km/h (1 Bft) SW 229 0 min 0,000 mm 0,0 UV-I 0 W/m 11,9 C 13,3 C 3,2 km/h (1 Bft) 98,00 %
10.09.2017 21:40 13,3 C 18,9 C 91 % 1007,1 hPa 0,0 l/m 0,9 km/h (0 Bft) SW 229 0 min 0,000 mm 0,0 UV-I 0 W/m 11,9 C 13,3 C 3,2 km/h (1 Bft) 100,00 %
10.09.2017 21:42 13,3 C 18,9 C 91 % 1007,1 hPa 0,0 l/m 2,5 km/h (1 Bft) SW 229 0 min 0,000 mm 0,0 UV-I 0 W/m 11,9 C 13,3 C 4,8 km/h (1 Bft) 98,00 %
10.09.2017 21:44 13,3 C 18,9 C 91 % 1007,1 hPa 0,0 l/m 4,1 km/h (1 Bft) SW 229 0 min 0,000 mm 0,0 UV-I 0 W/m 11,9 C 13,3 C 6,4 km/h (2 Bft) 100,00 %
10.09.2017 21:46 13,3 C 18,9 C 91 % 1007,2 hPa 0,0 l/m 2,0 km/h (1 Bft) SW 229 0 min 0,000 mm 0,0 UV-I 0 W/m 11,9 C 13,3 C 3,2 km/h (1 Bft) 97,87 %
10.09.2017 21:48 13,3 C 18,9 C 91 % 1007,2 hPa 0,0 l/m 2,2 km/h (1 Bft) SW 229 0 min 0,000 mm 0,0 UV-I 0 W/m 11,9 C 13,3 C 3,2 km/h (1 Bft) 98,00 %
10.09.2017 21:50 13,3 C 18,9 C 91 % 1007,2 hPa 0,0 l/m 2,9 km/h (1 Bft) SW 229 0 min 0,000 mm 0,0 UV-I 0 W/m 11,9 C 13,3 C 4,8 km/h (1 Bft) 98,00 %
10.09.2017 21:52 13,3 C 18,9 C 91 % 1007,1 hPa 0,0 l/m 2,7 km/h (1 Bft) SW 229 0 min 0,000 mm 0,0 UV-I 0 W/m 11,9 C 13,3 C 4,8 km/h (1 Bft) 97,87 %
10.09.2017 21:54 13,3 C 18,9 C 91 % 1007,1 hPa 0,0 l/m 3,5 km/h (1 Bft) SW 229 0 min 0,000 mm 0,0 UV-I 0 W/m 11,9 C 13,3 C 4,8 km/h (1 Bft) 97,37 %
10.09.2017 21:56 13,3 C 18,9 C 91 % 1007,2 hPa 0,0 l/m 2,6 km/h (1 Bft) SW 229 0 min 0,000 mm 0,0 UV-I 0 W/m 11,9 C 13,3 C 4,8 km/h (1 Bft) 97,73 %
10.09.2017 21:58 13,3 C 18,9 C 91 % 1007,2 hPa 0,0 l/m 5,4 km/h (1 Bft) SW 229 0 min 0,000 mm 0,0 UV-I 0 W/m 11,9 C 13,3 C 8,0 km/h (2 Bft) 96,23 %
10.09.2017 22:00 13,3 C 18,9 C 91 % 1007,2 hPa 0,0 l/m 5,0 km/h (1 Bft) SW 229 0 min 0,000 mm 0,0 UV-I 0 W/m 11,9 C 13,3 C 6,4 km/h (2 Bft) 96,67 %
10.09.2017 22:02 13,3 C 18,9 C 91 % 1007,2 hPa 0,0 l/m 4,5 km/h (1 Bft) SW 229 0 min 0,000 mm 0,0 UV-I 0 W/m 11,9 C 13,3 C 6,4 km/h (2 Bft) 97,01 %
10.09.2017 22:04 13,3 C 18,9 C 91 % 1007,2 hPa 0,0 l/m 4,2 km/h (1 Bft) SW 229 0 min 0,000 mm 0,0 UV-I 0 W/m 11,9 C 13,3 C 6,4 km/h (2 Bft) 97,87 %
10.09.2017 22:06 13,3 C 18,9 C 91 % 1007,2 hPa 0,0 l/m 4,2 km/h (1 Bft) SW 229 0 min 0,000 mm 0,0 UV-I 0 W/m 11,9 C 13,3 C 6,4 km/h (2 Bft) 97,37 %
10.09.2017 22:08 13,3 C 18,9 C 91 % 1007,2 hPa 0,0 l/m 5,5 km/h (1 Bft) SW 236 0 min 0,000 mm 0,0 UV-I 0 W/m 11,9 C 13,3 C 8,0 km/h (2 Bft) 94,64 %
10.09.2017 22:10 13,3 C 18,9 C 91 % 1007,2 hPa 0,0 l/m 4,5 km/h (1 Bft) W-SW 237 0 min 0,000 mm 0,0 UV-I 0 W/m 11,9 C 13,3 C 6,4 km/h (2 Bft) 97,44 %
10.09.2017 22:12 13,3 C 18,9 C 91 % 1007,3 hPa 0,0 l/m 4,1 km/h (1 Bft) SW 236 0 min 0,000 mm 0,0 UV-I 0 W/m 11,9 C 13,3 C 6,4 km/h (2 Bft) 98,00 %
10.09.2017 22:14 13,3 C 18,9 C 92 % 1007,2 hPa 0,0 l/m 5,4 km/h (1 Bft) SW 229 0 min 0,000 mm 0,0 UV-I 0 W/m 12,0 C 13,3 C 8,0 km/h (2 Bft) 97,56 %
10.09.2017 22:16 13,3 C 18,9 C 92 % 1007,2 hPa 0,0 l/m 6,5 km/h (2 Bft) SW 227 0 min 0,000 mm 0,0 UV-I 0 W/m 12,0 C 13,3 C 9,7 km/h (2 Bft) 98,11 %
10.09.2017 22:18 13,3 C 18,9 C 92 % 1007,2 hPa 0,0 l/m 5,7 km/h (1 Bft) SW 235 0 min 0,000 mm 0,0 UV-I 0 W/m 12,0 C 13,3 C 8,0 km/h (2 Bft) 95,74 %
10.09.2017 22:20 13,3 C 18,9 C 92 % 1007,3 hPa 0,0 l/m 5,1 km/h (1 Bft) SW 220 0 min 0,000 mm 0,0 UV-I 0 W/m 12,0 C 13,3 C 6,4 km/h (2 Bft) 97,87 %
10.09.2017 22:22 13,3 C 18,9 C 92 % 1007,3 hPa 0,0 l/m 6,0 km/h (2 Bft) SW 224 0 min 0,000 mm 0,0 UV-I 0 W/m 12,0 C 13,3 C 8,0 km/h (2 Bft) 97,56 %
10.09.2017 22:24 13,3 C 18,9 C 92 % 1007,3 hPa 0,0 l/m 5,4 km/h (1 Bft) SW 233 0 min 0,000 mm 0,0 UV-I 0 W/m 12,0 C 13,3 C 8,0 km/h (2 Bft) 98,21 %
10.09.2017 22:26 13,3 C 18,9 C 92 % 1007,3 hPa 0,0 l/m 4,1 km/h (1 Bft) SW 219 0 min 0,000 mm 0,0 UV-I 0 W/m 12,0 C 13,3 C 6,4 km/h (2 Bft) 95,74 %
10.09.2017 22:28 13,3 C 18,9 C 92 % 1007,2 hPa 0,0 l/m 4,7 km/h (1 Bft) SW 236 0 min 0,000 mm 0,0 UV-I 0 W/m 12,0 C 13,3 C 8,0 km/h (2 Bft) 96,00 %
10.09.2017 22:30 13,3 C 18,9 C 92 % 1007,2 hPa 0,0 l/m 4,5 km/h (1 Bft) SW 234 0 min 0,000 mm 0,0 UV-I 0 W/m 12,0 C 13,3 C 8,0 km/h (2 Bft) 95,74 %
10.09.2017 22:32 13,3 C 18,9 C 92 % 1007,3 hPa 0,0 l/m 5,6 km/h (1 Bft) SW 232 0 min 0,000 mm 0,0 UV-I 0 W/m 12,0 C 13,3 C 8,0 km/h (2 Bft) 97,56 %
10.09.2017 22:34 13,3 C 18,9 C 92 % 1007,3 hPa 0,0 l/m 4,7 km/h (1 Bft) W-SW 245 0 min 0,000 mm 0,0 UV-I 0 W/m 12,0 C 13,3 C 8,0 km/h (2 Bft) 95,12 %
10.09.2017 22:36 13,3 C 18,9 C 92 % 1007,3 hPa 0,0 l/m 4,3 km/h (1 Bft) SW 230 0 min 0,000 mm 0,0 UV-I 0 W/m 12,0 C 13,3 C 8,0 km/h (2 Bft) 94,64 %
10.09.2017 22:38 13,3 C 18,9 C 92 % 1007,3 hPa 0,0 l/m 4,8 km/h (1 Bft) SW 229 0 min 0,000 mm 0,0 UV-I 0 W/m 12,0 C 13,3 C 6,4 km/h (2 Bft) 97,14 %
10.09.2017 22:40 13,3 C 18,9 C 92 % 1007,3 hPa 0,0 l/m 5,4 km/h (1 Bft) W-SW 252 0 min 0,000 mm 0,0 UV-I 0 W/m 12,0 C 13,3 C 9,7 km/h (2 Bft) 94,00 %
10.09.2017 22:43 13,3 C 18,9 C 92 % 1007,2 hPa 0,0 l/m 4,8 km/h (1 Bft) W-SW 254 0 min 0,000 mm 0,0 UV-I 0 W/m 12,0 C 13,3 C 6,4 km/h (2 Bft) 95,00 %
10.09.2017 22:44 13,3 C 18,9 C 92 % 1007,2 hPa 0,0 l/m 5,1 km/h (1 Bft) W-SW 246 0 min 0,000 mm 0,0 UV-I 0 W/m 12,0 C 13,3 C 6,4 km/h (2 Bft) 100,00 %
10.09.2017 22:46 13,3 C 18,9 C 92 % 1007,2 hPa 0,0 l/m 5,9 km/h (2 Bft) W 263 0 min 0,000 mm 0,0 UV-I 0 W/m 12,0 C 13,3 C 9,7 km/h (2 Bft) 95,12 %
10.09.2017 22:48 13,2 C 18,9 C 92 % 1007,2 hPa 0,0 l/m 4,7 km/h (1 Bft) W-SW 238 0 min 0,000 mm 0,0 UV-I 0 W/m 11,9 C 13,2 C 6,4 km/h (2 Bft) 96,23 %
10.09.2017 22:50 13,2 C 18,9 C 92 % 1007,2 hPa 0,0 l/m 5,0 km/h (1 Bft) SW 224 0 min 0,000 mm 0,0 UV-I 0 W/m 11,9 C 13,2 C 8,0 km/h (2 Bft) 97,87 %
10.09.2017 22:52 13,2 C 18,9 C 92 % 1007,2 hPa 0,0 l/m 4,5 km/h (1 Bft) W-SW 250 0 min 0,000 mm 0,0 UV-I 0 W/m 11,9 C 13,2 C 8,0 km/h (2 Bft) 94,87 %
10.09.2017 22:54 13,2 C 18,9 C 92 % 1007,2 hPa 0,0 l/m 5,2 km/h (1 Bft) SW 233 0 min 0,000 mm 0,0 UV-I 0 W/m 11,9 C 13,2 C 8,0 km/h (2 Bft) 97,37 %
10.09.2017 22:56 13,2 C 18,9 C 92 % 1007,2 hPa 0,0 l/m 6,6 km/h (2 Bft) SW 232 0 min 0,000 mm 0,0 UV-I 0 W/m 11,9 C 13,1 C 9,7 km/h (2 Bft) 96,43 %
10.09.2017 22:58 13,2 C 18,9 C 92 % 1007,3 hPa 0,0 l/m 6,2 km/h (2 Bft) SW 223 0 min 0,000 mm 0,0 UV-I 0 W/m 11,9 C 13,2 C 8,0 km/h (2 Bft) 98,21 %
10.09.2017 23:00 13,2 C 18,9 C 92 % 1007,3 hPa 0,0 l/m 4,3 km/h (1 Bft) SW 225 0 min 0,000 mm 0,0 UV-I 0 W/m 11,9 C 13,2 C 6,4 km/h (2 Bft) 91,30 %
10.09.2017 23:02 13,2 C 18,9 C 92 % 1007,2 hPa 0,0 l/m 3,9 km/h (1 Bft) SW 232 0 min 0,000 mm 0,0 UV-I 0 W/m 11,9 C 13,2 C 6,4 km/h (2 Bft) 97,06 %
10.09.2017 23:04 13,2 C 18,9 C 92 % 1007,2 hPa 0,0 l/m 4,1 km/h (1 Bft) SW 225 0 min 0,000 mm 0,0 UV-I 0 W/m 11,9 C 13,2 C 6,4 km/h (2 Bft) 97,87 %
10.09.2017 23:06 13,2 C 18,9 C 92 % 1007,2 hPa 0,0 l/m 4,8 km/h (1 Bft) SW 235 0 min 0,000 mm 0,0 UV-I 0 W/m 11,9 C 13,2 C 6,4 km/h (2 Bft) 97,14 %
10.09.2017 23:08 13,2 C 18,9 C 92 % 1007,2 hPa 0,0 l/m 3,7 km/h (1 Bft) SW 224 0 min 0,000 mm 0,0 UV-I 0 W/m 11,9 C 13,2 C 6,4 km/h (2 Bft) 98,11 %
10.09.2017 23:10 13,2 C 18,9 C 92 % 1007,3 hPa 0,0 l/m 5,2 km/h (1 Bft) S-SW 207 0 min 0,000 mm 0,0 UV-I 0 W/m 11,9 C 13,2 C 8,0 km/h (2 Bft) 100,00 %
10.09.2017 23:12 13,2 C 18,9 C 92 % 1007,2 hPa 0,0 l/m 3,2 km/h (1 Bft) S-SW 209 0 min 0,000 mm 0,0 UV-I 0 W/m 11,9 C 13,2 C 6,4 km/h (2 Bft) 100,00 %
10.09.2017 23:14 13,2 C 18,9 C 92 % 1007,2 hPa 0,0 l/m 3,7 km/h (1 Bft) W-SW 245 0 min 0,000 mm 0,0 UV-I 0 W/m 11,9 C 13,2 C 6,4 km/h (2 Bft) 98,00 %
10.09.2017 23:16 13,2 C 18,9 C 92 % 1007,2 hPa 0,0 l/m 4,1 km/h (1 Bft) S-SW 200 0 min 0,000 mm 0,0 UV-I 0 W/m 11,9 C 13,2 C 6,4 km/h (2 Bft) 98,00 %
10.09.2017 23:18 13,2 C 18,9 C 92 % 1007,2 hPa 0,0 l/m 3,7 km/h (1 Bft) SW 219 0 min 0,000 mm 0,0 UV-I 0 W/m 11,9 C 13,2 C 6,4 km/h (2 Bft) 97,56 %
10.09.2017 23:20 13,2 C 18,9 C 92 % 1007,3 hPa 0,0 l/m 3,1 km/h (1 Bft) SW 219 0 min 0,000 mm 0,0 UV-I 0 W/m 11,9 C 13,2 C 4,8 km/h (1 Bft) 100,00 %
10.09.2017 23:23 13,2 C 18,9 C 92 % 1007,4 hPa 0,0 l/m 3,4 km/h (1 Bft) SW 219 0 min 0,000 mm 0,0 UV-I 0 W/m 11,9 C 13,2 C 6,4 km/h (2 Bft) 98,75 %
10.09.2017 23:24 13,2 C 18,9 C 92 % 1007,4 hPa 0,0 l/m 3,9 km/h (1 Bft) SW 219 0 min 0,000 mm 0,0 UV-I 0 W/m 11,9 C 13,2 C 4,8 km/h (1 Bft) 100,00 %
10.09.2017 23:26 13,2 C 18,9 C 92 % 1007,5 hPa 0,0 l/m 2,4 km/h (1 Bft) SW 219 0 min 0,000 mm 0,0 UV-I 0 W/m 11,9 C 13,2 C 3,2 km/h (1 Bft) 100,00 %
10.09.2017 23:28 13,2 C 18,9 C 92 % 1007,5 hPa 0,0 l/m 2,8 km/h (1 Bft) S-SW 213 0 min 0,000 mm 0,0 UV-I 0 W/m 11,9 C 13,2 C 4,8 km/h (1 Bft) 100,00 %
10.09.2017 23:30 13,2 C 18,9 C 92 % 1007,4 hPa 0,0 l/m 3,0 km/h (1 Bft) S-SW 213 0 min 0,000 mm 0,0 UV-I 0 W/m 11,9 C 13,2 C 4,8 km/h (1 Bft) 100,00 %
10.09.2017 23:32 13,2 C 18,9 C 92 % 1007,4 hPa 0,0 l/m 3,8 km/h (1 Bft) S-SW 210 0 min 0,000 mm 0,0 UV-I 0 W/m 11,9 C 13,2 C 6,4 km/h (2 Bft) 100,00 %
10.09.2017 23:34 13,3 C 18,9 C 92 % 1007,4 hPa 0,0 l/m 4,1 km/h (1 Bft) S-SW 212 0 min 0,000 mm 0,0 UV-I 0 W/m 12,0 C 13,3 C 6,4 km/h (2 Bft) 100,00 %
10.09.2017 23:36 13,2 C 18,9 C 92 % 1007,3 hPa 0,0 l/m 3,2 km/h (1 Bft) S-SW 213 0 min 0,000 mm 0,0 UV-I 0 W/m 11,9 C 13,2 C 8,0 km/h (2 Bft) 100,00 %
10.09.2017 23:38 13,2 C 18,9 C 92 % 1007,3 hPa 0,0 l/m 2,9 km/h (1 Bft) S 180 0 min 0,000 mm 0,0 UV-I 0 W/m 11,9 C 13,2 C 6,4 km/h (2 Bft) 100,00 %
10.09.2017 23:40 13,2 C 18,9 C 92 % 1007,3 hPa 0,0 l/m 2,4 km/h (1 Bft) S 184 0 min 0,000 mm 0,0 UV-I 0 W/m 11,9 C 13,2 C 4,8 km/h (1 Bft) 100,00 %
10.09.2017 23:42 13,2 C 18,9 C 92 % 1007,3 hPa 0,0 l/m 1,6 km/h (1 Bft) S 184 0 min 0,000 mm 0,0 UV-I 0 W/m 11,9 C 13,2 C 4,8 km/h (1 Bft) 100,00 %
10.09.2017 23:44 13,2 C 18,9 C 92 % 1007,3 hPa 0,0 l/m 3,1 km/h (1 Bft) S 188 0 min 0,000 mm 0,0 UV-I 0 W/m 11,9 C 13,2 C 6,4 km/h (2 Bft) 100,00 %
10.09.2017 23:46 13,2 C 18,9 C 92 % 1007,3 hPa 0,0 l/m 3,2 km/h (1 Bft) S-SW 192 0 min 0,000 mm 0,0 UV-I 0 W/m 11,9 C 13,2 C 6,4 km/h (2 Bft) 100,00 %
10.09.2017 23:48 13,2 C 18,9 C 92 % 1007,3 hPa 0,0 l/m 3,7 km/h (1 Bft) S-SW 207 0 min 0,000 mm 0,0 UV-I 0 W/m 11,9 C 13,2 C 6,4 km/h (2 Bft) 100,00 %
10.09.2017 23:50 13,2 C 18,9 C 92 % 1007,4 hPa 0,0 l/m 4,1 km/h (1 Bft) S-SW 207 0 min 0,000 mm 0,0 UV-I 0 W/m 11,9 C 13,2 C 6,4 km/h (2 Bft) 100,00 %
10.09.2017 23:52 13,2 C 18,9 C 92 % 1007,3 hPa 0,0 l/m 2,8 km/h (1 Bft) S-SW 207 0 min 0,000 mm 0,0 UV-I 0 W/m 11,9 C 13,2 C 4,8 km/h (1 Bft) 100,00 %
10.09.2017 23:54 13,2 C 18,9 C 92 % 1007,2 hPa 0,0 l/m 3,7 km/h (1 Bft) W-SW 238 0 min 0,000 mm 0,0 UV-I 0 W/m 11,9 C 13,2 C 6,4 km/h (2 Bft) 100,00 %
10.09.2017 23:56 13,2 C 18,9 C 92 % 1007,1 hPa 0,0 l/m 3,4 km/h (1 Bft) W-SW 238 0 min 0,000 mm 0,0 UV-I 0 W/m 11,9 C 13,2 C 4,8 km/h (1 Bft) 100,00 %
10.09.2017 23:58 13,2 C 18,9 C 92 % 1007,0 hPa 0,0 l/m 3,1 km/h (1 Bft) W-SW 238 0 min 0,000 mm 0,0 UV-I 0 W/m 11,9 C 13,2 C 4,8 km/h (1 Bft) 100,00 %
_ Min-Zeit 11:40 03:48 00:00 04:40 - 17:24 - - - - - - 04:42 08:34 16:37 23:00
Minimum _ 13,0 C 18,9 C 78 % 1002,4 hPa - 0,8 km/h (0 Bft) - - - - - - 11,0 C 10,1 C 1,6 km/h (1 Bft) 91,30 %
_ Max-Zeit 15:10 00:00 22:14 23:26 00:00 11:34 - - 12:14 15:02 12:16 12:20 18:10 15:50 08:36 00:00
Maximum _ 15,3 C 19,4 C 92 % 1007,5 hPa 0,0 l/m 12,4 km/h
W-SW (3 Bft)
- - 2 min 0,152 mm 2,7 UV-I 454 W/m 12,5 C 15,3 C 24,1 km/h
SW (4 Bft)
100,00 %
Durchschnitt _ 13,9 C 19,0 C 86 % 1005,3 hPa #0,0 l/m 6,0 km/h (2 Bft) W-SW - #18 min. #1,219 mm 1,1 UV-I 134 W/m 11,6 C 13,5 C 10,0 km/h (2 Bft) 98,14 %